[[{"header":{"parameterUnit":"m.s-1","parameterCategory":1,"la1":30.6,"la2":29.2853,"lo1":-89.7004,"lo2":-87.6739,"dy":0.0162,"dx":0.0183,"nx":112,"ny":82,"refTime":"2023-09-24T06:00:00:Z","depth":0,"parameterNumber":2,"parameterNumberName":"U-component_of_WINDS"},"data":[0.0,0.0,0.0,0.0,0.0,0.0,0.0,0.0,0.0,0.0,0.0,0.0,0.0,0.0,0.0,0.0,0.0,0.0,0.0,0.0,0.0,0.0,0.0,0.0,0.0,0.0,0.0,0.0,0.0,0.0,0.0,0.0,0.0,0.0,0.0,0.0,0.0,0.0,0.0,0.0,0.0,0.0,0.0,0.0,0.0,0.0,0.0,0.0,0.0,0.0,0.0,0.0,0.0,0.0,0.0,0.0,0.0,0.0,0.0,0.0,0.0,0.0,0.0,0.0,0.0,0.0,0.0,0.0,0.0,0.0,0.0,0.0,0.0,0.0,0.0,0.0,0.0,0.0,0.0,0.0,0.0,0.0,0.0,0.0,0.0,0.0,0.0,0.0,0.0,0.0,2.1815,2.187,2.2204,2.2529,2.2876,2.2913,2.2913,2.2913,0.0,0.0,0.0,0.0,0.0,0.0,0.0,0.0,0.0,0.0,0.0,0.0,0.0,0.0,0.0,0.0,0.0,0.0,0.0,0.0,0.0,0.0,0.0,0.0,0.0,0.0,0.0,0.0,0.0,0.0,0.0,0.0,0.0,0.0,0.0,0.0,0.0,0.0,0.0,0.0,0.0,0.0,0.0,0.0,0.0,0.0,0.0,0.0,0.0,0.0,0.0,0.0,0.0,0.0,0.0,0.0,0.0,0.0,0.0,0.0,0.0,0.0,0.0,0.0,0.0,0.0,0.0,0.0,0.0,0.0,0.0,0.0,0.0,0.0,0.0,0.0,0.0,0.0,0.0,0.0,0.0,0.0,0.0,0.0,0.0,0.0,0.0,0.0,0.0,0.0,0.0,0.0,0.0,0.0,0.0,0.0,0.0,0.0,0.0,0.0,0.0,0.0,0.0,0.0,2.235,2.2693,2.2767,2.284,2.2895,2.2913,2.2913,2.2913,0.0,0.0,0.0,0.0,0.0,0.0,0.0,0.0,0.0,0.0,0.0,0.0,0.0,0.0,0.0,0.0,0.0,0.0,0.0,0.0,0.0,0.0,0.0,0.0,0.0,0.0,0.0,0.0,0.0,0.0,0.0,0.0,0.0,0.0,0.0,0.0,0.0,0.0,0.0,0.0,0.0,0.0,0.0,0.0,0.0,0.0,0.0,0.0,0.0,0.0,0.0,0.0,0.0,0.0,0.0,0.0,0.0,0.0,0.0,0.0,0.0,0.0,0.0,0.0,0.0,0.0,0.0,0.0,0.0,0.0,0.0,0.0,0.0,0.0,0.0,0.0,0.0,0.0,0.0,0.0,0.0,0.0,0.0,0.0,0.0,0.0,0.0,0.0,0.0,0.0,0.0,0.0,0.0,0.0,0.0,0.0,0.0,0.0,0.0,0.0,0.0,0.0,0.0,2.262,2.2767,2.3187,2.3224,2.334,2.3584,2.3602,2.3602,2.3602,2.3602,0.0,0.0,0.0,0.0,0.0,0.0,0.0,0.0,0.0,0.0,0.0,0.0,0.0,0.0,0.0,0.0,0.0,0.0,0.0,0.0,0.0,0.0,0.0,0.0,0.0,0.0,0.0,0.0,0.0,0.0,0.0,0.0,0.0,0.0,0.0,0.0,0.0,0.0,0.0,0.0,0.0,0.0,0.0,0.0,0.0,0.0,0.0,0.0,0.0,0.0,0.0,0.0,0.0,0.0,0.0,0.0,0.0,0.0,0.0,0.0,0.0,0.0,0.0,0.0,0.0,0.0,0.0,0.0,0.0,0.0,0.0,0.0,0.0,0.0,0.0,0.0,0.0,0.0,0.0,0.0,0.0,0.0,0.0,0.0,0.0,0.0,0.0,0.0,0.0,0.0,0.0,0.0,0.0,0.0,0.0,0.0,0.0,0.0,0.0,0.0,0.0,0.0,2.3133,2.3321,2.3633,2.3669,2.3822,2.4183,2.4202,2.4202,2.4202,2.4202,0.0,0.0,0.0,0.0,0.0,0.0,0.0,0.0,0.0,0.0,0.0,0.0,0.0,0.0,0.0,0.0,0.0,0.0,0.0,0.0,0.0,0.0,0.0,0.0,0.0,0.0,0.0,0.0,0.0,0.0,0.0,0.0,0.0,0.0,0.0,0.0,0.0,0.0,0.0,0.0,0.0,0.0,0.0,0.0,0.0,0.0,0.0,0.0,0.0,0.0,0.0,0.0,0.0,0.0,0.0,0.0,0.0,0.0,0.0,0.0,0.0,0.0,0.0,0.0,0.0,0.0,0.0,0.0,0.0,0.0,0.0,0.0,0.0,0.0,0.0,0.0,0.0,0.0,0.0,0.0,0.0,0.0,0.0,0.0,0.0,0.0,0.0,0.0,0.0,0.0,0.0,0.0,0.0,0.0,0.0,0.0,0.0,0.0,0.0,0.0,0.0,0.0,2.384,2.4128,2.4165,2.4165,2.4165,2.4202,2.4202,2.4202,2.4202,2.4202,0.0,0.0,0.0,0.0,0.0,0.0,0.0,0.0,0.0,0.0,0.0,0.0,0.0,0.0,0.0,0.0,0.0,0.0,0.0,0.0,0.0,0.0,0.0,0.0,0.0,0.0,0.0,0.0,0.0,0.0,0.0,0.0,0.0,0.0,0.0,0.0,0.0,0.0,0.0,0.0,0.0,0.0,0.0,0.0,0.0,0.0,0.0,0.0,0.0,0.0,0.0,0.0,0.0,0.0,0.0,0.0,0.0,0.0,0.0,0.0,0.0,0.0,0.0,0.0,0.0,0.0,0.0,0.0,0.0,0.0,0.0,0.0,0.0,0.0,0.0,0.0,0.0,0.0,0.0,0.0,0.0,0.0,0.0,0.0,0.0,0.0,0.0,0.0,0.0,0.0,0.0,0.0,0.0,0.0,0.0,0.0,0.0,0.0,0.0,0.0,0.0,0.0,2.4085,2.4202,0.0,2.4202,2.4202,2.4202,2.4202,2.4202,2.4202,0.0,0.0,0.0,0.0,0.0,0.0,0.0,0.0,0.0,0.0,0.0,0.0,0.0,0.0,0.0,0.0,0.0,0.0,0.0,0.0,0.0,0.0,0.0,0.0,0.0,0.0,0.0,0.0,0.0,0.0,0.0,0.0,0.0,0.0,0.0,0.0,0.0,0.0,0.0,0.0,0.0,0.0,0.0,0.0,0.0,0.0,0.0,0.0,0.0,0.0,0.0,0.0,0.0,0.0,0.0,0.0,0.0,0.0,0.0,0.0,0.0,0.0,0.0,0.0,0.0,0.0,0.0,0.0,0.0,0.0,0.0,0.0,0.0,0.0,0.0,0.0,0.0,0.0,0.0,0.0,0.0,0.0,0.0,0.0,0.0,0.0,0.0,0.0,0.0,0.0,0.0,0.0,0.0,0.0,0.0,0.0,0.0,0.0,0.0,0.0,0.0,0.0,2.436,2.4404,2.4459,0.0,2.4587,2.4587,2.4587,2.4587,2.4587,2.4587,0.0,0.0,0.0,0.0,0.0,0.0,0.0,0.0,0.0,0.0,0.0,0.0,0.0,0.0,0.0,0.0,0.0,0.0,0.0,0.0,0.0,0.0,0.0,0.0,0.0,0.0,0.0,0.0,0.0,0.0,0.0,0.0,0.0,0.0,0.0,0.0,0.0,0.0,0.0,0.0,0.0,0.0,0.0,0.0,0.0,0.0,0.0,0.0,0.0,0.0,0.0,0.0,0.0,0.0,0.0,0.0,0.0,0.0,0.0,0.0,0.0,0.0,0.0,0.0,0.0,0.0,0.0,0.0,0.0,0.0,0.0,0.0,0.0,0.0,0.0,0.0,0.0,0.0,0.0,0.0,0.0,0.0,0.0,0.0,0.0,0.0,0.0,0.0,0.0,0.0,0.0,0.0,0.0,0.0,0.0,0.0,0.0,0.0,0.0,0.0,0.0,0.0,2.4764,2.4819,2.4966,2.5352,2.5388,2.5388,2.5388,2.5388,2.5388,0.0,0.0,0.0,0.0,0.0,0.0,0.0,0.0,0.0,0.0,0.0,0.0,0.0,0.0,0.0,0.0,0.0,0.0,0.0,0.0,0.0,0.0,0.0,0.0,0.0,0.0,0.0,0.0,0.0,0.0,0.0,0.0,0.0,0.0,0.0,0.0,0.0,0.0,0.0,0.0,0.0,0.0,0.0,0.0,0.0,0.0,0.0,0.0,0.0,0.0,0.0,0.0,0.0,0.0,0.0,0.0,0.0,0.0,0.0,0.0,0.0,0.0,0.0,0.0,0.0,0.0,0.0,0.0,0.0,0.0,0.0,0.0,0.0,0.0,0.0,0.0,0.0,0.0,0.0,0.0,0.0,0.0,0.0,0.0,0.0,0.0,0.0,0.0,0.0,0.0,0.0,0.0,0.0,0.0,0.0,0.0,0.0,0.0,0.0,0.0,0.0,0.0,0.0,2.5168,2.5223,2.526,2.5388,2.5388,2.5388,2.5388,2.5388,2.5388,2.5388,0.0,0.0,0.0,0.0,0.0,0.0,0.0,0.0,0.0,0.0,0.0,0.0,0.0,0.0,0.0,0.0,0.0,0.0,0.0,0.0,0.0,0.0,0.0,0.0,0.0,0.0,0.0,0.0,0.0,0.0,0.0,0.0,0.0,0.0,0.0,0.0,0.0,0.0,0.0,0.0,0.0,0.0,0.0,0.0,0.0,0.0,0.0,0.0,0.0,0.0,0.0,0.0,0.0,0.0,0.0,0.0,0.0,0.0,0.0,0.0,0.0,0.0,0.0,0.0,0.0,0.0,0.0,0.0,0.0,0.0,0.0,0.0,0.0,0.0,0.0,0.0,0.0,0.0,0.0,0.0,0.0,0.0,0.0,0.0,0.0,0.0,0.0,0.0,0.0,0.0,0.0,0.0,0.0,0.0,0.0,0.0,0.0,0.0,0.0,0.0,0.0,0.0,2.5572,2.5627,2.57,2.5866,2.5884,2.5884,2.5884,2.5884,2.5884,2.5884,0.0,0.0,0.0,0.0,0.0,0.0,0.0,0.0,0.0,0.0,0.0,0.0,0.0,0.0,0.0,0.0,0.0,0.0,0.0,0.0,0.0,0.0,0.0,0.0,0.0,0.0,0.0,0.0,0.0,0.0,0.0,0.0,0.0,0.0,0.0,0.0,0.0,0.0,0.0,0.0,0.0,0.0,0.0,0.0,0.0,0.0,0.0,0.0,0.0,0.0,0.0,0.0,0.0,0.0,0.0,0.0,0.0,0.0,0.0,0.0,0.0,0.0,0.0,0.0,0.0,0.0,0.0,0.0,0.0,0.0,0.0,0.0,0.0,0.0,0.0,0.0,0.0,0.0,0.0,0.0,0.0,0.0,0.0,0.0,0.0,0.0,0.0,0.0,0.0,0.0,0.0,0.0,0.0,0.0,0.0,0.0,0.0,0.0,0.0,0.0,0.0,0.0,2.5994,2.6076,2.6196,2.6554,2.6591,2.6591,2.6591,2.6591,2.6591,2.6591,0.0,0.0,0.0,0.0,0.0,0.0,0.0,0.0,0.0,0.0,0.0,0.0,0.0,0.0,0.0,0.0,0.0,0.0,0.0,0.0,0.0,0.0,0.0,0.0,0.0,0.0,0.0,0.0,0.0,0.0,0.0,0.0,0.0,0.0,0.0,0.0,0.0,0.0,0.0,0.0,0.0,0.0,0.0,0.0,0.0,0.0,0.0,0.0,0.0,0.0,0.0,0.0,0.0,0.0,0.0,0.0,0.0,0.0,0.0,0.0,2.3271,2.3338,0.0,0.0,0.0,0.0,0.0,0.0,0.0,0.0,0.0,0.0,0.0,0.0,0.0,0.0,0.0,0.0,0.0,0.0,0.0,0.0,0.0,0.0,0.0,0.0,0.0,0.0,0.0,0.0,0.0,0.0,0.0,0.0,0.0,0.0,0.0,0.0,0.0,0.0,0.0,0.0,2.6435,2.6472,2.6481,2.6573,2.6591,2.6591,2.6591,2.6591,2.6591,2.6591,2.6527,0.0,0.0,0.0,0.0,0.0,0.0,0.0,0.0,0.0,0.0,0.0,0.0,0.0,0.0,0.0,0.0,0.0,0.0,0.0,0.0,0.0,0.0,0.0,0.0,0.0,0.0,0.0,0.0,0.0,0.0,0.0,0.0,0.0,0.0,0.0,0.0,0.0,0.0,0.0,0.0,0.0,0.0,0.0,0.0,0.0,0.0,0.0,0.0,0.0,0.0,0.0,0.0,0.0,0.0,0.0,0.0,0.0,0.0,0.0,2.3502,2.3106,0.0,0.0,0.0,0.0,0.0,0.0,0.0,0.0,0.0,0.0,0.0,0.0,0.0,0.0,0.0,0.0,0.0,0.0,0.0,0.0,0.0,0.0,0.0,0.0,0.0,0.0,0.0,0.0,0.0,0.0,0.0,0.0,0.0,0.0,0.0,0.0,0.0,0.0,0.0,0.0,2.7132,2.7187,2.7187,2.7187,2.7187,2.7187,2.7187,2.7187,2.7187,2.7187,2.7187,0.0,0.0,0.0,0.0,0.0,0.0,0.0,0.0,0.0,0.0,0.0,0.0,0.0,0.0,0.0,0.0,0.0,0.0,0.0,0.0,0.0,0.0,0.0,0.0,0.0,0.0,0.0,0.0,0.0,0.0,0.0,0.0,0.0,0.0,0.0,0.0,0.0,0.0,0.0,0.0,0.0,0.0,0.0,0.0,0.0,0.0,0.0,0.0,0.0,0.0,0.0,0.0,0.0,2.4232,2.4889,2.5806,2.5526,2.5726,2.6199,2.4196,2.3358,2.3358,2.3358,0.0,0.0,0.0,0.0,0.0,0.0,0.0,0.0,0.0,0.0,0.0,0.0,0.0,0.0,0.0,0.0,0.0,0.0,0.0,0.0,0.0,0.0,2.5627,2.57,2.5958,2.6123,2.5866,0.0,0.0,0.0,0.0,0.0,0.0,0.0,0.0,0.0,0.0,0.0,2.7757,2.7793,2.7793,2.7793,2.7793,2.7793,2.7793,2.7793,2.7793,2.7793,2.7793,2.7646,0.0,0.0,0.0,0.0,0.0,0.0,0.0,0.0,0.0,0.0,0.0,0.0,0.0,0.0,0.0,0.0,0.0,0.0,0.0,0.0,0.0,0.0,0.0,0.0,0.0,0.0,0.0,0.0,0.0,0.0,0.0,0.0,2.2222,2.2222,0.0,0.0,0.0,0.0,0.0,0.0,0.0,0.0,0.0,0.0,0.0,0.0,0.0,2.4728,2.5076,2.5076,2.5113,2.515,2.5205,2.5312,2.547,2.5422,2.544,2.5544,2.522,0.0,2.5076,2.5076,0.0,0.0,0.0,0.0,0.0,0.0,0.0,0.0,0.0,0.0,0.0,0.0,0.0,0.0,0.0,0.0,0.0,0.0,0.0,0.0,0.0,0.0,2.6545,2.6894,2.7004,2.7132,2.7408,2.693,2.6426,2.6426,2.6729,2.6986,0.0,0.0,0.0,0.0,0.0,0.0,2.7793,2.7793,2.7793,2.7793,2.7793,2.7793,2.7793,2.7793,2.7793,2.7793,2.7793,2.7775,2.772,2.772,0.0,0.0,0.0,0.0,0.0,0.0,0.0,0.0,0.0,0.0,0.0,0.0,0.0,0.0,0.0,0.0,0.0,0.0,0.0,0.0,0.0,0.0,0.0,0.0,0.0,0.0,0.0,0.0,0.0,2.2382,2.2638,2.2638,2.2803,2.2913,0.0,0.0,0.0,0.0,0.0,0.0,0.0,0.0,0.0,2.4882,2.504,2.5223,2.5388,2.5388,2.5517,2.5737,2.5976,2.6196,2.6416,2.6637,2.6747,2.6747,2.6747,2.6747,2.6673,2.5774,2.5388,2.5388,0.0,0.0,0.0,0.0,2.5388,2.5425,2.5645,2.5737,2.5756,2.6013,0.0,0.0,0.0,0.0,0.0,0.0,0.0,2.7004,2.7004,2.7132,2.7316,2.75,2.7536,2.7591,2.7757,2.7518,2.7279,2.7279,2.7426,2.7536,2.7536,2.7683,0.0,0.0,0.0,2.7367,2.8367,2.7811,2.7635,2.8385,2.8472,2.8472,2.8472,2.8472,2.8472,2.8472,2.8472,2.8381,2.816,2.8142,2.7958,0.0,0.0,0.0,0.0,0.0,0.0,0.0,0.0,0.0,0.0,0.0,0.0,0.0,0.0,0.0,0.0,0.0,0.0,0.0,0.0,0.0,0.0,0.0,0.0,0.0,0.0,0.0,0.0,2.2803,2.3059,2.3059,2.3242,2.3394,0.0,0.0,0.0,0.0,0.0,0.0,2.5388,2.5388,2.5499,2.57,2.5719,2.5811,2.6013,2.6013,2.6159,2.6453,2.6765,2.7077,2.7371,2.7665,2.7793,2.7793,2.7793,2.7793,2.7701,2.6508,2.6013,2.6013,2.6013,2.6013,2.6013,2.6013,2.6013,2.6049,2.6343,2.6453,2.6508,2.682,2.7114,2.7353,2.7353,0.0,0.0,0.0,0.0,2.7793,2.7793,2.7793,2.783,2.7922,2.7958,2.7977,2.8087,2.8105,2.805,2.783,2.7885,2.7826,2.751,2.7831,0.0,2.8041,2.747,2.7529,2.882,2.8122,2.7882,2.8886,2.9005,2.9005,2.9005,2.9005,2.9005,2.9005,2.9005,2.8876,2.8553,2.8535,2.8352,2.7958,0.0,0.0,0.0,0.0,0.0,0.0,0.0,0.0,0.0,0.0,0.0,0.0,0.0,0.0,0.0,0.0,0.0,0.0,0.0,0.0,0.0,0.0,0.0,0.0,0.0,0.0,0.0,0.0,0.0,2.3462,2.4207,0.0,0.0,0.0,0.0,2.5333,2.5352,2.537,2.5388,2.5388,2.5756,2.6527,2.6545,2.6912,2.7665,2.7665,2.7683,2.7701,2.772,2.7738,2.7775,2.7775,2.7793,2.7793,2.7793,2.7793,2.7793,2.7701,2.7665,2.7665,2.7665,2.7665,2.7665,2.7665,2.7665,2.7683,2.7701,2.7701,2.7701,2.772,2.7738,2.7757,2.7757,2.7775,0.0,0.0,2.7793,2.7793,2.7793,2.7793,2.7903,2.826,2.837,2.8462,2.8876,2.895,2.8729,2.794,2.8124,2.7955,2.67,0.0,2.8504,2.7258,2.8086,2.8897,2.8975,2.8945,2.8916,2.8975,2.9005,2.9005,2.9005,2.9005,2.9005,2.9005,2.9005,2.9005,2.8957,2.8986,2.8773,2.837,2.837,0.0,0.0,0.0,0.0,0.0,0.0,0.0,0.0,0.0,0.0,0.0,0.0,0.0,0.0,0.0,0.0,0.0,0.0,0.0,0.0,0.0,0.0,0.0,0.0,0.0,0.0,0.0,0.0,2.4335,2.4856,0.0,2.5186,2.5315,2.5609,2.6141,2.6178,2.6398,2.6912,2.6949,2.7077,2.7371,2.7371,2.7518,2.7793,2.7793,2.7922,2.8197,2.8197,2.8326,2.8583,2.8583,2.8583,2.8583,2.8583,2.8583,2.8583,2.8583,2.8271,2.7793,2.7793,2.7793,2.7793,2.7793,2.7793,2.7793,2.7793,2.7793,2.7848,2.8105,2.8197,2.8223,2.8509,2.8583,2.8583,2.8583,2.8583,2.8583,2.8583,2.8583,2.8619,2.8737,2.8134,2.7526,2.7697,2.7714,2.7444,2.6486,2.6962,2.7342,2.6876,2.6587,2.6247,2.579,2.5407,2.5499,2.6308,2.5729,2.5499,2.6338,2.6429,2.6779,2.7624,2.7714,2.8092,2.8945,2.8182,2.8092,2.8945,2.8182,2.8051,2.8773,2.8803,2.8729,0.0,0.0,0.0,0.0,0.0,0.0,0.0,0.0,0.0,0.0,0.0,0.0,0.0,0.0,0.0,0.0,0.0,0.0,0.0,0.0,0.0,0.0,0.0,0.0,0.0,2.4629,2.5003,2.5003,2.5352,2.5645,2.5792,2.5921,2.6288,2.6967,2.7004,2.7243,2.7775,2.7793,2.7848,2.7995,2.7995,2.8069,2.8197,2.8344,2.8546,2.8792,2.8938,2.914,2.9397,2.9397,2.9397,2.9397,2.9397,2.9397,2.9397,2.9397,2.9097,2.8583,2.8307,2.8197,2.8197,2.8197,2.8197,2.8197,2.8197,2.8197,2.8252,2.8528,2.859,2.8645,2.8931,2.9097,2.9087,2.8637,2.8938,2.9306,2.8835,2.8696,2.8696,2.8696,2.7643,2.6613,2.6613,2.6613,2.6449,2.577,2.648,2.6908,2.6103,2.5592,2.5312,2.5374,2.4625,2.4531,2.5871,2.4875,2.4374,2.5218,2.5747,2.6212,2.6582,2.7521,2.8005,2.7834,2.7423,2.7553,2.8271,2.7474,2.7624,2.8975,2.9005,2.9005,2.9005,0.0,0.0,0.0,0.0,0.0,0.0,0.0,0.0,0.0,0.0,0.0,0.0,0.0,0.0,0.0,0.0,0.0,0.0,0.0,0.0,0.0,0.0,0.0,2.5388,2.5425,2.5443,2.5443,2.5792,2.6196,2.6618,2.7004,2.7389,2.7775,2.7812,2.7812,2.783,2.783,2.8032,2.8407,2.8425,2.8627,2.9042,2.9427,2.9629,2.9629,3.0002,3.0204,3.0204,3.0204,3.0204,3.0204,3.0204,3.0204,3.0204,3.0204,3.0204,3.0112,2.9324,2.9042,2.9042,2.9042,2.9042,2.9042,2.9042,2.9042,2.9042,2.9042,2.9012,2.8982,2.9012,2.9287,2.9276,2.7912,2.8778,2.9813,2.8386,2.804,2.804,2.804,2.6917,2.5848,2.5848,2.5848,2.5848,2.5784,2.6671,2.6681,2.4401,2.498,2.58,2.596,2.5864,0.0,2.7725,2.6662,2.5816,2.5848,2.7107,2.7392,2.6024,2.8466,2.8764,2.5722,2.6751,2.7323,2.6965,2.6918,2.7521,2.8856,2.8886,2.8886,2.8856,0.0,0.0,0.0,0.0,0.0,0.0,0.0,0.0,0.0,0.0,0.0,0.0,0.0,0.0,0.0,0.0,0.0,0.0,0.0,0.0,0.0,2.5855,2.5719,2.5443,2.5902,2.6288,2.6288,2.6875,2.7334,2.7463,2.7573,2.7793,2.8187,2.8252,2.8381,2.8656,2.8674,2.8858,2.9262,2.928,2.9452,2.9855,2.9965,3.002,3.002,3.0149,3.0204,3.0204,3.0204,3.0204,3.0204,3.0204,3.0204,3.0204,3.0204,3.0204,3.0185,2.9947,2.9874,2.9874,2.9874,2.9874,2.9874,2.9874,2.9874,2.9874,2.9874,2.9192,2.8526,2.9549,2.9233,2.8418,2.8043,2.8285,2.8323,2.6901,2.6503,2.6503,2.6503,2.5495,2.4511,2.4511,2.4511,2.4293,2.3492,2.4543,2.5221,2.4162,2.3471,2.3079,2.3112,2.3112,2.321,2.362,2.3341,2.3471,2.4496,2.4948,2.5415,2.5992,2.6774,2.682,2.5834,2.5292,2.5341,2.6166,2.5093,2.4984,2.6064,2.6095,2.6095,0.0,0.0,0.0,0.0,0.0,0.0,0.0,0.0,0.0,0.0,0.0,0.0,0.0,0.0,0.0,0.0,0.0,0.0,0.0,0.0,0.0,0.0,2.649,2.6472,2.6416,2.6673,2.6903,2.7096,2.7518,2.7867,2.8032,2.805,2.8234,2.8608,2.8792,2.8993,2.9243,2.9397,2.9599,2.9819,2.9868,2.9947,3.0204,3.0534,3.0699,3.0699,3.1047,3.1212,3.1212,3.1212,3.1212,3.1212,3.1212,3.1212,3.1212,3.1212,3.1212,3.1139,0.0,0.0,0.0,0.0,3.0204,3.0111,2.9515,2.972,3.0111,2.9515,2.878,2.826,2.9061,2.8516,2.7505,2.689,2.7361,2.7736,2.6282,2.5916,2.5916,2.5916,2.4895,2.3913,2.3913,2.3913,2.3732,2.3125,2.3735,0.0,2.397,2.327,2.2964,2.3561,2.3134,2.2964,2.3561,2.3134,2.3066,2.3899,2.4377,2.4709,2.4923,2.5926,0.0,0.0,0.0,2.4529,2.5092,2.4719,0.0,0.0,0.0,2.5375,2.5375,2.4843,0.0,0.0,2.5118,2.4883,0.0,0.0,0.0,0.0,0.0,0.0,0.0,0.0,0.0,0.0,0.0,0.0,0.0,0.0,0.0,0.0,2.7261,2.7408,2.7812,2.7555,2.7463,2.783,2.7903,2.8087,2.848,2.8535,2.87,2.9115,2.9482,2.9684,2.9684,3.0002,0.0,0.0,0.0,3.0369,3.0479,3.1194,3.1543,3.1524,3.2258,3.2588,3.2588,3.2588,3.2588,3.2588,3.2588,3.2488,3.2354,3.2354,3.2253,3.1974,3.0692,3.021,3.0179,3.0022,2.9959,2.9753,2.8518,0.0,0.0,2.8487,2.7978,2.7865,2.8042,2.7507,2.6579,2.528,2.6276,2.7424,2.6044,2.5658,2.5658,2.5658,2.4699,2.3803,2.3803,2.3803,2.3803,2.3803,2.383,2.3857,2.3857,2.383,2.4216,2.5482,2.4593,2.4252,2.5482,2.4557,2.3874,2.4017,2.4889,0.0,2.3717,2.568,2.5704,2.2748,2.3736,2.4279,2.3894,2.4927,2.5494,2.5448,2.5448,2.5448,2.5448,2.4316,2.3779,2.3797,2.4372,2.4642,0.0,0.0,0.0,0.0,0.0,0.0,0.0,0.0,0.0,0.0,0.0,0.0,0.0,0.0,0.0,2.761,2.7683,2.783,2.8223,2.8205,2.8187,2.826,2.8583,2.8931,2.9335,2.9372,2.9537,2.9929,3.0039,3.0075,3.0075,3.0167,3.0497,3.1171,3.1189,3.1469,3.2129,3.2294,3.2368,3.2368,3.2514,0.0,3.2588,3.2588,3.2588,3.2588,3.2588,3.1899,3.0751,3.0751,3.0003,2.8979,2.9918,3.0284,3.0117,2.8873,2.8434,2.84,2.8128,2.8196,2.8366,2.8128,2.7243,2.6542,2.7686,2.713,0.0,2.5783,2.5976,2.5974,2.4557,2.4216,2.4216,2.4216,2.4017,2.3803,2.3803,2.3803,2.3803,2.3803,2.3955,2.4115,2.4115,2.3928,2.3874,2.4181,2.3981,2.391,2.4181,2.3981,2.4252,2.5391,2.567,2.5696,2.5431,2.5848,2.5371,2.3655,2.3531,2.3419,2.3107,2.3097,2.2968,2.2766,2.2752,2.2752,2.2752,2.2504,2.2372,2.2405,2.2511,2.2586,0.0,0.0,0.0,0.0,0.0,0.0,0.0,0.0,0.0,0.0,0.0,2.6784,2.7389,0.0,2.7628,2.805,2.8105,2.8252,2.8627,2.8865,2.8931,2.8718,2.906,2.939,2.9574,2.9794,2.9965,3.0185,3.0571,3.0791,3.0791,3.1176,3.1579,3.1983,3.1983,3.2184,3.2588,3.2808,3.2918,3.2918,3.3101,3.2818,3.2029,3.2029,3.1721,3.1147,3.1147,3.0793,3.0181,3.0181,2.977,2.9055,2.9039,2.9106,2.908,2.8289,2.8013,2.7909,2.7181,2.7424,2.7874,2.7181,2.6484,2.6029,2.6728,2.6055,2.5064,2.5064,2.514,2.5072,2.4376,2.4209,2.4209,2.4209,2.4209,2.4209,2.4209,2.4209,2.4249,2.4432,2.4543,2.469,2.4836,2.4743,2.4543,2.4249,2.4209,2.4209,2.4209,2.4209,2.4485,2.518,2.5112,2.5064,2.5064,2.4924,2.4557,2.3839,2.3634,2.3487,2.3362,2.318,2.3033,2.292,2.2907,2.2907,2.2907,2.2907,2.2907,2.2907,2.2907,2.2586,0.0,0.0,0.0,0.0,0.0,0.0,0.0,2.6215,2.6435,2.7169,2.7316,2.7444,2.7848,2.7922,2.805,2.8443,2.8572,2.8766,2.9078,2.9464,2.9611,2.925,2.9537,2.9758,2.9831,3.0216,3.0461,3.0552,3.1212,3.1616,3.1616,3.2239,3.2491,3.2295,3.2261,3.2162,3.1946,3.2322,3.2536,3.2536,3.2894,3.242,3.1233,3.1233,3.0703,2.9765,2.9472,2.946,2.9614,2.9315,2.9203,2.9091,2.783,2.7408,2.7509,2.7509,2.7509,2.7367,2.6197,2.6553,2.7332,2.6197,2.582,2.582,2.582,2.5191,2.4462,2.4462,2.4623,2.4773,2.4773,2.4773,2.4773,2.4773,2.4773,2.4773,2.4773,2.4773,2.4839,2.5117,2.5157,2.5237,2.5478,2.5518,2.532,2.4839,2.4773,2.4773,2.4773,2.4773,2.4746,2.4693,2.4516,2.4356,2.4289,2.4075,2.3977,2.3977,2.3924,2.3884,2.3884,2.383,2.3803,2.3803,2.3803,2.3803,2.3803,2.3803,2.3803,2.3803,2.3803,2.3295,2.5315,2.5333,2.5425,2.5811,2.5921,2.6123,0.0,2.7077,2.7187,2.7646,2.772,2.7848,2.8242,2.8333,2.8462,2.8876,2.9243,2.9482,2.9537,2.9874,3.0112,3.0075,3.0112,3.0259,3.0626,3.1043,3.1396,3.1781,3.2203,3.2459,3.2459,3.2551,3.2147,3.1133,3.1098,3.0593,2.9589,2.9909,3.0086,3.0102,3.04,3.043,3.0282,3.0282,3.0187,2.996,2.8619,2.8012,2.7943,2.6596,2.6001,2.6001,2.581,2.5767,2.5796,2.5796,2.5796,2.5759,2.5607,2.5645,2.5759,2.5607,2.5531,2.5531,2.5531,2.5458,2.5371,2.5371,2.5384,2.5411,2.5411,2.5411,2.5411,2.5411,2.5411,2.5411,2.5411,2.5411,2.5424,2.5464,2.5464,2.5478,2.5504,2.5518,2.5491,2.5424,2.5411,2.5411,2.5411,2.5411,2.5317,2.5064,2.4997,2.4877,2.4572,2.4519,2.4506,2.4506,2.4302,2.4155,2.4155,2.395,2.3803,2.3803,2.3803,2.3803,2.3803,2.3803,2.3803,2.3803,2.3803,2.3736,2.5708,2.5921,2.6196,2.66,2.6692,2.6839,2.7426,2.7555,2.7665,2.8069,2.816,2.8289,2.8693,2.8737,2.8865,2.9299,2.9501,2.9684,2.9941,3.0296,3.0311,2.9637,2.9784,3.023,3.1062,3.1506,3.1909,3.2313,3.189,3.1628,3.1628,3.0995,3.04,2.9916,3.0094,2.9988,2.9504,2.976,2.995,2.995,3.0071,2.9614,2.8754,2.8754,2.8385,2.7702,2.7196,2.697,2.6932,2.6285,2.6026,2.6026,2.6026,2.6026,2.5985,2.5638,2.5518,2.5518,2.5518,2.5518,2.5518,2.5518,2.5518,2.5518,2.5518,2.5518,2.5518,2.5518,2.5518,2.5518,2.5518,2.5518,2.5518,2.5518,2.5518,2.5518,2.5518,2.5518,2.5558,2.5732,2.5772,2.5825,2.5999,2.6026,2.6026,2.6026,2.5732,2.5518,2.5518,2.5518,2.5464,2.5344,2.5331,2.5277,2.5157,2.5106,2.5106,2.5106,2.5037,2.497,2.497,2.469,2.4566,2.4566,2.4369,2.4275,2.4275,2.4275,2.4275,2.4275,2.4275,2.4369,2.638,2.671,2.7004,2.7298,2.7371,2.7463,2.7867,2.7977,2.8087,2.8462,2.8553,2.8645,2.8968,2.9097,2.9112,2.9022,2.9195,2.9323,2.9185,2.9598,2.9615,2.8792,2.901,2.9614,3.0542,3.0903,3.1186,3.145,3.0822,3.0435,3.0435,2.9741,2.9129,2.8712,2.9002,2.8968,2.8562,2.8836,2.8965,2.898,2.9018,2.851,2.7406,2.7406,2.6933,2.6131,2.6346,2.6386,2.6386,2.6386,2.6386,2.6386,2.6386,2.6386,2.6333,2.5905,2.5758,2.5758,2.5758,2.5758,2.5758,2.5758,2.5758,2.5758,2.5758,2.5758,2.5758,2.5758,2.5758,2.5758,2.5758,2.5758,2.5758,2.5758,2.5758,2.5758,2.5758,2.5758,2.5812,2.6078,2.6118,2.6185,2.636,2.6386,2.6386,2.6386,2.6026,2.5758,2.5758,2.5678,2.5638,2.5638,2.5558,2.5518,2.5518,2.5518,2.5518,2.5518,2.5518,2.5518,2.5518,2.5304,2.5197,2.5197,2.4983,2.4839,2.4839,2.4839,2.4839,2.4839,2.4839,2.4997,2.7628,2.7738,2.7757,2.7775,2.7775,2.7885,2.8278,2.837,2.848,2.8913,2.8975,2.9005,2.9005,2.9317,2.9149,2.7771,2.8203,2.8233,2.6809,2.7234,2.7679,2.7661,2.7895,2.8227,2.865,2.8697,2.8713,2.8713,2.9031,2.9258,2.9258,2.952,2.8997,2.7482,2.7715,2.7136,2.5644,2.594,2.614,2.614,2.6383,2.6478,2.6439,2.6439,2.6399,2.6373,2.6386,2.6386,2.6386,2.6386,2.6386,2.6386,2.6386,2.6386,2.6386,2.6373,2.636,2.636,2.636,2.636,2.636,2.636,2.636,2.636,2.636,2.636,2.636,2.636,2.636,2.636,2.636,2.636,2.636,2.636,2.636,2.636,2.636,2.636,2.636,2.6373,2.6373,2.6373,2.6386,2.6386,2.6386,2.6386,2.6373,2.636,2.636,2.6158,2.5984,2.5984,2.5692,2.5518,2.5518,2.5518,2.5518,2.5518,2.5518,2.5518,2.5518,2.5504,2.5504,2.5504,2.5491,2.5491,2.5491,2.5491,2.5491,2.5491,2.5491,2.5491,2.7757,2.7793,2.7867,2.8142,2.8215,2.8297,2.8729,2.8792,2.8858,2.8957,2.9225,2.9409,2.9409,2.8957,2.8532,2.832,2.7696,2.7149,2.6947,2.7292,2.7314,2.6582,2.6708,2.6626,2.6025,2.756,2.8719,2.8976,2.8366,2.8017,2.8017,2.7293,2.6692,2.614,2.6443,2.6377,2.585,2.6131,2.6279,2.6279,2.6346,2.6386,2.6386,2.6386,2.6386,2.6386,2.6386,2.6386,2.6386,2.6386,2.6386,2.6386,2.6386,2.6386,2.6386,2.6386,2.6386,2.6386,2.6386,2.6386,2.6386,2.6386,2.6386,2.6386,2.6386,2.6386,2.6386,2.6386,2.6386,2.6386,2.6386,2.6386,2.6386,2.6386,2.6386,2.6386,2.6386,2.6386,2.6386,2.6386,2.6386,2.6386,2.6386,2.6386,2.6386,2.6386,2.6386,2.6386,2.6386,2.6306,2.6279,2.6279,2.6146,2.6092,2.6092,2.6092,2.6092,2.6092,2.6092,2.6092,2.6092,2.5944,2.585,2.585,2.5611,2.5518,2.5518,2.5518,2.5518,2.5518,2.5518,2.5625,2.8197,2.8234,2.8289,2.8535,2.8608,2.8663,2.895,2.9005,2.9005,2.9005,2.8926,2.8862,2.8862,2.8123,2.7452,2.7214,2.6572,2.6026,2.5783,2.61,2.6125,2.5392,2.5547,2.538,2.4646,2.6271,2.7446,2.7728,2.701,2.6625,2.6701,2.6077,2.5678,2.5678,2.5998,2.6145,2.6145,2.6293,2.6386,2.6386,2.6386,2.6386,2.6386,2.6386,2.6386,2.6386,2.6386,2.6386,2.6386,2.6386,2.6386,2.6386,2.6386,2.6386,2.6386,2.6386,2.6386,2.6386,2.6386,2.6386,2.6386,2.6386,2.6386,2.6386,2.6386,2.6386,2.6386,2.6386,2.6386,2.6386,2.6386,2.6386,2.6386,2.6386,2.6386,2.6386,2.6386,2.6386,2.6386,2.6386,2.6386,2.6386,2.6386,2.6386,2.6386,2.6386,2.6386,2.6386,2.6386,2.6386,2.6386,2.6386,2.6386,2.6386,2.6386,2.6386,2.6386,2.6386,2.6386,2.6386,2.6386,2.6252,2.6145,2.6145,2.5919,2.5825,2.5825,2.5825,2.5825,2.5825,2.5825,2.5932,2.8913,2.9005,2.9005,2.9005,2.9005,2.9005,2.9005,2.9005,2.8993,2.8922,2.8187,2.7497,2.7452,2.6887,2.599,2.4654,2.4897,2.4821,2.3488,2.3821,2.4182,2.4209,2.4426,2.4613,2.4626,2.4917,2.5128,2.5117,2.5168,2.5251,2.5518,2.585,2.6011,2.6011,2.6279,2.6386,2.6386,2.6386,2.6386,2.6386,2.6386,2.6386,2.6386,2.6386,2.6386,2.6386,2.6386,2.6386,2.6386,2.6386,2.6386,2.6386,2.6386,2.6386,2.6386,2.6386,2.6386,2.6386,2.6386,2.6386,2.6386,2.6386,2.6386,2.6386,2.6386,2.6386,2.6386,2.6386,2.6386,2.6386,2.6386,2.6386,2.6386,2.6386,2.6386,2.6386,2.6386,2.6386,2.6386,2.6386,2.6386,2.6386,2.6386,2.6386,2.6386,2.6386,2.6386,2.6386,2.6386,2.6386,2.6386,2.6386,2.6386,2.6386,2.6386,2.6386,2.6386,2.6386,2.6386,2.6386,2.6386,2.6386,2.6386,2.6386,2.6386,2.6386,2.6386,2.6386,2.6386,2.6386,2.6386,2.6386,2.8957,2.9005,2.9005,2.9005,2.9005,2.9005,2.9005,2.9005,2.8798,2.804,2.7927,2.7689,2.6905,2.5986,2.5245,2.4924,2.4122,2.3495,2.3322,2.3647,2.3968,2.4182,2.4426,2.4693,2.4943,2.5037,2.5302,2.5743,2.577,2.581,2.5877,2.6119,2.6319,2.6319,2.6346,2.6386,2.6386,2.6386,2.6386,2.6386,2.6386,2.6386,2.6386,2.6386,2.6386,2.6386,2.6386,2.6386,2.6386,2.6386,2.6386,2.6386,2.6386,2.6386,2.6386,2.6386,2.6386,2.6386,2.6386,2.6386,2.6386,2.6386,2.6386,2.6386,2.6386,2.6386,2.6386,2.6386,2.6386,2.6386,2.6386,2.6386,2.6386,2.6386,2.6386,2.6386,2.6386,2.6386,2.6386,2.6386,2.6386,2.6386,2.6386,2.6386,2.6386,2.6386,2.6386,2.6386,2.6386,2.6386,2.6386,2.6386,2.6386,2.6386,2.6386,2.6386,2.6386,2.6386,2.6386,2.6386,2.6386,2.6386,2.6386,2.6386,2.6386,2.6386,2.6386,2.6386,2.6386,2.6386,2.6386,2.6386,2.9005,2.9005,2.9005,2.9005,2.9005,2.8856,2.8271,2.8122,2.7815,2.6636,2.6353,2.6136,2.5516,2.4701,2.4074,2.4074,2.3625,2.3362,2.35,2.3888,2.4209,2.4369,2.4506,2.4719,2.5088,2.5197,2.5464,2.5957,2.5998,2.6051,2.6185,2.6346,2.6386,2.6386,2.6386,2.6386,2.6386,2.6386,2.6386,2.6386,2.6386,2.6386,2.6386,2.6386,2.6386,2.6386,2.6386,2.6386,2.6386,2.6386,2.6386,2.6386,2.6386,2.6386,2.6386,2.6386,2.6386,2.6386,2.6386,2.6386,2.6386,2.6386,2.6386,2.6386,2.6386,2.6386,2.6386,2.6386,2.6386,2.6386,2.6386,2.6386,2.6386,2.6386,2.6386,2.6386,2.6386,2.6386,2.6386,2.6386,2.6386,2.6386,2.6386,2.6386,2.6386,2.6386,2.6386,2.6386,2.6386,2.6386,2.6386,2.6386,2.6386,2.6386,2.6386,2.6386,2.6386,2.6386,2.6386,2.6386,2.6386,2.6386,2.6386,2.6386,2.6386,2.6386,2.6386,2.6386,2.6386,2.6386,2.6386,2.6386,2.9005,2.9005,2.9005,2.9005,2.9005,2.8648,2.7323,2.6991,2.6567,2.5103,2.4364,2.3956,2.3789,2.3292,2.2893,2.2893,2.3375,2.3763,2.3803,2.4235,2.4559,2.4599,2.4639,2.4773,2.5104,2.5398,2.5692,2.6038,2.6051,2.6158,2.6373,2.6386,2.6386,2.6386,2.6386,2.6386,2.6386,2.6386,2.6386,2.6386,2.6386,2.6386,2.6386,2.6386,2.6386,2.6386,2.6386,2.6386,2.6386,2.6386,2.6386,2.6386,2.6386,2.6386,2.6386,2.6386,2.6386,2.6386,2.6386,2.6386,2.6386,2.6386,2.6386,2.6386,2.6386,2.6386,2.6386,2.6386,2.6386,2.6386,2.6386,2.6386,2.6386,2.6386,2.6386,2.6386,2.6386,2.6386,2.6386,2.6386,2.6386,2.6386,2.6386,2.6386,2.6386,2.6386,2.6386,2.6386,2.6386,2.6386,2.6386,2.6386,2.6386,2.6386,2.6386,2.6386,2.6386,2.6386,2.6386,2.6386,2.6386,2.6386,2.6386,2.6386,2.6386,2.6386,2.6386,2.6386,2.6386,2.6386,2.6386,2.6386,2.9005,2.9005,2.9005,2.9005,2.9005,2.8648,2.7323,2.6991,2.6391,2.4232,2.3875,2.372,2.2832,2.2802,2.2893,2.2893,2.3166,2.3487,2.3777,2.4062,2.4369,2.4572,2.485,2.5117,2.5411,2.5705,2.6038,2.6293,2.6319,2.6333,2.6386,2.6386,2.6386,2.6386,2.6386,2.6386,2.6386,2.6386,2.6386,2.6386,2.6386,2.6386,2.6386,2.6386,2.6386,2.6386,2.6386,2.6386,2.6386,2.6386,2.6386,2.6386,2.6386,2.6386,2.6386,2.6386,2.6386,2.6386,2.6386,2.6386,2.6386,2.6386,2.6386,2.6386,2.6386,2.6386,2.6386,2.6386,2.6386,2.6386,2.6386,2.6386,2.6386,2.6386,2.6386,2.6386,2.6386,2.6386,2.6386,2.6386,2.6386,2.6386,2.6386,2.6386,2.6386,2.6386,2.6386,2.6386,2.6386,2.6386,2.6386,2.6386,2.6386,2.6386,2.6386,2.6386,2.6386,2.6386,2.6386,2.6386,2.6386,2.6386,2.6386,2.6386,2.6386,2.6386,2.6386,2.6386,2.6386,2.6386,2.6386,2.6386,2.9005,2.9005,2.9005,2.9005,2.8498,2.7594,2.6247,2.5454,2.444,2.262,2.2534,2.2628,2.227,2.2432,2.2719,2.2867,2.3247,2.3607,2.379,2.4155,2.4439,2.4586,2.4903,2.5197,2.5478,2.5785,2.6118,2.6373,2.6386,2.6386,2.6386,2.6386,2.6386,2.6386,2.6386,2.6386,2.6386,2.6386,2.6386,2.6386,2.6386,2.6386,2.6386,2.6386,2.6386,2.6386,2.6386,2.6386,2.6386,2.6386,2.6386,2.6386,2.6386,2.6386,2.6386,2.6386,2.6386,2.6386,2.6386,2.6386,2.6386,2.6386,2.6386,2.6386,2.6386,2.6386,2.6386,2.6386,2.6386,2.6386,2.6386,2.6386,2.6386,2.6386,2.6386,2.6386,2.6386,2.6386,2.6386,2.6386,2.6386,2.6386,2.6386,2.6386,2.6386,2.6386,2.6386,2.6386,2.6386,2.6386,2.6386,2.6386,2.6386,2.6386,2.6386,2.6386,2.6386,2.6386,2.6386,2.6386,2.6386,2.6386,2.6386,2.6386,2.6386,2.6386,2.6386,2.6386,2.6386,2.6386,2.6386,2.6386,2.9005,2.9005,2.8916,2.8648,2.7792,2.6581,2.4963,2.3822,2.2702,2.1393,2.1381,2.1676,2.197,2.2218,2.2512,2.2853,2.3415,2.3803,2.3803,2.4275,2.4599,2.4599,2.4957,2.5264,2.5491,2.5877,2.6185,2.6373,2.6386,2.6386,2.6386,2.6386,2.6386,2.6386,2.6386,2.6386,2.6386,2.6386,2.6386,2.6386,2.6386,2.6386,2.6386,2.6386,2.6386,2.6386,2.6386,2.6386,2.6386,2.6386,2.6386,2.6386,2.6386,2.6386,2.6386,2.6386,2.6386,2.6386,2.6386,2.6386,2.6386,2.6386,2.6386,2.6386,2.6386,2.6386,2.6386,2.6386,2.6386,2.6386,2.6386,2.6386,2.6386,2.6386,2.6386,2.6386,2.6386,2.6386,2.6386,2.6386,2.6386,2.6386,2.6386,2.6386,2.6386,2.6386,2.6386,2.6386,2.6386,2.6386,2.6386,2.6386,2.6386,2.6386,2.6386,2.6386,2.6386,2.6386,2.6386,2.6386,2.6386,2.6386,2.6386,2.6386,2.6386,2.6386,2.6386,2.6386,2.6386,2.6386,2.6386,2.6386,2.9005,2.9005,2.8707,2.7474,2.7082,2.6338,2.3838,2.317,2.2702,2.1393,2.1381,2.1676,2.197,2.2218,2.2512,2.2853,2.3415,2.3803,2.3803,2.4275,2.4599,2.4599,2.5093,2.5478,2.5504,2.6026,2.636,2.6386,2.6386,2.6386,2.6386,2.6386,2.6386,2.6386,2.6386,2.6386,2.6386,2.6386,2.6386,2.6386,2.6386,2.6386,2.6386,2.6386,2.6386,2.6386,2.6386,2.6386,2.6386,2.6386,2.6386,2.6386,2.6386,2.6386,2.6386,2.6386,2.6386,2.6386,2.6386,2.6386,2.6386,2.6386,2.6386,2.6386,2.6386,2.6386,2.6386,2.6386,2.6386,2.6386,2.6386,2.6386,2.6386,2.6386,2.6386,2.6386,2.6386,2.6386,2.6386,2.6386,2.6386,2.6386,2.6386,2.6386,2.6386,2.6386,2.6386,2.6386,2.6386,2.6386,2.6386,2.6386,2.6386,2.6386,2.6386,2.6386,2.6386,2.6386,2.6386,2.6386,2.6386,2.6386,2.6386,2.6386,2.6386,2.6386,2.6386,2.6386,2.6386,2.6386,2.6386,2.6386,2.7822,2.7203,2.6459,2.5942,2.5224,2.4363,2.3356,2.2497,2.1758,2.1204,2.1203,2.143,2.1897,2.2084,2.2311,2.2813,2.3415,2.3803,2.3803,2.4275,2.4599,2.4599,2.5119,2.5518,2.5518,2.6052,2.6386,2.6386,2.6386,2.6386,2.6386,2.6386,2.6386,2.6386,2.6386,2.6386,2.6386,2.6386,2.6386,2.6386,2.6386,2.6386,2.6386,2.6386,2.6386,2.6386,2.6386,2.6386,2.6386,2.6386,2.6386,2.6386,2.6386,2.6386,2.6386,2.6386,2.6386,2.6386,2.6386,2.6386,2.6386,2.6386,2.6386,2.6386,2.6386,2.6386,2.6386,2.6386,2.6386,2.6386,2.6386,2.6386,2.6386,2.6386,2.6386,2.6386,2.6386,2.6386,2.6386,2.6386,2.6386,2.6386,2.6386,2.6386,2.6386,2.6386,2.6386,2.6386,2.6386,2.6386,2.6386,2.6386,2.6386,2.6386,2.6386,2.6386,2.6386,2.6386,2.6386,2.6386,2.6386,2.6386,2.6386,2.6386,2.6386,2.6386,2.6386,2.6386,2.6386,2.6386,2.6386,2.6386,2.7112,2.6308,2.5423,2.4625,2.376,2.3014,2.2591,2.179,2.1109,2.1109,2.1109,2.1283,2.1871,2.1991,2.2211,2.28,2.3415,2.3803,2.3803,2.4275,2.4639,2.4756,2.5173,2.5545,2.5638,2.6092,2.6386,2.6386,2.6386,2.6386,2.6386,2.6386,2.6386,2.6386,2.6386,2.6386,2.6386,2.6386,2.6386,2.6386,2.6386,2.6386,2.6386,2.6386,2.6386,2.6386,2.6386,2.6386,2.6386,2.6386,2.6386,2.6386,2.6386,2.6386,2.6386,2.6386,2.6386,2.6386,2.6386,2.6386,2.6386,2.6386,2.6386,2.6386,2.6386,2.6386,2.6386,2.6386,2.6386,2.6386,2.6386,2.6386,2.6386,2.6386,2.6386,2.6386,2.6386,2.6386,2.6386,2.6386,2.6386,2.6386,2.6386,2.6386,2.6386,2.6386,2.6386,2.6386,2.6386,2.6386,2.6386,2.6386,2.6386,2.6386,2.6386,2.6386,2.6386,2.6386,2.6386,2.6386,2.6386,2.6386,2.6386,2.6386,2.6386,2.6386,2.6386,2.6386,2.6386,2.6386,2.6386,2.6386,2.7353,2.6991,2.6368,2.3791,2.3107,2.2733,2.1411,2.1109,2.1109,2.1109,2.1109,2.1283,2.1871,2.1991,2.2211,2.28,2.3415,2.3803,2.3803,2.4275,2.4706,2.5074,2.5331,2.5625,2.5957,2.6252,2.6386,2.6386,2.6386,2.6386,2.6386,2.6386,2.6386,2.6386,2.6386,2.6386,2.6386,2.6386,2.6386,2.6386,2.6386,2.6386,2.6386,2.6386,2.6386,2.6386,2.6386,2.6386,2.6386,2.6386,2.6386,2.6386,2.6386,2.6386,2.6386,2.6386,2.6386,2.6386,2.6386,2.6386,2.6386,2.6386,2.6386,2.6386,2.6386,2.6386,2.6386,2.6386,2.6386,2.6386,2.6386,2.6386,2.6386,2.6386,2.6386,2.6386,2.6386,2.6386,2.6386,2.6386,2.6386,2.6386,2.6386,2.6386,2.6386,2.6386,2.6386,2.6386,2.6386,2.6386,2.6386,2.6386,2.6386,2.6386,2.6386,2.6386,2.6386,2.6386,2.6386,2.6386,2.6386,2.6386,2.6386,2.6386,2.6386,2.6386,2.6386,2.6386,2.6386,2.6386,2.6386,2.6386,2.4456,2.3667,2.2779,2.1933,2.1727,2.1632,2.1204,2.1109,2.1109,2.1109,2.1109,2.1283,2.1871,2.1991,2.2211,2.28,2.3415,2.3803,2.3803,2.4275,2.4706,2.5037,2.5556,2.5971,2.6265,2.6333,2.6386,2.6386,2.6386,2.6386,2.6386,2.6386,2.6386,2.6386,2.6386,2.6386,2.6386,2.6386,2.6386,2.6386,2.6386,2.6386,2.6386,2.6386,2.6386,2.6386,2.6386,2.6386,2.6386,2.6386,2.6386,2.6386,2.6386,2.6386,2.6386,2.6386,2.6386,2.6386,2.6386,2.6386,2.6386,2.6386,2.6386,2.6386,2.6386,2.6386,2.6386,2.6386,2.6386,2.6386,2.6386,2.6386,2.6386,2.6386,2.6386,2.6386,2.6386,2.6386,2.6386,2.6386,2.6386,2.6386,2.6386,2.6386,2.6386,2.6386,2.6386,2.6386,2.6386,2.6386,2.6386,2.6386,2.6386,2.6386,2.6386,2.6386,2.6386,2.6386,2.6386,2.6386,2.6386,2.6386,2.6386,2.6386,2.6386,2.6386,2.6386,2.6386,2.6386,2.6386,2.6386,2.6386,2.2952,2.2483,2.1727,2.1235,2.1109,2.1109,2.1109,2.1109,2.1109,2.1109,2.1109,2.1283,2.1871,2.1991,2.2211,2.28,2.3415,2.3803,2.3803,2.4275,2.4746,2.5197,2.5758,2.6225,2.6373,2.6386,2.6386,2.6386,2.6386,2.6386,2.6386,2.6386,2.6386,2.6386,2.6386,2.6386,2.6386,2.6386,2.6386,2.6386,2.6386,2.6386,2.6386,2.6386,2.6386,2.6386,2.6386,2.6386,0.0,2.6386,2.6386,2.6386,2.6386,2.6386,2.6386,2.6386,2.6386,2.6386,2.6386,2.6386,2.6386,2.6386,2.6386,2.6386,2.6386,2.6386,2.6386,2.6386,2.6386,2.6386,2.6386,2.6386,2.6386,2.6386,2.6386,2.6386,2.6386,2.6386,2.6386,2.6386,2.6386,2.6386,2.6386,2.6386,2.6386,2.6386,2.6386,2.6386,2.6386,2.6386,2.6386,2.6386,2.6386,2.6386,2.6386,2.6386,2.6386,2.6386,2.6386,2.6386,2.6386,2.6386,2.6386,2.6386,2.6386,2.6386,2.6386,2.6386,2.6386,2.6386,2.6386,2.6386,0.0,2.2952,2.264,2.1411,2.1109,2.1109,2.1109,2.1109,0.0,2.1109,2.1109,2.1283,2.1871,2.1991,2.2211,2.28,2.3415,2.3803,2.3803,2.4302,2.4866,2.5451,2.6026,2.6386,2.6386,2.6386,2.6386,2.6386,2.6386,2.6386,2.6386,2.6386,2.6386,2.6386,2.6386,2.6386,2.6386,2.6386,2.6386,2.6386,2.6386,2.6386,2.6386,2.6386,2.6386,2.6386,2.6386,2.6386,2.6386,2.6386,2.6386,2.6386,2.6386,2.6386,2.6386,2.6386,2.6386,2.6386,2.6386,2.6386,2.6386,2.6386,2.6386,2.6386,2.6386,2.6386,2.6386,2.6386,2.6386,2.6386,2.6386,2.6386,2.6386,2.6386,2.6386,2.6386,2.6386,2.6386,2.6386,2.6386,2.6386,2.6386,2.6386,2.6386,2.6386,2.6386,2.6386,2.6386,2.6386,2.6386,2.6386,2.6386,2.6386,2.6386,2.6386,2.6386,2.6386,2.6386,2.6386,2.6386,2.6386,2.6386,2.6386,2.6386,2.6386,2.6386,2.6386,2.6386,2.6386,2.6386,2.6386,2.6386,2.1689,0.0,2.1475,2.1172,2.1109,2.1109,0.0,2.1109,2.1109,2.1109,2.1109,2.1283,2.1871,2.1991,2.2211,2.28,2.3415,2.3803,2.3803,2.4663,2.5358,2.5491,2.6026,2.6386,2.6386,2.6386,2.6386,2.6386,2.6386,2.6386,2.6386,2.6386,2.6386,2.6386,2.6386,2.6386,2.6386,2.6386,2.6386,2.6386,2.6386,2.6386,2.6386,2.6386,2.6386,2.6386,2.6386,2.6386,2.6386,2.6386,2.6386,2.6386,2.6386,2.6386,2.6386,2.6386,2.6386,2.6386,2.6386,2.6386,2.6386,2.6386,2.6386,2.6386,2.6386,2.6386,2.6386,2.6386,2.6386,2.6386,2.6386,2.6386,2.6386,2.6386,2.6386,2.6386,2.6386,2.6386,2.6386,2.6386,2.6386,2.6386,2.6386,2.6386,2.6386,2.6386,2.6386,2.6386,2.6386,2.6386,2.6386,2.6386,2.6386,2.6386,2.6386,2.6386,2.6386,2.6386,2.6386,2.6386,2.6386,2.6386,2.6386,2.6386,2.6386,2.6386,2.6386,2.6386,2.6386,2.6386,2.6386,2.6386,2.1218,2.1109,2.1109,2.1109,2.1109,2.1109,2.1109,2.1109,2.1109,2.1109,2.1216,2.1489,2.193,2.2098,2.2378,2.2979,2.3509,2.3897,2.4128,2.4943,2.5518,2.5518,2.6026,2.6386,2.6386,2.6386,2.6386,2.6386,2.6386,2.6386,2.6386,2.6386,2.6386,2.6386,2.6386,2.6386,2.6386,2.6386,2.6386,2.6386,2.6386,2.6386,2.6386,2.6386,2.6386,2.6386,2.6386,2.6386,2.6386,2.6386,2.6386,2.6386,2.6386,2.6386,2.6386,2.6386,2.6386,2.6386,2.6386,2.6386,2.6386,2.6386,2.6386,2.6386,2.6386,2.6386,2.6386,2.6386,2.6386,2.6386,2.6386,2.6386,2.6386,2.6386,2.6386,2.6386,2.6386,2.6386,2.6386,2.6386,2.6386,2.6386,2.6386,2.6386,2.644,2.6573,2.6587,2.664,2.6774,2.6787,2.6787,2.6787,2.6787,2.6787,2.6787,2.6667,2.6533,2.64,2.6386,2.6386,2.6386,2.6386,2.6386,2.6386,2.6386,2.6386,2.6386,2.6386,2.6386,2.6386,2.6386,2.6386,2.1029,2.1109,2.1109,2.1109,2.1109,2.1109,2.1109,2.1109,2.1109,2.1109,2.1381,2.1676,2.197,2.2218,2.2585,2.3198,2.3621,2.4022,2.4519,2.5106,2.5518,2.5518,2.6026,2.6386,2.6386,2.6386,2.6386,2.6386,2.6386,2.6386,2.6386,2.6386,2.6386,2.6386,2.6386,2.6386,2.6386,2.6386,2.6386,2.6386,2.6386,2.6386,2.6386,2.6386,2.6386,2.6386,2.6386,2.6386,2.6386,2.6386,2.6386,2.6386,2.6386,2.6386,2.6386,2.6386,2.6386,2.6386,2.6386,2.6386,2.6386,2.6386,2.6386,2.6386,2.6386,2.6386,2.6386,2.6386,2.6386,2.6386,2.6386,2.6386,2.6386,2.6386,2.6386,2.6386,2.6386,2.6386,2.6386,2.6386,2.6386,2.64,2.6453,2.6453,2.656,2.6841,2.6894,2.6987,2.7269,2.7309,2.7309,2.7309,2.7309,2.7309,2.7309,2.7041,2.6787,2.6533,2.644,2.6386,2.6386,2.6386,2.6386,2.6386,2.6386,2.6386,2.6386,2.6386,2.6386,2.6386,2.6386,2.6386,2.1029,2.1109,2.1109,2.1109,2.1109,2.1109,2.1109,2.1109,2.1109,2.1109,2.1381,2.1676,2.197,2.2218,2.2585,2.3198,2.3781,2.4249,2.4559,2.5106,2.5518,2.5518,2.6026,2.6386,2.6386,2.6386,2.6386,2.6386,2.6386,2.6386,2.6386,2.6386,2.6386,2.6386,2.6386,2.6386,2.6386,2.6386,2.6386,2.6386,2.6386,2.6386,2.6386,2.6386,2.6386,2.6386,2.6386,2.6386,2.6386,2.6386,2.6386,2.6386,2.6386,2.6386,2.6386,2.6386,2.6386,2.6386,2.6386,2.6386,2.6386,2.6386,2.6386,2.6386,2.6386,2.6386,2.6386,2.6386,2.6386,2.6386,2.6386,2.6386,2.6386,2.6386,2.6386,2.6386,2.6386,2.6386,2.6386,2.6386,2.6386,2.6466,2.6707,2.676,2.6854,2.7148,2.7242,2.7255,2.7296,2.7309,2.7309,2.7309,2.7309,2.7309,2.7309,2.7269,2.7215,2.7175,2.6667,2.6386,2.6386,2.6386,2.6386,2.6386,2.6386,2.6386,2.6386,2.6386,2.6386,2.6386,2.6386,2.6386,2.1029,2.1109,2.1109,2.1109,2.1109,2.1109,2.1109,2.1109,2.1149,2.1309,2.1609,2.1903,2.2164,2.2592,2.3065,2.3701,2.4155,2.4452,2.4586,2.5106,2.5518,2.5518,2.6026,2.6386,2.6386,2.6386,2.6386,2.6386,2.6386,2.6386,2.6386,2.6386,2.6386,2.6386,2.6386,2.6386,2.6386,2.6386,2.6386,2.6386,2.6386,2.6386,2.6386,2.6386,2.6386,2.6386,2.6386,2.6386,2.6386,2.6386,2.6386,2.6386,2.6386,2.6386,2.6386,2.6386,2.6386,2.6386,2.6386,2.6386,2.6386,2.6386,2.6386,2.6386,2.6386,2.6386,2.6386,2.6386,2.6386,2.6386,2.6386,2.6386,2.6386,2.6386,2.6386,2.6386,2.6386,2.6386,2.6386,2.6386,2.652,2.6667,2.676,2.6961,2.7161,2.7455,2.7495,2.7603,2.7764,2.7777,2.7777,2.7777,2.7777,2.7777,2.7777,2.763,2.7362,2.7041,2.6774,2.6547,2.64,2.6386,2.6386,2.6386,2.6386,2.6386,2.6386,2.6386,2.6386,2.6386,2.6386,2.6386,2.1042,2.1109,2.1109,2.1109,2.1109,2.1109,2.1109,2.1162,2.1256,2.1448,2.1823,2.2138,2.2285,2.2892,2.3607,2.4115,2.4412,2.4626,2.4693,2.5184,2.5545,2.5611,2.6079,2.6386,2.6386,2.6386,2.6386,2.6386,2.6386,2.6386,2.6386,2.6386,2.6386,2.6386,2.6386,2.6386,2.6386,2.6386,2.6386,2.6386,2.6386,2.6386,2.6386,2.6386,2.6386,2.6386,2.6386,2.6386,2.6386,2.6386,2.6386,2.6386,2.6386,2.6386,2.6386,2.6386,2.6386,2.6386,2.6386,2.6386,2.6386,2.6386,2.6386,2.6386,2.6386,2.6386,2.6386,2.6386,2.6386,2.6386,2.6386,2.6386,2.6386,2.6386,2.6386,2.6386,2.6386,2.6386,2.6413,2.648,2.6667,2.6827,2.7001,2.7215,2.751,2.7762,2.7802,2.7924,2.8152,2.8179,2.8179,2.8179,2.8179,2.8179,2.8179,2.7978,2.7575,2.7054,2.6894,2.672,2.6507,2.6426,2.6386,2.6386,2.6386,2.6386,2.6386,2.6386,2.6386,2.6386,2.6386,2.6386,2.1096,2.1109,2.1109,2.1109,2.1109,2.1109,2.1109,2.1355,2.1475,2.1189,2.1804,2.2311,2.2058,2.3,2.3848,2.4155,2.4412,2.4693,2.501,2.5317,2.5611,2.5931,2.6238,2.6386,2.6386,2.6386,2.6386,2.6386,2.6386,2.6386,2.6386,2.6386,2.6386,2.6386,2.6386,2.6386,2.6386,2.6386,2.6386,2.6386,2.6386,2.6386,2.6386,2.6386,2.6386,2.6386,2.6386,2.6386,2.6386,2.6386,2.6386,2.6386,2.6386,2.6386,2.6386,2.6386,2.6386,2.6386,2.6386,2.6386,2.6386,2.6386,2.6386,2.6386,2.6386,2.6386,2.6386,2.6386,2.6386,2.6386,2.6386,2.6386,2.6386,2.6386,2.6386,2.6386,2.6386,2.6386,2.6466,2.6734,2.6814,2.6987,2.7535,2.7655,2.7762,2.8112,2.8152,2.8165,2.8179,2.8179,2.8179,2.8179,2.8179,2.8179,2.8179,2.8165,2.8018,2.7655,2.7121,2.6774,2.6747,2.6533,2.6386,2.6386,2.6386,2.6386,2.6386,2.6386,2.6386,2.6386,2.6386,2.6386,2.1109,2.1109,2.1109,2.1109,2.1109,2.1109,2.1109,2.1203,2.1349,2.1603,2.1924,2.2338,2.3014,2.3496,2.3928,2.4396,2.4532,2.4706,2.5037,2.5331,2.5625,2.5957,2.6252,2.6386,2.6386,2.6386,2.6386,2.6386,2.6386,2.6386,2.6386,2.6386,2.6386,2.6386,2.6386,2.6386,2.6386,2.6386,2.6386,2.6386,2.6386,2.6386,2.6386,2.6386,2.6386,2.6386,2.6386,2.6386,2.6386,2.6386,2.6386,2.6386,2.6386,2.6386,2.6386,2.6386,2.6386,2.6386,2.6386,2.6386,2.6386,2.6386,2.6386,2.6386,2.6386,2.6386,2.6386,2.6386,2.6386,2.6386,2.6386,2.6386,2.6386,2.6386,2.6386,2.6386,2.6386,2.6386,2.648,2.676,2.6974,2.7228,2.7629,2.7856,2.8058,2.8165,2.8179,2.8179,2.8179,2.8179,2.8179,2.8179,2.8179,2.8179,2.8179,2.8179,2.8138,2.8031,2.7589,2.7281,2.7108,2.6814,2.6653,2.6653,2.648,2.6386,2.6386,2.6386,2.6386,2.6386,2.6386,2.6386,2.1109,2.1109,2.1109,2.1109,2.1109,2.1109,2.1109,2.1189,2.139,2.1884,2.2171,2.2612,2.3616,2.3884,2.4062,2.4519,2.4599,2.4733,2.5157,2.5384,2.5651,2.6091,2.6305,2.6386,2.6386,2.6386,2.6386,2.6386,2.6386,2.6386,2.6386,2.6386,2.6386,2.6386,2.6386,2.6386,2.6386,2.6386,2.6386,2.6386,2.6386,2.6386,2.6386,2.6386,2.6386,2.6386,2.6386,2.6386,2.6386,2.6386,2.6386,2.6386,2.6386,2.6386,2.6386,2.6386,2.6386,2.6386,2.6386,2.6386,2.6386,2.6386,2.6386,2.6386,2.6386,2.6386,2.6386,2.6386,2.6386,2.6386,2.6386,2.6386,2.6386,2.6386,2.6386,2.6386,2.6386,2.6386,2.6507,2.6881,2.7121,2.7429,2.7776,2.8045,2.8179,2.8179,2.8179,2.8179,2.8179,2.8179,2.8179,2.8179,2.8179,2.8179,2.8179,2.8179,2.8179,2.8179,2.7991,2.775,2.7456,2.7121,2.6921,2.6787,2.6627,2.648,2.6386,2.6386,2.6386,2.6386,2.6386,2.6386,2.1109,2.1109,2.1109,2.1109,2.1109,2.1109,2.1109,2.1368,2.1662,2.1957,2.2492,2.3081,2.3696,2.4008,2.4302,2.4559,2.4599,2.4799,2.5424,2.5518,2.5732,2.6319,2.6386,2.6386,2.6386,2.6386,2.6386,2.6386,2.6386,2.6386,2.6386,2.6386,2.6386,2.6386,2.6386,2.6386,2.6386,2.6386,2.6386,2.6386,2.6386,2.6386,2.6386,2.6386,2.6386,2.6386,2.6386,2.6386,2.6386,2.6386,2.6386,2.6386,2.6386,2.6386,2.6386,2.6386,2.6386,2.6386,2.6386,2.6386,2.6386,2.6386,2.6386,2.6386,2.6386,2.6386,2.6386,2.6386,2.6386,2.6386,2.6386,2.6386,2.6386,2.6386,2.6386,2.6386,2.6386,2.6386,2.656,2.7188,2.7309,2.7496,2.8085,2.8179,2.8179,2.8179,2.8179,2.8179,2.8179,2.8179,2.8179,2.8179,2.8179,2.8179,2.8179,2.8179,2.8179,2.8179,2.8179,2.8045,2.7709,2.7469,2.7134,2.6841,2.6787,2.668,2.6386,2.6386,2.6386,2.6386,2.6386,2.6386,2.1109,2.1109,2.1109,2.1109,2.1109,2.1162,2.1408,2.1529,2.1729,2.2191,2.2766,2.3313,2.3736,2.4008,2.4302,2.4559,2.4599,2.4799,2.5424,2.5518,2.5732,2.6319,2.6386,2.6386,2.6386,2.6386,2.6386,2.6386,2.6386,2.6386,2.6386,2.6386,2.6386,2.6386,2.6386,2.6386,2.6386,2.6386,2.6386,2.6386,2.6386,2.6386,2.6386,2.6386,2.6386,2.6386,2.6386,2.6386,2.6386,2.6386,2.6386,2.6386,2.6386,2.6386,2.6386,2.6386,2.6386,2.6386,2.6386,2.6386,2.6386,2.6386,2.6386,2.6386,2.6386,2.6386,2.6386,2.6386,2.6386,2.6386,2.6386,2.6386,2.6386,2.6386,2.6386,2.6386,2.6386,2.6386,2.656,2.7188,2.7309,2.7496,2.8085,2.8179,2.8179,2.8179,2.8179,2.8179,2.8179,2.8179,2.8179,2.8179,2.8179,2.8179,2.8179,2.8179,2.8179,2.8179,2.8179,2.8138,2.8058,2.7764,2.7522,2.7442,2.7028,2.6774,2.6694,2.6493,2.6386,2.6386,2.6386,2.6386,2.1109,2.1109,2.1109,2.1109,2.1109,2.1216,2.1662,2.185,2.2064,2.2498,2.3073,2.3594,2.3888,2.4182,2.4399,2.4572,2.4599,2.4799,2.5424,2.5518,2.5732,2.6319,2.6386,2.6386,2.6386,2.6386,2.6386,2.6386,2.6386,2.6386,2.6386,2.6386,2.6386,2.6386,2.6386,2.6386,2.6386,2.6386,2.6386,2.6386,2.6386,2.6386,2.6386,2.6386,2.6386,2.6386,2.6386,2.6386,2.6386,2.6386,2.6386,2.6386,2.6386,2.6386,2.6386,2.6386,2.6386,2.6386,2.6386,2.6386,2.6386,2.6386,2.6386,2.6386,2.6386,2.6386,2.6386,2.6386,2.6386,2.6386,2.6386,2.6386,2.6386,2.6386,2.6386,2.6386,2.6386,2.6386,2.656,2.7188,2.7309,2.7496,2.8085,2.8179,2.8179,2.8179,2.8179,2.8179,2.8179,2.8179,2.8179,2.8179,2.8179,2.8179,2.8179,2.8179,2.8179,2.8179,2.8179,2.8179,2.8179,2.8005,2.7816,2.7696,2.7348,2.7054,2.6787,2.664,2.6507,2.6386,2.6386,2.6386,2.1109,2.1109,2.1109,2.1109,2.1109,2.1269,2.1844,2.2191,2.2472,2.2867,2.3402,2.3897,2.4155,2.4399,2.4599,2.4599,2.4599,2.4799,2.5424,2.5518,2.5732,2.6319,2.6386,2.6386,2.6386,2.6386,2.6386,2.6386,2.6386,2.6386,2.6386,2.6386,2.6386,2.6386,2.6386,2.6386,2.6386,2.6386,2.6386,2.6386,2.6386,2.6386,2.6386,2.6386,2.6386,2.6386,2.6386,2.6386,2.6386,2.6386,2.6386,2.6386,2.6386,2.6386,2.6386,2.6386,2.6386,2.6386,2.6386,2.6386,2.6386,2.6386,2.6386,2.6386,2.6386,2.6386,2.6386,2.6386,2.6386,2.6386,2.6386,2.6386,2.6386,2.6386,2.6386,2.6386,2.6386,2.6386,2.656,2.7162,2.7282,2.7483,2.8045,2.8165,2.8179,2.8179,2.8179,2.8179,2.8179,2.8179,2.8179,2.8179,2.8179,2.8179,2.8179,2.8179,2.8179,2.8179,2.8179,2.8179,2.8179,2.8179,2.8058,2.7749,2.7709,2.7442,2.6867,2.6854,2.668,2.6426,2.64,2.6386,2.1109,2.1109,2.1109,2.1109,2.1109,2.1269,2.1844,2.2031,2.2298,2.3073,2.3514,2.3897,2.4155,2.4399,2.4599,2.4599,2.4599,2.4799,2.5424,2.5518,2.5732,2.6319,2.6386,2.6386,2.6386,2.6386,2.6386,2.6386,2.6386,2.6386,2.6386,2.6386,2.6386,2.6386,2.6386,2.6386,2.6386,2.6386,2.6386,2.6386,2.6386,2.6386,2.6386,2.6386,2.6386,2.6386,2.6386,2.6386,2.6386,2.6386,2.6386,2.6386,2.6386,2.6386,2.6386,2.6386,2.6386,2.6386,2.6386,2.6386,2.6386,2.6386,2.6386,2.6386,2.6386,2.6386,2.6386,2.6386,2.6386,2.6386,2.6386,2.6386,2.6386,2.6386,2.6386,2.6386,2.6386,2.6386,2.6493,2.6854,2.7108,2.7416,2.7736,2.8031,2.8179,2.8179,2.8179,2.8179,2.8179,2.8179,2.8179,2.8179,2.8179,2.8179,2.8179,2.8179,2.8179,2.8179,2.8179,2.8179,2.8179,2.8179,2.8152,2.8085,2.7816,2.7642,2.7509,2.7054,2.6787,2.672,2.6493,2.6386,2.1109,2.1109,2.1109,2.1109,2.1109,2.1269,2.1844,2.1991,2.2285,2.3327,2.3661,2.3937,2.4329,2.4492,2.4599,2.4599,2.4599,2.4799,2.5424,2.5518,2.5732,2.6319,2.6386,2.6386,2.6386,2.6386,2.6386,2.6386,2.6386,2.6386,2.6386,2.6386,2.6386,2.6386,2.6386,2.6386,2.6386,2.6386,2.6386,2.6386,2.6386,2.6386,2.6386,2.6386,2.6386,2.6386,2.6386,2.6386,2.6386,2.6386,2.6386,2.6386,2.6386,2.6386,2.6386,2.6386,2.6386,2.6386,2.6386,2.6386,2.6386,2.6386,2.6386,2.6386,2.6386,2.6386,2.6386,2.6386,2.6386,2.6386,2.6386,2.6386,2.6386,2.6386,2.6386,2.6386,2.6386,2.6386,2.648,2.676,2.7068,2.7403,2.7642,2.7991,2.8179,2.8179,2.8179,2.8179,2.8179,2.8179,2.8179,2.8179,2.8179,2.8179,2.8179,2.8179,2.8179,2.8179,2.8179,2.8179,2.8179,2.8179,2.8179,2.8179,2.8031,2.7843,2.7696,2.7388,2.7094,2.6814,2.6667,2.6082,2.1109,2.1109,2.1109,2.1109,2.1109,2.1269,2.1844,2.1991,2.2325,2.3562,2.3803,2.3941,2.4492,2.4599,2.4599,2.4599,2.4599,2.4799,2.5424,2.5518,2.5732,2.6319,2.6386,2.6386,2.6386,2.6386,2.6386,2.6386,2.6386,2.6386,2.6386,2.6386,2.6386,2.6386,2.6386,2.6386,2.6386,2.6386,2.6386,2.6386,2.6386,2.6386,2.6386,2.6386,2.6386,2.6386,2.6386,2.6386,2.6386,2.6386,2.6386,2.6386,2.6386,2.6386,2.6386,2.6386,2.6386,2.6386,2.6386,2.6386,2.6386,2.6386,2.6386,2.6386,2.6386,2.6386,2.6386,2.6386,2.6386,2.6386,2.6386,2.6386,2.6386,2.6386,2.6386,2.6386,2.6386,2.6386,2.6466,2.6694,2.7028,2.7416,2.7709,2.8018,2.8179,2.8179,2.8179,2.8179,2.8179,2.8179,2.8179,2.8179,2.8179,2.8179,2.8179,2.8179,2.8179,2.8179,2.8179,2.8179,2.8179,2.8179,2.8179,2.8179,2.8179,2.8058,2.7776,2.7722,2.7455,2.6934,2.6545,2.5477,2.1109,2.1109,2.1109,2.1109,2.1109,2.1269,2.1844,2.1991,2.2325,2.3562,2.3803,2.3941,2.4492,2.4599,2.4599,2.4599,2.4599,2.4799,2.5424,2.5518,2.5732,2.6319,2.6386,2.6386,2.6386,2.6386,2.6386,2.6386,2.6386,2.6386,2.6386,2.6386,2.6386,2.6386,2.6386,2.6386,2.6386,2.6386,2.6386,2.6386,2.6386,2.6386,2.6386,2.6386,2.6386,2.6386,2.6386,2.6386,2.6386,2.6386,2.6386,2.6386,2.6386,2.6386,2.6386,2.6386,2.6386,2.6386,2.6386,2.6386,2.6386,2.6386,2.6386,2.6386,2.6386,2.6386,2.6386,2.6386,2.6386,2.6386,2.6386,2.6386,2.6386,2.6386,2.6386,2.6386,2.6386,2.6386,2.64,2.644,2.6934,2.7483,2.8031,2.8165,2.8179,2.8179,2.8179,2.8179,2.8179,2.8179,2.8179,2.8179,2.8179,2.8179,2.8179,2.8179,2.8179,2.8179,2.8179,2.8179,2.8179,2.8179,2.8179,2.8179,2.8179,2.8165,2.8125,2.7829,2.7655,2.7534,2.5495,2.4393,2.1109,2.1109,2.1109,2.1109,2.1109,2.1269,2.1844,2.1991,2.2325,2.3562,2.3803,2.3941,2.4492,2.4466,2.4412,2.4572,2.4599,2.4799,2.5424,2.5518,2.5732,2.6319,2.6386,2.6386,2.6386,2.6386,2.6386,2.6386,2.6386,2.6386,2.6386,2.6386,2.6386,2.6386,2.6386,2.6386,2.6386,2.6386,2.6386,2.6386,2.6386,2.6386,2.6386,2.6386,2.6386,2.6386,2.6386,2.6386,2.6386,2.6386,2.6386,2.6386,2.6386,2.6386,2.6386,2.6386,2.6386,2.6386,2.6386,2.6386,2.6386,2.6386,2.6386,2.6386,2.6386,2.6386,2.6386,2.6386,2.6386,2.6386,2.6386,2.6386,2.6386,2.6386,2.6386,2.6386,2.6386,2.6386,2.644,2.66,2.6974,2.7443,2.7857,2.8072,2.8179,2.8179,2.8179,2.8179,2.8179,2.8179,2.8179,2.8179,2.8179,2.8179,2.8179,2.8179,2.8179,2.8179,2.8179,2.8179,2.8179,2.8179,2.8179,2.8179,2.8179,2.8179,2.8179,2.698,2.6323,2.6117,2.3939,2.2325,2.1109,2.1109,2.1109,2.1109,2.1109,2.1243,2.1796,2.197,2.2331,2.342,2.3661,2.3834,2.4386,2.4372,2.4382,2.4559,2.4599,2.4773,2.5331,2.5464,2.5705,2.6213,2.6346,2.6386,2.6386,2.6386,2.6386,2.6386,2.6386,2.6386,2.6386,2.6386,2.6386,2.6386,2.6386,2.6386,2.6386,2.6386,2.6386,2.6386,2.6386,2.6386,2.6386,2.6386,2.6386,2.6386,2.6386,2.6386,2.6386,2.6386,2.6386,2.6386,2.6386,2.6386,2.6386,2.6386,2.6386,2.6386,2.6386,2.6386,2.6386,2.6386,2.6386,2.6386,2.6386,2.6386,2.6386,2.6386,2.6386,2.6386,2.6386,2.607,2.5872,2.6307,2.607,2.5872,2.6307,2.607,2.5831,2.6077,2.6025,2.602,2.63,2.658,2.6758,2.6758,2.6758,2.6927,2.7448,2.749,2.7659,2.8136,2.8179,2.8179,2.8179,2.8179,2.8179,2.8179,2.8179,2.801,2.749,2.749,2.7279,2.68,2.7236,2.7714,2.8179,2.6333,2.5319,2.5041,2.2505,2.048,2.1109,2.1109,2.1109,2.1109,2.1109,2.1189,2.1542,2.1823,2.2245,2.3132,2.3319,2.3492,2.4115,2.4436,2.4586,2.4599,2.4599,2.4706,2.5064,2.5344,2.5625,2.5984,2.6265,2.6386,2.6386,2.6386,2.6386,2.6386,2.6386,2.6386,2.6386,2.6386,2.6386,2.6386,2.6386,2.6386,2.6386,2.6386,2.6386,2.6386,2.6386,2.6386,2.6386,2.6386,2.6386,2.6386,2.6386,2.6386,2.6386,2.6386,2.6386,2.6386,2.6386,2.6386,2.6386,2.6386,2.6386,2.6386,2.6386,2.6386,2.6386,2.6386,2.6386,2.6386,2.6386,2.6386,2.6386,2.6386,2.6386,2.6386,2.6386,2.5184,2.4335,2.603,2.5144,2.4375,2.603,2.5104,2.4009,2.4276,2.3175,2.2301,2.2625,2.2813,2.288,2.288,2.288,2.3524,2.5331,2.5556,2.6236,2.801,2.8179,2.8179,2.8179,2.8179,2.8179,2.8179,2.8179,2.7405,2.5641,2.5556,2.4691,2.2923,2.4648,2.6418,2.8179,2.6333,2.5373,2.5306,2.1479,1.9566,2.1109,2.1109,2.1109,2.1109,2.1109,2.1189,2.1515,2.1662,2.1997,2.2846,2.3193,2.3465,2.4088,2.4289,2.4356,2.4356,2.4479,2.4706,2.5037,2.517,2.5411,2.5931,2.6091,2.6225,2.6373,2.6386,2.6386,2.6386,2.6386,2.6386,2.6386,2.6386,2.6386,2.6386,2.6386,2.6386,2.6386,2.6386,2.6386,2.6386,2.6386,2.6386,2.6386,2.6386,2.6386,2.6386,2.6386,2.6386,2.6386,2.6386,2.6386,2.6386,2.6386,2.6386,2.6386,2.6386,2.6386,2.6386,2.6386,2.6386,2.6386,2.6386,2.6386,2.6386,2.6386,2.6386,2.6386,2.6386,2.6386,2.6386,2.6386,2.5951,2.5343,2.4866,2.3404,2.2309,2.2912,2.255,2.2171,2.2261,2.2075,2.1965,2.2051,2.2374,2.2579,2.2579,2.2579,2.2837,2.3524,2.3609,2.3867,2.452,2.5683,2.6406,2.6406,2.6406,2.6406,2.6406,2.5245,2.4294,2.3609,2.3609,2.3309,2.2622,2.3266,2.3909,2.4605,2.3909,2.3009,2.1803,1.9072,1.7751,2.1109,2.1109,2.1109,2.1109,2.1109,2.1162,2.1395,2.1515,2.1783,2.2465,2.2979,2.3412,2.3834,2.4155,2.4342,2.4342,2.4422,2.4559,2.489,2.5024,2.5262,2.565,2.5784,2.5957,2.6252,2.6279,2.6279,2.6386,2.6386,2.6386,2.6386,2.6386,2.6386,2.6386,2.6386,2.6386,2.6386,2.6386,2.6386,2.6386,2.6386,2.6386,2.6386,2.6386,2.6386,2.6386,2.6386,2.6386,2.6386,2.6386,2.6386,2.6386,2.6386,2.6386,2.6386,2.6386,2.6386,2.6386,2.6386,2.6386,2.6386,2.6386,2.6386,2.6386,2.6386,2.6386,2.6386,2.6386,2.6386,2.6386,2.6386,2.599,2.5104,2.3324,2.1585,2.0322,2.0322,2.0322,2.0322,2.0322,2.0208,2.0133,2.0133,2.0446,2.0732,2.0732,2.0732,2.0992,2.1587,2.1673,2.1932,2.2536,2.3695,2.4477,2.4477,2.4477,2.4477,2.4477,2.3309,2.232,2.1717,2.1673,2.1414,2.0775,2.1381,2.1381,2.0775,2.1381,2.1078,1.9873,1.7853,1.6833,0.0,0.0,0.0,2.1109,2.1109,2.1109,2.1109,2.1368,2.1649,2.1943,2.2672,2.3265,2.3292,2.3986,2.4572,2.4599,2.4359,2.4302,2.4546,2.4877,2.5064,2.5115,2.5331,2.5611,2.5957,2.5984,2.6105,2.636,2.6373,2.6373,2.6386,2.6386,2.6386,2.6386,2.6386,2.6386,2.6386,2.6386,2.6386,2.6386,2.6386,2.6386,2.6386,2.6386,2.6386,2.6386,2.6386,2.6386,2.6386,2.6386,2.6386,2.6386,2.6386,2.6386,2.6386,2.6386,2.6386,2.6386,2.6386,2.6386,2.6386,2.6386,2.6386,2.6386,2.6386,2.6386,2.6386,2.6386,2.6386,2.6386,2.6386,2.5065,2.3284,2.1585,1.9836,1.8504,1.8504,1.8504,1.8504,1.8504,1.7486,1.6584,1.6584,1.6877,1.7112,1.7112,1.7112,1.7762,1.9569,1.983,2.0472,2.2234,2.2492,2.2536,2.2536,2.2536,2.2536,2.2536,2.2449,2.163,1.9873,1.983,1.8968,1.7156,1.8881,1.8925,1.7112,1.8968,1.9873,1.9786,1.7928,1.6925,2.1109,0.0,0.0,0.0,0.0,0.0,2.1109,2.1176,2.1309,2.1649,2.2077,2.2552,2.3172,2.3492,2.3865,2.4492,2.4359,2.4235,2.4315,2.4396,2.4609,2.5061,2.5157,2.5317,2.5611,2.5638,2.5758,2.6091,2.6118,2.6212,2.6373,2.6386,2.6386,2.6386,2.6386,2.6386,2.6386,2.6386,2.6386,2.6386,2.6386,2.6386,2.6386,2.6386,2.6386,2.6386,2.6386,2.6386,2.6386,2.6386,2.6386,2.6386,2.6386,2.6386,2.6386,2.6386,2.6386,2.6386,2.6386,2.6386,2.6386,2.6386,2.6386,2.6386,2.6386,2.6386,2.6386,2.6386,2.6386,2.6386,2.6386,2.4163,2.1786,2.1303,1.8911,1.6731,1.6731,1.6731,1.6731,1.6731,1.6668,1.6584,1.6584,1.6877,1.7112,1.7112,1.7112,1.7288,1.7805,1.7885,1.806,1.8575,1.983,2.0645,2.0645,2.0645,2.0645,2.0645,1.9351,1.8401,1.7885,1.7885,1.763,1.7112,1.763,1.763,1.7112,1.8968,1.9186,1.7841,1.7323,1.699,0.0,0.0,2.1109,2.1109,0.0,0.0,2.1109,2.1109,2.1162,2.1368,2.1729,2.2151,2.2672,2.318,2.3634,2.3986,2.4155,2.4209,2.4209,2.4209,2.4329,2.4676,2.4823,2.501,2.5304,2.5331,2.5451,2.5784,2.5772,2.5944,2.6238,2.6319,2.6386,2.6386,2.6386,2.6386,2.6386,2.6386,2.6386,2.6386,2.6386,2.6386,2.6386,2.6386,2.6386,2.6386,2.6386,2.6386,2.6386,2.6386,2.6386,2.6386,2.6386,2.6386,2.6386,2.6386,2.6386,2.6386,2.6386,2.6386,2.6386,2.6386,2.6386,2.6386,2.6386,2.5911,2.5303,2.5303,2.4773,2.4243,2.4243,2.2189,2.012,2.012,1.8023,1.6007,1.6007,1.6007,1.6007,1.6007,1.6276,1.6487,1.661,1.6812,1.6979,1.7096,1.7112,1.7112,1.7112,1.7112,1.7112,1.7112,1.806,1.875,1.875,1.875,1.875,1.875,1.7718,1.7112,1.7112,1.7112,1.7112,1.7112,1.7112,1.7112,1.7112,1.8191,1.8191,1.7112,1.7112,1.6971,0.0,0.0,0.0,0.0,2.1109,0.0,2.1109,2.1109,2.1109,2.1109,2.1523,2.1911,2.1977,2.2893,2.3514,2.3319,2.3768,2.4128,2.4195,2.4168,2.4168,2.4195,2.4399,2.4653,2.4957,2.5048,2.5157,2.5438,2.5491,2.5638,2.5984,2.6238,2.636,2.6386,2.6386,2.6386,2.6386,2.6386,2.6386,2.6386,2.6386,2.6386,2.6386,2.6386,2.6386,2.6386,2.6386,2.6386,2.6386,2.6386,2.6386,2.6386,2.6386,2.6386,2.6386,2.6386,2.6386,2.6386,2.6386,2.6386,2.6386,2.6386,2.6268,2.6109,2.6109,2.4893,2.3496,2.3496,2.239,2.1222,2.1222,1.9917,1.8585,1.8585,1.7255,1.6007,1.6007,1.6007,1.6007,1.6007,1.6145,1.6365,1.6594,1.6687,1.6866,1.7088,1.7112,1.7112,1.7112,1.7112,1.7112,1.7112,1.7112,1.7112,1.7112,1.7112,1.7112,1.7112,1.7112,1.7112,1.7112,1.7112,1.7112,1.7112,1.7112,1.7112,1.7112,1.7112,1.7112,1.7112,1.7112,1.6987,0.0,0.0,0.0,0.0,0.0,0.0,2.1109,2.1109,2.1109,2.1109,2.1203,2.1416,2.1897,2.2178,2.2552,2.3185,2.3385,2.3661,2.4142,2.3995,2.3977,2.4168,2.4249,2.4315,2.4369,2.4583,2.485,2.5144,2.5384,2.5638,2.5984,2.6051,2.6185,2.6386,2.6386,2.6386,2.6386,2.6386,2.6386,2.6386,2.6386,2.6386,2.6386,2.6386,2.6386,2.6386,2.6386,2.6386,2.6386,2.6386,2.6386,2.6386,2.6386,2.6386,2.6386,2.6386,2.6386,2.6386,2.6386,2.6386,2.6386,2.6386,2.5462,2.4295,2.4295,2.3084,2.1706,2.1706,2.1464,2.1222,2.1222,1.9917,1.8585,1.8585,1.7255,1.6007,1.6007,1.6007,1.6007,1.6007,1.6145,1.6365,1.6594,1.6687,1.6866,1.7088,1.7112,1.7112,1.7112,1.7112,1.7112,1.7112,1.7112,1.7112,1.7112,1.7112,1.7112,1.7112,1.7112,1.7112,1.7112,1.7112,1.7112,1.7112,1.7112,1.7112,1.7112,1.7112,1.7112,1.7112,1.7112,1.7096,0.0,0.0,0.0,2.1109,0.0,0.0,0.0,2.1109,2.1109,2.1109,2.1109,2.1203,2.1496,2.179,2.2138,2.2579,2.2899,2.3193,2.3487,2.3794,2.4035,2.4182,2.4209,2.4209,2.4209,2.4329,2.4543,2.4836,2.513,2.5358,2.5543,2.569,2.5904,2.6198,2.6212,2.6239,2.6386,2.6386,2.6386,2.6386,2.6386,2.6386,2.6386,2.6386,2.6386,2.6386,2.6386,2.6386,2.6386,2.6386,2.6386,2.6386,2.6386,2.6386,2.6386,2.6386,2.6386,2.6386,2.6386,2.5832,2.5104,2.5104,2.3924,2.251,2.251,2.1303,1.9714,1.8839,1.8595,1.8595,1.8595,1.7942,1.7296,1.7296,1.6648,1.6007,1.6007,1.6007,1.6007,1.6007,1.6072,1.6259,1.6535,1.6657,1.6803,1.7071,1.7112,1.7112,1.7112,1.7112,1.7112,1.7112,1.7112,1.7112,1.7112,1.7112,1.7112,1.7112,1.7112,1.7112,1.7112,1.7112,1.7112,1.7112,1.7112,1.7112,1.7112,1.7112,1.7112,1.7112,1.7112,1.7112,0.0,0.0,0.0,0.0,0.0,2.1109,0.0,0.0,0.0,2.1109,2.1109,2.1109,2.1109,2.1496,2.183,2.193,2.2385,2.2746,2.28,2.3447,2.3968,2.4022,2.4128,2.4182,2.4128,2.4168,2.4302,2.4492,2.4823,2.5024,2.5115,2.5304,2.5571,2.5904,2.5971,2.6105,2.6306,2.636,2.6386,2.6386,2.6386,2.6386,2.6386,2.6386,2.6386,2.6386,2.6386,2.6386,2.6386,2.6386,2.6386,2.6386,2.6386,2.6386,2.6386,2.6386,2.6188,2.5898,2.5898,2.4773,2.3284,2.3284,2.2108,2.0646,2.0292,1.9237,1.7819,1.641,1.6007,1.6007,1.6007,1.6007,1.6007,1.6007,1.6007,1.6007,1.6007,1.6007,1.6007,1.6007,1.6007,1.612,1.6519,1.6584,1.6698,1.7055,1.7112,1.7112,1.7112,1.7112,1.7112,1.7112,1.7112,1.7112,1.7112,1.7112,1.7112,1.7112,1.7112,1.7112,1.7112,1.7112,1.7112,1.7112,1.7112,1.7112,1.7112,1.7112,1.7112,1.7112,1.7112,1.7112,0.0,0.0,0.0,0.0,2.1109,0.0,0.0,0.0,2.1109,2.1109,0.0,2.1109,2.1109,0.0,0.0,2.1596,2.1903,2.2178,2.2432,2.2779,2.3148,2.3359,2.3888,2.4102,2.3884,2.4048,2.4222,2.4249,2.4479,2.4796,2.5064,2.5117,2.5264,2.5558,2.5864,2.6011,2.6051,2.6305,2.6386,2.6386,2.6386,2.6386,2.6386,2.6386,2.6386,2.6386,2.6386,2.6386,2.6386,2.6386,2.6386,2.6386,2.6386,2.6386,2.6386,2.6386,2.5422,2.4096,2.4096,2.2963,2.1504,2.1504,2.0322,1.8626,1.7059,1.6451,1.6246,1.6048,1.6007,1.6007,1.6007,1.6007,1.6007,1.6007,1.6007,1.6007,1.6007,1.6007,1.6007,1.6007,1.6007,1.612,1.6519,1.6584,1.6698,1.7055,1.7112,1.7112,1.7112,1.7112,1.7112,1.7112,1.7112,1.7112,1.7112,1.7112,1.7112,1.7112,1.7112,1.7112,1.7112,1.7112,1.7112,1.7112,1.7112,1.7112,1.7112,1.7112,1.7112,1.7112,1.7112,1.7112,0.0,0.0,0.0,0.0,0.0,0.0,2.1109,0.0,2.1109,0.0,0.0,0.0,0.0,0.0,0.0,0.0,2.1403,2.1523,2.1643,2.2058,2.2559,2.3006,2.3434,2.3714,2.3803,2.3888,2.4022,2.4195,2.4315,2.4516,2.481,2.4823,2.4957,2.5251,2.5384,2.565,2.5998,2.6118,2.6265,2.6386,2.6386,2.6386,2.6386,2.6386,2.6386,2.6386,2.6386,2.6386,2.6386,2.6386,2.6386,2.6307,2.5303,2.4893,2.4893,2.4893,2.3804,2.2269,2.2269,2.1141,1.9521,1.8513,1.7705,1.6936,1.6205,1.6007,1.6007,1.6007,1.6007,1.6007,1.6007,1.6007,1.6007,1.6007,1.6007,1.6007,1.6007,1.6007,1.6007,1.6007,1.6007,1.608,1.6373,1.6511,1.6665,1.6882,1.7047,1.7112,1.7112,1.7112,1.7112,1.7112,1.7112,1.7112,1.7112,1.7112,1.7112,1.7112,1.7112,1.7112,1.7112,1.7112,1.7112,1.7112,1.7112,1.7112,1.7112,1.6963,1.6914,1.6914,1.6914,1.6858,2.1109,0.0,0.0,0.0,0.0,0.0,0.0,0.0,0.0,0.0,2.1109,0.0,0.0,0.0,0.0,0.0,0.0,2.1109,2.1109,2.1483,2.1964,2.2586,2.2966,2.3313,2.3621,2.3647,2.3768,2.4062,2.4088,2.4209,2.4466,2.4479,2.4649,2.4957,2.5037,2.5329,2.5757,2.5917,2.6105,2.6266,2.6346,2.6386,2.6386,2.6386,2.6386,2.6386,2.6386,2.6386,2.6386,2.6386,2.6109,2.5541,2.4295,2.3204,2.243,2.2923,2.1988,2.0484,2.0484,1.9359,1.7696,1.641,1.6007,1.6007,1.6007,1.6007,1.6007,1.6007,1.6007,1.6007,1.6007,1.6007,1.6007,1.6007,1.6007,1.6007,1.6007,1.6007,1.6007,1.6007,1.6007,1.6047,1.6211,1.6381,1.6584,1.6777,1.6914,1.7055,1.7104,1.7112,1.7112,1.7112,1.7112,1.7112,1.7112,1.7112,1.7112,1.7112,1.7112,1.7112,1.7112,1.7112,1.7112,1.7112,1.7063,1.7039,1.7039,1.6817,1.6712,1.6663,1.6712,1.6706,0.0,0.0,0.0,2.1109,0.0,0.0,0.0,0.0,2.1109,0.0,0.0,0.0,0.0,0.0,0.0,0.0,0.0,0.0,0.0,2.1122,2.1349,2.1951,2.2559,2.3027,2.3278,2.3305,2.346,2.3803,2.3817,2.395,2.4209,2.4222,2.4356,2.4599,2.493,2.5128,2.5141,2.5717,2.5998,2.6011,2.6292,2.6386,2.6386,2.6386,2.6386,2.6386,2.6386,2.6386,2.6386,2.6386,2.5422,2.3896,2.3816,2.1746,1.8993,2.0656,2.016,1.8667,1.8667,1.7542,1.6089,1.6007,1.6007,1.6007,1.6007,1.6007,1.6007,1.6007,1.6007,1.6007,1.6007,1.6007,1.6007,1.6007,1.6007,1.6007,1.6007,1.6007,1.6007,1.6007,1.6007,1.6007,1.6015,1.6194,1.6438,1.6752,1.6817,1.6882,1.7088,1.7112,1.7112,1.7112,1.7112,1.7112,1.7112,1.7112,1.7112,1.7112,1.7112,1.7112,1.7112,1.7112,1.7112,1.7112,1.6906,1.6817,1.6817,1.6682,1.6495,1.6324,1.6503,1.6584,2.1109,2.1109,2.1109,2.1109,0.0,0.0,0.0,0.0,0.0,0.0,0.0,0.0,0.0,0.0,0.0,0.0,0.0,0.0,0.0,2.1109,2.1189,2.1376,2.1924,2.2505,2.3,2.3207,2.3332,2.3474,2.3661,2.3937,2.4195,2.4209,2.4342,2.4586,2.4693,2.4877,2.5115,2.5464,2.5758,2.5998,2.6253,2.6386,2.6386,2.6386,2.6386,2.6386,2.6386,2.6386,2.6386,2.6386,2.5382,2.3696,2.251,2.0646,1.8667,1.9267,1.8391,1.6895,1.6895,1.6492,1.6007,1.6007,1.6007,1.6007,1.6007,1.6007,1.6007,1.6007,1.6007,1.6007,1.6007,1.6007,1.6007,1.6007,1.6007,1.6007,1.6007,1.6007,1.6007,1.6007,1.6007,1.6007,1.6007,1.6056,1.6209,1.6617,1.6736,1.6874,1.7088,1.7112,1.7112,1.7112,1.7112,1.7112,1.7112,1.7112,1.7112,1.7112,1.7112,1.7112,1.7112,1.7112,1.7055,1.6898,1.6841,1.6752,1.6674,1.6487,1.6365,1.63,1.6209,1.6185,2.1109,2.1109,2.1109,2.1109,2.1109,2.1109,2.1109,0.0,2.1109,0.0,0.0,0.0,0.0,0.0,0.0,0.0,0.0,0.0,0.0,2.1109,2.1109,2.1109,2.1537,2.2091,2.2679,2.2886,2.3105,2.346,2.3496,2.3656,2.4022,2.4048,2.4182,2.4439,2.4546,2.4693,2.4917,2.5211,2.5504,2.5837,2.6131,2.6332,2.6386,2.6386,2.6386,2.6386,2.6386,2.6386,2.6347,2.574,2.4455,2.2723,2.098,1.9196,1.7696,1.7696,1.6968,1.6007,1.6007,1.6007,1.6007,1.6007,1.6007,1.6007,1.6007,1.6007,1.6007,1.6007,1.6007,1.6007,1.6007,1.6007,1.6007,1.6007,1.6007,1.6007,1.6007,1.6007,1.6007,1.6007,1.6007,1.6007,1.6007,1.6007,1.6104,1.6438,1.6584,1.6704,1.6947,1.6971,1.7039,1.7104,1.7112,1.7112,1.7112,1.7112,1.7112,1.7112,1.7112,1.7112,1.7112,1.7011,1.6955,1.6898,1.6712,1.659,1.6584,1.6332,1.6211,1.6211,1.6056,1.6007]},{"header":{"parameterUnit":"m.s-1","parameterCategory":1,"la1":30.6,"la2":29.2853,"lo1":-89.7004,"lo2":-87.6739,"dy":0.0162,"dx":0.0183,"nx":112,"ny":82,"refTime":"2023-09-24T06:00:00:Z","depth":0,"parameterNumber":3,"parameterNumberName":"V-component_of_WINDS"},"data":[0.0,0.0,0.0,0.0,0.0,0.0,0.0,0.0,0.0,0.0,0.0,0.0,0.0,0.0,0.0,0.0,0.0,0.0,0.0,0.0,0.0,0.0,0.0,0.0,0.0,0.0,0.0,0.0,0.0,0.0,0.0,0.0,0.0,0.0,0.0,0.0,0.0,0.0,0.0,0.0,0.0,0.0,0.0,0.0,0.0,0.0,0.0,0.0,0.0,0.0,0.0,0.0,0.0,0.0,0.0,0.0,0.0,0.0,0.0,0.0,0.0,0.0,0.0,0.0,0.0,0.0,0.0,0.0,0.0,0.0,0.0,0.0,0.0,0.0,0.0,0.0,0.0,0.0,0.0,0.0,0.0,0.0,0.0,0.0,0.0,0.0,0.0,0.0,0.0,0.0,4.1136,4.124,4.1814,4.2482,4.3138,4.3207,4.3207,4.3207,0.0,0.0,0.0,0.0,0.0,0.0,0.0,0.0,0.0,0.0,0.0,0.0,0.0,0.0,0.0,0.0,0.0,0.0,0.0,0.0,0.0,0.0,0.0,0.0,0.0,0.0,0.0,0.0,0.0,0.0,0.0,0.0,0.0,0.0,0.0,0.0,0.0,0.0,0.0,0.0,0.0,0.0,0.0,0.0,0.0,0.0,0.0,0.0,0.0,0.0,0.0,0.0,0.0,0.0,0.0,0.0,0.0,0.0,0.0,0.0,0.0,0.0,0.0,0.0,0.0,0.0,0.0,0.0,0.0,0.0,0.0,0.0,0.0,0.0,0.0,0.0,0.0,0.0,0.0,0.0,0.0,0.0,0.0,0.0,0.0,0.0,0.0,0.0,0.0,0.0,0.0,0.0,0.0,0.0,0.0,0.0,0.0,0.0,0.0,0.0,0.0,0.0,0.0,0.0,4.209,4.2792,4.293,4.3069,4.3172,4.3207,4.3207,4.3207,0.0,0.0,0.0,0.0,0.0,0.0,0.0,0.0,0.0,0.0,0.0,0.0,0.0,0.0,0.0,0.0,0.0,0.0,0.0,0.0,0.0,0.0,0.0,0.0,0.0,0.0,0.0,0.0,0.0,0.0,0.0,0.0,0.0,0.0,0.0,0.0,0.0,0.0,0.0,0.0,0.0,0.0,0.0,0.0,0.0,0.0,0.0,0.0,0.0,0.0,0.0,0.0,0.0,0.0,0.0,0.0,0.0,0.0,0.0,0.0,0.0,0.0,0.0,0.0,0.0,0.0,0.0,0.0,0.0,0.0,0.0,0.0,0.0,0.0,0.0,0.0,0.0,0.0,0.0,0.0,0.0,0.0,0.0,0.0,0.0,0.0,0.0,0.0,0.0,0.0,0.0,0.0,0.0,0.0,0.0,0.0,0.0,0.0,0.0,0.0,0.0,0.0,0.0,4.2654,4.293,4.3724,4.3793,4.3953,4.4354,4.4389,4.4389,4.4389,4.4389,0.0,0.0,0.0,0.0,0.0,0.0,0.0,0.0,0.0,0.0,0.0,0.0,0.0,0.0,0.0,0.0,0.0,0.0,0.0,0.0,0.0,0.0,0.0,0.0,0.0,0.0,0.0,0.0,0.0,0.0,0.0,0.0,0.0,0.0,0.0,0.0,0.0,0.0,0.0,0.0,0.0,0.0,0.0,0.0,0.0,0.0,0.0,0.0,0.0,0.0,0.0,0.0,0.0,0.0,0.0,0.0,0.0,0.0,0.0,0.0,0.0,0.0,0.0,0.0,0.0,0.0,0.0,0.0,0.0,0.0,0.0,0.0,0.0,0.0,0.0,0.0,0.0,0.0,0.0,0.0,0.0,0.0,0.0,0.0,0.0,0.0,0.0,0.0,0.0,0.0,0.0,0.0,0.0,0.0,0.0,0.0,0.0,0.0,0.0,0.0,0.0,0.0,4.3621,4.3919,4.4505,4.4574,4.4803,4.5363,4.5397,4.5397,4.5397,4.5397,0.0,0.0,0.0,0.0,0.0,0.0,0.0,0.0,0.0,0.0,0.0,0.0,0.0,0.0,0.0,0.0,0.0,0.0,0.0,0.0,0.0,0.0,0.0,0.0,0.0,0.0,0.0,0.0,0.0,0.0,0.0,0.0,0.0,0.0,0.0,0.0,0.0,0.0,0.0,0.0,0.0,0.0,0.0,0.0,0.0,0.0,0.0,0.0,0.0,0.0,0.0,0.0,0.0,0.0,0.0,0.0,0.0,0.0,0.0,0.0,0.0,0.0,0.0,0.0,0.0,0.0,0.0,0.0,0.0,0.0,0.0,0.0,0.0,0.0,0.0,0.0,0.0,0.0,0.0,0.0,0.0,0.0,0.0,0.0,0.0,0.0,0.0,0.0,0.0,0.0,0.0,0.0,0.0,0.0,0.0,0.0,0.0,0.0,0.0,0.0,0.0,0.0,4.4837,4.5259,4.5328,4.5328,4.5328,4.5397,4.5397,4.5397,4.5397,4.5397,0.0,0.0,0.0,0.0,0.0,0.0,0.0,0.0,0.0,0.0,0.0,0.0,0.0,0.0,0.0,0.0,0.0,0.0,0.0,0.0,0.0,0.0,0.0,0.0,0.0,0.0,0.0,0.0,0.0,0.0,0.0,0.0,0.0,0.0,0.0,0.0,0.0,0.0,0.0,0.0,0.0,0.0,0.0,0.0,0.0,0.0,0.0,0.0,0.0,0.0,0.0,0.0,0.0,0.0,0.0,0.0,0.0,0.0,0.0,0.0,0.0,0.0,0.0,0.0,0.0,0.0,0.0,0.0,0.0,0.0,0.0,0.0,0.0,0.0,0.0,0.0,0.0,0.0,0.0,0.0,0.0,0.0,0.0,0.0,0.0,0.0,0.0,0.0,0.0,0.0,0.0,0.0,0.0,0.0,0.0,0.0,0.0,0.0,0.0,0.0,0.0,0.0,4.5238,4.5397,0.0,4.5397,4.5397,4.5397,4.5397,4.5397,4.5397,0.0,0.0,0.0,0.0,0.0,0.0,0.0,0.0,0.0,0.0,0.0,0.0,0.0,0.0,0.0,0.0,0.0,0.0,0.0,0.0,0.0,0.0,0.0,0.0,0.0,0.0,0.0,0.0,0.0,0.0,0.0,0.0,0.0,0.0,0.0,0.0,0.0,0.0,0.0,0.0,0.0,0.0,0.0,0.0,0.0,0.0,0.0,0.0,0.0,0.0,0.0,0.0,0.0,0.0,0.0,0.0,0.0,0.0,0.0,0.0,0.0,0.0,0.0,0.0,0.0,0.0,0.0,0.0,0.0,0.0,0.0,0.0,0.0,0.0,0.0,0.0,0.0,0.0,0.0,0.0,0.0,0.0,0.0,0.0,0.0,0.0,0.0,0.0,0.0,0.0,0.0,0.0,0.0,0.0,0.0,0.0,0.0,0.0,0.0,0.0,0.0,0.0,4.5755,4.5776,4.588,0.0,4.6121,4.6121,4.6121,4.6121,4.6121,4.6121,0.0,0.0,0.0,0.0,0.0,0.0,0.0,0.0,0.0,0.0,0.0,0.0,0.0,0.0,0.0,0.0,0.0,0.0,0.0,0.0,0.0,0.0,0.0,0.0,0.0,0.0,0.0,0.0,0.0,0.0,0.0,0.0,0.0,0.0,0.0,0.0,0.0,0.0,0.0,0.0,0.0,0.0,0.0,0.0,0.0,0.0,0.0,0.0,0.0,0.0,0.0,0.0,0.0,0.0,0.0,0.0,0.0,0.0,0.0,0.0,0.0,0.0,0.0,0.0,0.0,0.0,0.0,0.0,0.0,0.0,0.0,0.0,0.0,0.0,0.0,0.0,0.0,0.0,0.0,0.0,0.0,0.0,0.0,0.0,0.0,0.0,0.0,0.0,0.0,0.0,0.0,0.0,0.0,0.0,0.0,0.0,0.0,0.0,0.0,0.0,0.0,0.0,4.6514,4.6617,4.6893,4.7617,4.7686,4.7686,4.7686,4.7686,4.7686,0.0,0.0,0.0,0.0,0.0,0.0,0.0,0.0,0.0,0.0,0.0,0.0,0.0,0.0,0.0,0.0,0.0,0.0,0.0,0.0,0.0,0.0,0.0,0.0,0.0,0.0,0.0,0.0,0.0,0.0,0.0,0.0,0.0,0.0,0.0,0.0,0.0,0.0,0.0,0.0,0.0,0.0,0.0,0.0,0.0,0.0,0.0,0.0,0.0,0.0,0.0,0.0,0.0,0.0,0.0,0.0,0.0,0.0,0.0,0.0,0.0,0.0,0.0,0.0,0.0,0.0,0.0,0.0,0.0,0.0,0.0,0.0,0.0,0.0,0.0,0.0,0.0,0.0,0.0,0.0,0.0,0.0,0.0,0.0,0.0,0.0,0.0,0.0,0.0,0.0,0.0,0.0,0.0,0.0,0.0,0.0,0.0,0.0,0.0,0.0,0.0,0.0,0.0,4.7272,4.7376,4.7445,4.7686,4.7686,4.7686,4.7686,4.7686,4.7686,4.7686,0.0,0.0,0.0,0.0,0.0,0.0,0.0,0.0,0.0,0.0,0.0,0.0,0.0,0.0,0.0,0.0,0.0,0.0,0.0,0.0,0.0,0.0,0.0,0.0,0.0,0.0,0.0,0.0,0.0,0.0,0.0,0.0,0.0,0.0,0.0,0.0,0.0,0.0,0.0,0.0,0.0,0.0,0.0,0.0,0.0,0.0,0.0,0.0,0.0,0.0,0.0,0.0,0.0,0.0,0.0,0.0,0.0,0.0,0.0,0.0,0.0,0.0,0.0,0.0,0.0,0.0,0.0,0.0,0.0,0.0,0.0,0.0,0.0,0.0,0.0,0.0,0.0,0.0,0.0,0.0,0.0,0.0,0.0,0.0,0.0,0.0,0.0,0.0,0.0,0.0,0.0,0.0,0.0,0.0,0.0,0.0,0.0,0.0,0.0,0.0,0.0,0.0,4.8031,4.8134,4.8272,4.8582,4.8617,4.8617,4.8617,4.8617,4.8617,4.8617,0.0,0.0,0.0,0.0,0.0,0.0,0.0,0.0,0.0,0.0,0.0,0.0,0.0,0.0,0.0,0.0,0.0,0.0,0.0,0.0,0.0,0.0,0.0,0.0,0.0,0.0,0.0,0.0,0.0,0.0,0.0,0.0,0.0,0.0,0.0,0.0,0.0,0.0,0.0,0.0,0.0,0.0,0.0,0.0,0.0,0.0,0.0,0.0,0.0,0.0,0.0,0.0,0.0,0.0,0.0,0.0,0.0,0.0,0.0,0.0,0.0,0.0,0.0,0.0,0.0,0.0,0.0,0.0,0.0,0.0,0.0,0.0,0.0,0.0,0.0,0.0,0.0,0.0,0.0,0.0,0.0,0.0,0.0,0.0,0.0,0.0,0.0,0.0,0.0,0.0,0.0,0.0,0.0,0.0,0.0,0.0,0.0,0.0,0.0,0.0,0.0,0.0,4.8824,4.8913,4.9203,4.9942,5.0011,5.0011,5.0011,5.0011,5.0011,5.0011,0.0,0.0,0.0,0.0,0.0,0.0,0.0,0.0,0.0,0.0,0.0,0.0,0.0,0.0,0.0,0.0,0.0,0.0,0.0,0.0,0.0,0.0,0.0,0.0,0.0,0.0,0.0,0.0,0.0,0.0,0.0,0.0,0.0,0.0,0.0,0.0,0.0,0.0,0.0,0.0,0.0,0.0,0.0,0.0,0.0,0.0,0.0,0.0,0.0,0.0,0.0,0.0,0.0,0.0,0.0,0.0,0.0,0.0,0.0,0.0,4.2748,4.2266,0.0,0.0,0.0,0.0,0.0,0.0,0.0,0.0,0.0,0.0,0.0,0.0,0.0,0.0,0.0,0.0,0.0,0.0,0.0,0.0,0.0,0.0,0.0,0.0,0.0,0.0,0.0,0.0,0.0,0.0,0.0,0.0,0.0,0.0,0.0,0.0,0.0,0.0,0.0,0.0,4.9651,4.972,4.9804,4.9976,5.0011,5.0011,5.0011,5.0011,5.0011,5.0011,4.9824,0.0,0.0,0.0,0.0,0.0,0.0,0.0,0.0,0.0,0.0,0.0,0.0,0.0,0.0,0.0,0.0,0.0,0.0,0.0,0.0,0.0,0.0,0.0,0.0,0.0,0.0,0.0,0.0,0.0,0.0,0.0,0.0,0.0,0.0,0.0,0.0,0.0,0.0,0.0,0.0,0.0,0.0,0.0,0.0,0.0,0.0,0.0,0.0,0.0,0.0,0.0,0.0,0.0,0.0,0.0,0.0,0.0,0.0,0.0,4.3911,4.3059,0.0,0.0,0.0,0.0,0.0,0.0,0.0,0.0,0.0,0.0,0.0,0.0,0.0,0.0,0.0,0.0,0.0,0.0,0.0,0.0,0.0,0.0,0.0,0.0,0.0,0.0,0.0,0.0,0.0,0.0,0.0,0.0,0.0,0.0,0.0,0.0,0.0,0.0,0.0,0.0,5.0962,5.1065,5.1065,5.1065,5.1065,5.1065,5.1065,5.1065,5.1065,5.1065,5.1065,0.0,0.0,0.0,0.0,0.0,0.0,0.0,0.0,0.0,0.0,0.0,0.0,0.0,0.0,0.0,0.0,0.0,0.0,0.0,0.0,0.0,0.0,0.0,0.0,0.0,0.0,0.0,0.0,0.0,0.0,0.0,0.0,0.0,0.0,0.0,0.0,0.0,0.0,0.0,0.0,0.0,0.0,0.0,0.0,0.0,0.0,0.0,0.0,0.0,0.0,0.0,0.0,0.0,4.5514,4.5959,4.6257,4.7258,4.7505,4.7022,4.4913,4.3988,4.3988,4.3988,0.0,0.0,0.0,0.0,0.0,0.0,0.0,0.0,0.0,0.0,0.0,0.0,0.0,0.0,0.0,0.0,0.0,0.0,0.0,0.0,0.0,0.0,4.8134,4.8272,4.8755,4.9065,4.8582,0.0,0.0,0.0,0.0,0.0,0.0,0.0,0.0,0.0,0.0,0.0,5.2134,5.2203,5.2203,5.2203,5.2203,5.2203,5.2203,5.2203,5.2203,5.2203,5.2203,5.1927,0.0,0.0,0.0,0.0,0.0,0.0,0.0,0.0,0.0,0.0,0.0,0.0,0.0,0.0,0.0,0.0,0.0,0.0,0.0,0.0,0.0,0.0,0.0,0.0,0.0,0.0,0.0,0.0,0.0,0.0,0.0,0.0,4.1849,4.1849,0.0,0.0,0.0,0.0,0.0,0.0,0.0,0.0,0.0,0.0,0.0,0.0,0.0,4.6445,4.71,4.71,4.7169,4.7238,4.7341,4.7417,4.7465,4.7624,4.7658,4.7603,4.7245,0.0,4.71,4.71,0.0,0.0,0.0,0.0,0.0,0.0,0.0,0.0,0.0,0.0,0.0,0.0,0.0,0.0,0.0,0.0,0.0,0.0,0.0,0.0,0.0,0.0,4.9858,5.0513,5.072,5.0962,5.1479,5.0582,4.97,4.97,5.0203,5.0686,0.0,0.0,0.0,0.0,0.0,0.0,5.2203,5.2203,5.2203,5.2203,5.2203,5.2203,5.2203,5.2203,5.2203,5.2203,5.2203,5.2168,5.2065,5.2065,0.0,0.0,0.0,0.0,0.0,0.0,0.0,0.0,0.0,0.0,0.0,0.0,0.0,0.0,0.0,0.0,0.0,0.0,0.0,0.0,0.0,0.0,0.0,0.0,0.0,0.0,0.0,0.0,0.0,4.2206,4.2689,4.2689,4.3,4.3207,0.0,0.0,0.0,0.0,0.0,0.0,0.0,0.0,0.0,4.6672,4.7031,4.7376,4.7686,4.7686,4.7927,4.8341,4.8789,4.9203,4.9617,5.0031,5.0237,5.0237,5.0237,5.0237,5.01,4.841,4.7686,4.7686,0.0,0.0,0.0,0.0,4.7686,4.7755,4.8169,4.8341,4.8376,4.8858,0.0,0.0,0.0,0.0,0.0,0.0,0.0,5.072,5.072,5.0962,5.1306,5.1651,5.172,5.1824,5.2134,5.1686,5.1237,5.1237,5.1513,5.172,5.172,5.1996,0.0,0.0,0.0,5.3351,5.3491,5.3782,5.3872,5.3525,5.3479,5.3479,5.3479,5.3479,5.3479,5.3479,5.3479,5.3306,5.2892,5.2858,5.2513,0.0,0.0,0.0,0.0,0.0,0.0,0.0,0.0,0.0,0.0,0.0,0.0,0.0,0.0,0.0,0.0,0.0,0.0,0.0,0.0,0.0,0.0,0.0,0.0,0.0,0.0,0.0,0.0,4.3,4.3483,4.3483,4.3828,4.4057,0.0,0.0,0.0,0.0,0.0,0.0,4.7686,4.7686,4.7893,4.8272,4.8307,4.8479,4.8858,4.8858,4.9134,4.9686,5.0272,5.0858,5.141,5.1961,5.2203,5.2203,5.2203,5.2203,5.203,4.9789,4.8858,4.8858,4.8858,4.8858,4.8858,4.8858,4.8858,4.8927,4.9479,4.9686,4.9789,5.0375,5.0927,5.1375,5.1375,0.0,0.0,0.0,0.0,5.2203,5.2203,5.2203,5.2272,5.2444,5.2513,5.2548,5.2754,5.2789,5.2686,5.2272,5.2375,5.2539,5.2705,5.2758,0.0,5.3794,5.4132,5.4321,5.4488,5.4896,5.5018,5.4542,5.4478,5.4478,5.4478,5.4478,5.4478,5.4478,5.4478,5.4237,5.3701,5.3667,5.3322,5.2513,0.0,0.0,0.0,0.0,0.0,0.0,0.0,0.0,0.0,0.0,0.0,0.0,0.0,0.0,0.0,0.0,0.0,0.0,0.0,0.0,0.0,0.0,0.0,0.0,0.0,0.0,0.0,0.0,0.0,4.4242,4.5527,0.0,0.0,0.0,0.0,4.7582,4.7617,4.7651,4.7686,4.7686,4.8376,4.9824,4.9858,5.0548,5.1961,5.1961,5.1996,5.203,5.2065,5.2099,5.2168,5.2168,5.2203,5.2203,5.2203,5.2203,5.2203,5.203,5.1961,5.1961,5.1961,5.1961,5.1961,5.1961,5.1961,5.1996,5.203,5.203,5.203,5.2065,5.2099,5.2134,5.2134,5.2168,0.0,0.0,5.2203,5.2203,5.2203,5.2203,5.241,5.3149,5.3356,5.3529,5.4237,5.4375,5.3961,5.2479,5.2823,5.3487,5.3993,0.0,5.461,5.5199,5.4826,5.4491,5.4494,5.451,5.4526,5.4494,5.4478,5.4478,5.4478,5.4478,5.4478,5.4478,5.4478,5.4478,5.446,5.4444,5.4115,5.3356,5.3356,0.0,0.0,0.0,0.0,0.0,0.0,0.0,0.0,0.0,0.0,0.0,0.0,0.0,0.0,0.0,0.0,0.0,0.0,0.0,0.0,0.0,0.0,0.0,0.0,0.0,0.0,0.0,0.0,4.5768,4.6686,0.0,4.7307,4.7548,4.81,4.91,4.9169,4.9582,5.0548,5.0617,5.0858,5.141,5.141,5.1686,5.2203,5.2203,5.2444,5.2961,5.2961,5.3203,5.3685,5.3685,5.3685,5.3685,5.3685,5.3685,5.3685,5.3685,5.3099,5.2203,5.2203,5.2203,5.2203,5.2203,5.2203,5.2203,5.2203,5.2203,5.2306,5.2789,5.2961,5.308,5.3548,5.3685,5.3685,5.3685,5.3685,5.3685,5.3685,5.3685,5.3754,5.4046,5.4406,5.476,5.5024,5.5059,5.5194,5.553,5.5127,5.4765,5.4952,5.5352,5.573,5.5943,5.6075,5.6033,5.5701,5.5971,5.6033,5.5687,5.5644,5.5519,5.5104,5.5059,5.4911,5.451,5.4865,5.4911,5.451,5.4865,5.4757,5.4115,5.4099,5.3961,0.0,0.0,0.0,0.0,0.0,0.0,0.0,0.0,0.0,0.0,0.0,0.0,0.0,0.0,0.0,0.0,0.0,0.0,0.0,0.0,0.0,0.0,0.0,0.0,0.0,4.632,4.6962,4.6962,4.7617,4.8169,4.8444,4.8686,4.9375,5.0651,5.072,5.1168,5.2168,5.2203,5.2306,5.2582,5.2582,5.272,5.2961,5.3237,5.3616,5.4149,5.4425,5.4805,5.5288,5.5288,5.5288,5.5288,5.5288,5.5288,5.5288,5.5288,5.4651,5.3685,5.3168,5.2961,5.2961,5.2961,5.2961,5.2961,5.2961,5.2961,5.3065,5.3582,5.377,5.3873,5.4341,5.4651,5.4921,5.5157,5.5221,5.5336,5.5539,5.5567,5.5567,5.5567,5.6054,5.6508,5.6508,5.6508,5.68,5.7711,5.6786,5.6021,5.6702,5.6977,5.7102,5.7075,5.7402,5.7442,5.6851,5.7294,5.7509,5.7144,5.6907,5.6695,5.6522,5.6115,5.5787,5.5523,5.5684,5.5489,5.4819,5.5179,5.5104,5.4494,5.4478,5.4478,5.4478,0.0,0.0,0.0,0.0,0.0,0.0,0.0,0.0,0.0,0.0,0.0,0.0,0.0,0.0,0.0,0.0,0.0,0.0,0.0,0.0,0.0,0.0,0.0,4.7686,4.7755,4.7789,4.7789,4.8444,4.9203,4.9996,5.072,5.1444,5.2168,5.2237,5.2237,5.2272,5.2272,5.2651,5.3425,5.346,5.3839,5.4547,5.5272,5.5651,5.5651,5.6426,5.6805,5.6805,5.6805,5.6805,5.6805,5.6805,5.6805,5.6805,5.6805,5.6805,5.6633,5.515,5.4547,5.4547,5.4547,5.4547,5.4547,5.4547,5.4547,5.4547,5.4547,5.4563,5.4579,5.4563,5.5081,5.5793,5.6444,5.6709,5.6967,5.7561,5.773,5.773,5.773,5.8219,5.8744,5.8744,5.8744,5.8744,5.8772,5.7688,5.7381,5.9275,5.9119,5.8723,5.8652,5.8694,0.0,5.7882,5.8336,5.8758,5.8744,5.8131,5.7997,5.8624,5.7565,5.7067,5.7518,5.6961,5.6254,5.5517,5.5496,5.5199,5.4557,5.4542,5.4542,5.4557,0.0,0.0,0.0,0.0,0.0,0.0,0.0,0.0,0.0,0.0,0.0,0.0,0.0,0.0,0.0,0.0,0.0,0.0,0.0,0.0,0.0,4.8499,4.8307,4.7789,4.8651,4.9375,4.9375,5.0479,5.1341,5.1582,5.1789,5.2203,5.3011,5.3065,5.3306,5.3823,5.3858,5.4203,5.4961,5.4996,5.5391,5.615,5.6357,5.646,5.646,5.6702,5.6805,5.6805,5.6805,5.6805,5.6805,5.6805,5.6805,5.6805,5.6805,5.6805,5.6771,5.6322,5.6184,5.6184,5.6184,5.6184,5.6184,5.6184,5.6184,5.6184,5.6184,5.6453,5.6749,5.6312,5.6608,5.7153,5.7338,5.7436,5.7592,5.827,5.8409,5.8409,5.8409,5.8898,5.9357,5.9357,5.9357,5.9658,6.0606,6.0652,6.0331,5.971,5.9776,5.9928,5.9915,5.9915,5.9878,5.9675,5.9827,5.9776,5.9321,5.9132,5.889,5.8638,5.8328,5.8178,5.8366,5.8603,5.8454,5.7833,5.7625,5.6948,5.5816,5.5801,5.5801,0.0,0.0,0.0,0.0,0.0,0.0,0.0,0.0,0.0,0.0,0.0,0.0,0.0,0.0,0.0,0.0,0.0,0.0,0.0,0.0,0.0,0.0,4.9755,4.972,4.9617,5.01,5.0597,5.0893,5.1686,5.2341,5.2651,5.2686,5.303,5.3804,5.4149,5.4529,5.4927,5.5288,5.5667,5.6081,5.6099,5.6322,5.6805,5.7426,5.7736,5.7736,5.8392,5.8702,5.8702,5.8702,5.8702,5.8702,5.8702,5.8702,5.8702,5.8702,5.8702,5.8564,0.0,0.0,0.0,0.0,5.6805,5.6854,5.7078,5.7016,5.6854,5.7078,5.7409,5.7623,5.7267,5.8063,5.9152,5.9434,5.9778,6.025,6.0899,6.1055,6.1055,6.1055,6.1521,6.1993,6.1993,6.1993,6.223,6.2999,6.3273,0.0,6.2139,6.2237,6.2351,6.2086,6.2288,6.2351,6.2086,6.2288,6.2313,6.1956,6.1392,6.0964,6.0919,6.0074,0.0,0.0,0.0,5.9772,5.9114,5.8678,0.0,0.0,0.0,5.733,5.733,5.7563,0.0,0.0,5.6333,5.6053,0.0,0.0,0.0,0.0,0.0,0.0,0.0,0.0,0.0,0.0,0.0,0.0,0.0,0.0,0.0,0.0,5.1203,5.1479,5.2237,5.1755,5.1582,5.2272,5.241,5.2754,5.3563,5.3667,5.3977,5.4685,5.5375,5.5754,5.5754,5.6426,0.0,0.0,0.0,5.7116,5.7322,5.8668,5.9323,5.9288,6.0668,6.1289,6.1289,6.1289,6.1289,6.1289,6.1289,6.1342,6.1413,6.1413,6.1466,6.1259,5.8491,5.742,5.7437,5.7519,5.7552,5.7615,5.8149,0.0,0.0,5.8164,5.8411,5.8421,5.838,5.9754,6.1494,6.2081,6.2853,6.3639,6.4259,6.4414,6.4414,6.4414,6.4871,6.5288,6.5288,6.5288,6.5288,6.5288,6.5362,6.5435,6.5435,6.5362,6.5094,6.4483,6.4911,6.5081,6.4483,6.4925,6.5262,6.521,6.4003,0.0,6.4072,6.2382,6.1484,6.1972,6.1433,6.0758,5.9986,5.9353,5.8984,5.8876,5.8876,5.8876,5.8876,5.9437,5.9696,5.9647,5.7679,5.6756,0.0,0.0,0.0,0.0,0.0,0.0,0.0,0.0,0.0,0.0,0.0,0.0,0.0,0.0,0.0,5.1858,5.1996,5.2272,5.308,5.3046,5.3011,5.3149,5.3685,5.4341,5.5099,5.5168,5.5478,5.6288,5.6495,5.6564,5.6564,5.6736,5.7357,5.8547,5.8582,5.9185,6.0427,6.0737,6.0875,6.0875,6.1151,0.0,6.1289,6.1289,6.1289,6.1289,6.1289,6.1606,6.21,6.21,6.2465,6.286,6.1682,6.1241,6.1324,6.1919,6.2122,6.2138,6.2261,6.223,6.2153,6.2261,6.2654,6.2911,6.2459,6.2958,0.0,6.3816,6.3991,6.4287,6.4925,6.5094,6.5094,6.5094,6.521,6.5288,6.5288,6.5288,6.5288,6.5288,6.5815,6.6256,6.6256,6.5742,6.5262,6.5108,6.5223,6.5249,6.5108,6.5223,6.5081,6.4561,6.4241,6.4104,6.4252,6.3875,6.3897,6.4552,6.389,6.3057,6.2215,6.1468,6.0723,6.009,6.0053,6.0053,6.0053,6.0188,6.0237,6.0225,5.981,5.9615,0.0,0.0,0.0,0.0,0.0,0.0,0.0,0.0,0.0,0.0,0.0,5.0306,5.1444,0.0,5.1892,5.2686,5.2789,5.3065,5.3839,5.4287,5.4341,5.4011,5.4582,5.5203,5.5547,5.5961,5.6357,5.6771,5.7495,5.7909,5.7909,5.8633,5.9392,6.0151,6.0151,6.053,6.1289,6.1703,6.191,6.191,6.2255,6.2625,6.2945,6.2945,6.3363,6.4038,6.4038,6.4469,6.5188,6.5188,6.542,6.574,6.5705,6.452,6.29,6.3259,6.3382,6.3428,6.3744,6.3639,6.3443,6.3744,6.4036,6.4222,6.3935,6.4591,6.5401,6.5401,6.5706,6.6067,6.641,6.6512,6.6512,6.6512,6.6512,6.6512,6.6512,6.6512,6.6623,6.7013,6.743,6.7834,6.8238,6.7981,6.743,6.6623,6.6512,6.6512,6.6512,6.6512,6.637,6.6026,6.5633,6.5401,6.5401,6.5036,6.4925,6.5275,6.4934,6.453,6.4077,6.3686,6.3282,6.2866,6.2829,6.2829,6.2829,6.2829,6.2829,6.2829,6.2829,6.1949,0.0,0.0,0.0,0.0,0.0,0.0,0.0,4.9238,4.9651,5.103,5.1306,5.1548,5.2306,5.2444,5.2686,5.3494,5.3736,5.403,5.4616,5.534,5.5616,5.5012,5.5478,5.5892,5.603,5.6754,5.7288,5.746,5.8702,5.9461,5.9461,6.0634,6.1429,6.1708,6.1726,6.1866,6.211,6.2926,6.3343,6.3343,6.4126,6.476,6.5297,6.5297,6.5936,6.7049,6.7179,6.7653,6.831,6.8439,6.8487,6.8534,6.9098,6.7415,6.4708,6.4708,6.4708,6.4768,6.525,6.5106,6.4783,6.525,6.5442,6.5442,6.5442,6.6272,6.721,6.721,6.765,6.8178,6.8178,6.8178,6.8178,6.8178,6.8178,6.8178,6.8178,6.8178,6.8361,6.9009,6.9119,6.9339,7.0,7.011,6.9683,6.8361,6.8178,6.8178,6.8178,6.8178,6.8104,6.7958,6.7357,6.6916,6.6733,6.6145,6.5765,6.5765,6.5618,6.5508,6.5508,6.5362,6.5288,6.5288,6.5288,6.5288,6.5288,6.5288,6.5288,6.5288,6.5288,6.3894,4.7548,4.7582,4.7755,4.8479,4.8686,4.9065,0.0,5.0858,5.1065,5.1927,5.2065,5.2306,5.3115,5.3287,5.3529,5.4237,5.4927,5.5375,5.5478,5.6184,5.6633,5.6564,5.6633,5.6909,5.7598,5.8306,5.9047,5.9771,6.0565,6.1047,6.1047,6.122,6.1918,6.3218,6.3235,6.3871,6.5116,6.5914,6.6306,6.6341,6.7193,6.7651,6.7717,6.7717,6.7802,6.7988,6.8563,6.8898,6.9053,6.9624,6.989,6.989,6.9961,6.9727,6.9341,6.9341,6.9341,6.9355,6.9411,6.9397,6.9355,6.9411,6.9439,6.9439,6.9439,6.9591,6.9706,6.9706,6.9743,6.9816,6.9816,6.9816,6.9816,6.9816,6.9816,6.9816,6.9816,6.9816,6.9853,6.9963,6.9963,7.0,7.0073,7.011,7.0036,6.9853,6.9816,6.9816,6.9816,6.9816,6.9559,6.8862,6.8678,6.8348,6.7627,6.748,6.7444,6.7444,6.6769,6.6366,6.6366,6.5692,6.5288,6.5288,6.5288,6.5288,6.5288,6.5288,6.5288,6.5288,6.5288,6.5105,4.8224,4.8686,4.9203,4.9962,5.0134,5.041,5.1513,5.1755,5.1961,5.272,5.2892,5.3134,5.3892,5.4046,5.4287,5.503,5.5409,5.5754,5.6237,5.6978,5.7765,5.8639,5.909,5.917,5.865,5.9254,6.0013,6.0771,6.1919,6.2579,6.2579,6.3373,6.4093,6.4708,6.5185,6.5707,6.6268,6.7137,6.7566,6.7566,6.7939,6.831,6.8676,6.8676,6.9168,6.999,7.0733,7.107,7.1085,7.1368,7.1505,7.1505,7.1505,7.1505,7.1394,7.044,7.011,7.011,7.011,7.011,7.011,7.011,7.011,7.011,7.011,7.011,7.011,7.011,7.011,7.011,7.011,7.011,7.011,7.011,7.011,7.011,7.011,7.011,7.022,7.0697,7.0807,7.0954,7.1431,7.1505,7.1505,7.1505,7.0697,7.011,7.011,7.011,6.9963,6.9633,6.9596,6.9449,6.9119,6.9096,6.9096,6.9096,6.8788,6.8605,6.8605,6.7834,6.738,6.738,6.6953,6.6696,6.6696,6.6696,6.6696,6.6696,6.6696,6.6953,4.9548,5.0168,5.072,5.1272,5.141,5.1582,5.2341,5.2548,5.2754,5.3529,5.3701,5.3873,5.441,5.4651,5.5041,5.575,5.6232,5.6782,5.7511,5.8483,5.948,6.0533,6.1337,6.1482,6.0676,6.1063,6.162,6.2143,6.337,6.4077,6.4077,6.5261,6.6006,6.6231,6.7,6.7525,6.7698,6.8557,6.8969,6.9005,6.9201,6.9581,7.0023,7.0023,7.0624,7.1674,7.2261,7.2496,7.2496,7.2496,7.2496,7.2496,7.2496,7.2496,7.2349,7.1174,7.077,7.077,7.077,7.077,7.077,7.077,7.077,7.077,7.077,7.077,7.077,7.077,7.077,7.077,7.077,7.077,7.077,7.077,7.077,7.077,7.077,7.077,7.0917,7.1527,7.1637,7.1821,7.2422,7.2496,7.2496,7.2496,7.1505,7.077,7.077,7.055,7.044,7.044,7.022,7.011,7.011,7.011,7.011,7.011,7.011,7.011,7.011,6.9522,6.9229,6.9229,6.8641,6.8361,6.8361,6.8361,6.8361,6.8361,6.8361,6.8678,5.1892,5.2099,5.2134,5.2168,5.2168,5.2375,5.3184,5.3356,5.3563,5.4306,5.4494,5.4478,5.4478,5.5065,5.5772,5.647,5.7825,5.9025,5.96,6.1078,6.2077,6.2128,6.2837,6.3586,6.4254,6.4361,6.4396,6.4396,6.511,6.5522,6.5522,6.6303,6.7087,6.7806,6.8597,6.9332,6.9981,7.0787,7.1213,7.1213,7.1998,7.2379,7.2393,7.2393,7.2408,7.2459,7.2496,7.2496,7.2496,7.2496,7.2496,7.2496,7.2496,7.2496,7.2496,7.2459,7.2422,7.2422,7.2422,7.2422,7.2422,7.2422,7.2422,7.2422,7.2422,7.2422,7.2422,7.2422,7.2422,7.2422,7.2422,7.2422,7.2422,7.2422,7.2422,7.2422,7.2422,7.2422,7.2422,7.2459,7.2459,7.2459,7.2496,7.2496,7.2496,7.2496,7.2459,7.2422,7.2422,7.1747,7.127,7.127,7.0587,7.011,7.011,7.011,7.011,7.011,7.011,7.011,7.011,7.0073,7.0073,7.0073,7.0036,7.0036,7.0036,7.0036,7.0036,7.0036,7.0036,7.0036,5.2134,5.2203,5.2341,5.2858,5.2996,5.3218,5.3961,5.4149,5.4203,5.446,5.4892,5.5237,5.5237,5.6223,5.7227,5.7985,5.889,5.9746,6.0436,6.148,6.2537,6.3488,6.4281,6.5287,6.6494,6.5322,6.4693,6.5177,6.6423,6.7121,6.7121,6.8303,6.9085,6.9338,7.0142,7.0667,7.0903,7.1674,7.2078,7.2078,7.2386,7.2496,7.2496,7.2496,7.2496,7.2496,7.2496,7.2496,7.2496,7.2496,7.2496,7.2496,7.2496,7.2496,7.2496,7.2496,7.2496,7.2496,7.2496,7.2496,7.2496,7.2496,7.2496,7.2496,7.2496,7.2496,7.2496,7.2496,7.2496,7.2496,7.2496,7.2496,7.2496,7.2496,7.2496,7.2496,7.2496,7.2496,7.2496,7.2496,7.2496,7.2496,7.2496,7.2496,7.2496,7.2496,7.2496,7.2496,7.2496,7.2275,7.2078,7.2078,7.1835,7.1688,7.1688,7.1688,7.1688,7.1688,7.1688,7.1688,7.1688,7.116,7.0903,7.0903,7.0367,7.011,7.011,7.011,7.011,7.011,7.011,7.0403,5.2961,5.303,5.3134,5.3667,5.3804,5.3908,5.4375,5.4478,5.4478,5.4478,5.5271,5.5964,5.5964,5.7342,5.8703,5.9458,6.0389,6.1221,6.1959,6.3011,6.4057,6.4981,6.58,6.666,6.76,6.6692,6.6259,6.6734,6.7701,6.8357,6.8663,6.9862,7.055,7.055,7.1307,7.1711,7.1711,7.2239,7.2496,7.2496,7.2496,7.2496,7.2496,7.2496,7.2496,7.2496,7.2496,7.2496,7.2496,7.2496,7.2496,7.2496,7.2496,7.2496,7.2496,7.2496,7.2496,7.2496,7.2496,7.2496,7.2496,7.2496,7.2496,7.2496,7.2496,7.2496,7.2496,7.2496,7.2496,7.2496,7.2496,7.2496,7.2496,7.2496,7.2496,7.2496,7.2496,7.2496,7.2496,7.2496,7.2496,7.2496,7.2496,7.2496,7.2496,7.2496,7.2496,7.2496,7.2496,7.2496,7.2496,7.2496,7.2496,7.2496,7.2496,7.2496,7.2496,7.2496,7.2496,7.2496,7.2496,7.2004,7.1711,7.1711,7.1211,7.0954,7.0954,7.0954,7.0954,7.0954,7.0954,7.1248,5.4306,5.4478,5.4478,5.4478,5.4478,5.4478,5.4478,5.4478,5.4529,5.4611,5.5695,5.6691,5.6756,5.8491,6.0131,6.0734,6.211,6.3316,6.3989,6.5448,6.6439,6.6512,6.7223,6.7737,6.7774,6.8458,6.8921,6.9009,6.9032,6.9376,7.011,7.0903,7.1344,7.1344,7.2078,7.2496,7.2496,7.2496,7.2496,7.2496,7.2496,7.2496,7.2496,7.2496,7.2496,7.2496,7.2496,7.2496,7.2496,7.2496,7.2496,7.2496,7.2496,7.2496,7.2496,7.2496,7.2496,7.2496,7.2496,7.2496,7.2496,7.2496,7.2496,7.2496,7.2496,7.2496,7.2496,7.2496,7.2496,7.2496,7.2496,7.2496,7.2496,7.2496,7.2496,7.2496,7.2496,7.2496,7.2496,7.2496,7.2496,7.2496,7.2496,7.2496,7.2496,7.2496,7.2496,7.2496,7.2496,7.2496,7.2496,7.2496,7.2496,7.2496,7.2496,7.2496,7.2496,7.2496,7.2496,7.2496,7.2496,7.2496,7.2496,7.2496,7.2496,7.2496,7.2496,7.2496,7.2496,7.2496,7.2496,7.2496,5.446,5.4478,5.4478,5.4478,5.4478,5.4478,5.4478,5.4478,5.4809,5.5857,5.6786,5.7726,5.8783,6.0303,6.142,6.1593,6.2331,6.3154,6.3967,6.4971,6.5852,6.6439,6.7223,6.7958,6.8531,6.8788,6.9398,7.061,7.0683,7.0793,7.0977,7.1762,7.2188,7.2188,7.2386,7.2496,7.2496,7.2496,7.2496,7.2496,7.2496,7.2496,7.2496,7.2496,7.2496,7.2496,7.2496,7.2496,7.2496,7.2496,7.2496,7.2496,7.2496,7.2496,7.2496,7.2496,7.2496,7.2496,7.2496,7.2496,7.2496,7.2496,7.2496,7.2496,7.2496,7.2496,7.2496,7.2496,7.2496,7.2496,7.2496,7.2496,7.2496,7.2496,7.2496,7.2496,7.2496,7.2496,7.2496,7.2496,7.2496,7.2496,7.2496,7.2496,7.2496,7.2496,7.2496,7.2496,7.2496,7.2496,7.2496,7.2496,7.2496,7.2496,7.2496,7.2496,7.2496,7.2496,7.2496,7.2496,7.2496,7.2496,7.2496,7.2496,7.2496,7.2496,7.2496,7.2496,7.2496,7.2496,7.2496,7.2496,5.4478,5.4478,5.4478,5.4478,5.4478,5.4557,5.4819,5.4896,5.5183,5.6237,5.7576,5.8788,5.957,6.1136,6.2308,6.2308,6.3189,6.4077,6.4567,6.5632,6.6512,6.6953,6.7444,6.8031,6.8811,6.9229,6.9963,7.1197,7.1307,7.1454,7.1821,7.2261,7.2496,7.2496,7.2496,7.2496,7.2496,7.2496,7.2496,7.2496,7.2496,7.2496,7.2496,7.2496,7.2496,7.2496,7.2496,7.2496,7.2496,7.2496,7.2496,7.2496,7.2496,7.2496,7.2496,7.2496,7.2496,7.2496,7.2496,7.2496,7.2496,7.2496,7.2496,7.2496,7.2496,7.2496,7.2496,7.2496,7.2496,7.2496,7.2496,7.2496,7.2496,7.2496,7.2496,7.2496,7.2496,7.2496,7.2496,7.2496,7.2496,7.2496,7.2496,7.2496,7.2496,7.2496,7.2496,7.2496,7.2496,7.2496,7.2496,7.2496,7.2496,7.2496,7.2496,7.2496,7.2496,7.2496,7.2496,7.2496,7.2496,7.2496,7.2496,7.2496,7.2496,7.2496,7.2496,7.2496,7.2496,7.2496,7.2496,7.2496,5.4478,5.4478,5.4478,5.4478,5.4478,5.4667,5.5254,5.5417,5.5621,5.6383,5.8191,5.9667,5.9818,6.1478,6.2793,6.2793,6.4114,6.5178,6.5288,6.6586,6.759,6.77,6.7811,6.8178,6.8972,6.9779,7.0587,7.1417,7.1454,7.1747,7.2459,7.2496,7.2496,7.2496,7.2496,7.2496,7.2496,7.2496,7.2496,7.2496,7.2496,7.2496,7.2496,7.2496,7.2496,7.2496,7.2496,7.2496,7.2496,7.2496,7.2496,7.2496,7.2496,7.2496,7.2496,7.2496,7.2496,7.2496,7.2496,7.2496,7.2496,7.2496,7.2496,7.2496,7.2496,7.2496,7.2496,7.2496,7.2496,7.2496,7.2496,7.2496,7.2496,7.2496,7.2496,7.2496,7.2496,7.2496,7.2496,7.2496,7.2496,7.2496,7.2496,7.2496,7.2496,7.2496,7.2496,7.2496,7.2496,7.2496,7.2496,7.2496,7.2496,7.2496,7.2496,7.2496,7.2496,7.2496,7.2496,7.2496,7.2496,7.2496,7.2496,7.2496,7.2496,7.2496,7.2496,7.2496,7.2496,7.2496,7.2496,7.2496,5.4478,5.4478,5.4478,5.4478,5.4478,5.4667,5.5254,5.5417,5.5878,5.7611,5.8815,5.9929,6.1066,6.2119,6.2793,6.2793,6.3649,6.453,6.5215,6.6109,6.6953,6.7627,6.8274,6.9009,6.9816,7.0624,7.1417,7.2239,7.2312,7.2349,7.2496,7.2496,7.2496,7.2496,7.2496,7.2496,7.2496,7.2496,7.2496,7.2496,7.2496,7.2496,7.2496,7.2496,7.2496,7.2496,7.2496,7.2496,7.2496,7.2496,7.2496,7.2496,7.2496,7.2496,7.2496,7.2496,7.2496,7.2496,7.2496,7.2496,7.2496,7.2496,7.2496,7.2496,7.2496,7.2496,7.2496,7.2496,7.2496,7.2496,7.2496,7.2496,7.2496,7.2496,7.2496,7.2496,7.2496,7.2496,7.2496,7.2496,7.2496,7.2496,7.2496,7.2496,7.2496,7.2496,7.2496,7.2496,7.2496,7.2496,7.2496,7.2496,7.2496,7.2496,7.2496,7.2496,7.2496,7.2496,7.2496,7.2496,7.2496,7.2496,7.2496,7.2496,7.2496,7.2496,7.2496,7.2496,7.2496,7.2496,7.2496,7.2496,5.4478,5.4478,5.4478,5.4478,5.4745,5.5119,5.573,5.6097,5.6631,5.7886,5.8799,5.9724,6.0774,6.163,6.2316,6.2719,6.387,6.4861,6.5251,6.6366,6.726,6.7664,6.8421,6.9229,7.0,7.0844,7.1637,7.2459,7.2496,7.2496,7.2496,7.2496,7.2496,7.2496,7.2496,7.2496,7.2496,7.2496,7.2496,7.2496,7.2496,7.2496,7.2496,7.2496,7.2496,7.2496,7.2496,7.2496,7.2496,7.2496,7.2496,7.2496,7.2496,7.2496,7.2496,7.2496,7.2496,7.2496,7.2496,7.2496,7.2496,7.2496,7.2496,7.2496,7.2496,7.2496,7.2496,7.2496,7.2496,7.2496,7.2496,7.2496,7.2496,7.2496,7.2496,7.2496,7.2496,7.2496,7.2496,7.2496,7.2496,7.2496,7.2496,7.2496,7.2496,7.2496,7.2496,7.2496,7.2496,7.2496,7.2496,7.2496,7.2496,7.2496,7.2496,7.2496,7.2496,7.2496,7.2496,7.2496,7.2496,7.2496,7.2496,7.2496,7.2496,7.2496,7.2496,7.2496,7.2496,7.2496,7.2496,7.2496,5.4478,5.4478,5.4526,5.4667,5.5063,5.5572,5.6317,5.6809,5.7266,5.7892,5.8646,5.9453,6.026,6.1043,6.1851,6.2683,6.4224,6.5288,6.5288,6.6696,6.77,6.77,6.8568,6.9412,7.0036,7.0977,7.1821,7.2459,7.2496,7.2496,7.2496,7.2496,7.2496,7.2496,7.2496,7.2496,7.2496,7.2496,7.2496,7.2496,7.2496,7.2496,7.2496,7.2496,7.2496,7.2496,7.2496,7.2496,7.2496,7.2496,7.2496,7.2496,7.2496,7.2496,7.2496,7.2496,7.2496,7.2496,7.2496,7.2496,7.2496,7.2496,7.2496,7.2496,7.2496,7.2496,7.2496,7.2496,7.2496,7.2496,7.2496,7.2496,7.2496,7.2496,7.2496,7.2496,7.2496,7.2496,7.2496,7.2496,7.2496,7.2496,7.2496,7.2496,7.2496,7.2496,7.2496,7.2496,7.2496,7.2496,7.2496,7.2496,7.2496,7.2496,7.2496,7.2496,7.2496,7.2496,7.2496,7.2496,7.2496,7.2496,7.2496,7.2496,7.2496,7.2496,7.2496,7.2496,7.2496,7.2496,7.2496,7.2496,5.4478,5.4478,5.4636,5.5179,5.5373,5.5687,5.676,5.7078,5.7266,5.7892,5.8646,5.9453,6.026,6.1043,6.1851,6.2683,6.4224,6.5288,6.5288,6.6696,6.77,6.77,6.9059,7.0,7.0073,7.1505,7.2422,7.2496,7.2496,7.2496,7.2496,7.2496,7.2496,7.2496,7.2496,7.2496,7.2496,7.2496,7.2496,7.2496,7.2496,7.2496,7.2496,7.2496,7.2496,7.2496,7.2496,7.2496,7.2496,7.2496,7.2496,7.2496,7.2496,7.2496,7.2496,7.2496,7.2496,7.2496,7.2496,7.2496,7.2496,7.2496,7.2496,7.2496,7.2496,7.2496,7.2496,7.2496,7.2496,7.2496,7.2496,7.2496,7.2496,7.2496,7.2496,7.2496,7.2496,7.2496,7.2496,7.2496,7.2496,7.2496,7.2496,7.2496,7.2496,7.2496,7.2496,7.2496,7.2496,7.2496,7.2496,7.2496,7.2496,7.2496,7.2496,7.2496,7.2496,7.2496,7.2496,7.2496,7.2496,7.2496,7.2496,7.2496,7.2496,7.2496,7.2496,7.2496,7.2496,7.2496,7.2496,7.2496,5.5048,5.5313,5.5629,5.5872,5.6158,5.6536,5.7002,5.7388,5.7714,5.7962,5.8253,5.8877,6.0162,6.0676,6.13,6.2572,6.4224,6.5288,6.5288,6.6696,6.77,6.77,6.9132,7.011,7.011,7.1578,7.2496,7.2496,7.2496,7.2496,7.2496,7.2496,7.2496,7.2496,7.2496,7.2496,7.2496,7.2496,7.2496,7.2496,7.2496,7.2496,7.2496,7.2496,7.2496,7.2496,7.2496,7.2496,7.2496,7.2496,7.2496,7.2496,7.2496,7.2496,7.2496,7.2496,7.2496,7.2496,7.2496,7.2496,7.2496,7.2496,7.2496,7.2496,7.2496,7.2496,7.2496,7.2496,7.2496,7.2496,7.2496,7.2496,7.2496,7.2496,7.2496,7.2496,7.2496,7.2496,7.2496,7.2496,7.2496,7.2496,7.2496,7.2496,7.2496,7.2496,7.2496,7.2496,7.2496,7.2496,7.2496,7.2496,7.2496,7.2496,7.2496,7.2496,7.2496,7.2496,7.2496,7.2496,7.2496,7.2496,7.2496,7.2496,7.2496,7.2496,7.2496,7.2496,7.2496,7.2496,7.2496,7.2496,5.5358,5.5701,5.6111,5.6465,5.6835,5.7141,5.7351,5.7703,5.7997,5.7997,5.7997,5.8474,6.0089,6.0419,6.0921,6.2536,6.4224,6.5288,6.5288,6.6696,6.7811,6.8017,6.9279,7.0183,7.044,7.1688,7.2496,7.2496,7.2496,7.2496,7.2496,7.2496,7.2496,7.2496,7.2496,7.2496,7.2496,7.2496,7.2496,7.2496,7.2496,7.2496,7.2496,7.2496,7.2496,7.2496,7.2496,7.2496,7.2496,7.2496,7.2496,7.2496,7.2496,7.2496,7.2496,7.2496,7.2496,7.2496,7.2496,7.2496,7.2496,7.2496,7.2496,7.2496,7.2496,7.2496,7.2496,7.2496,7.2496,7.2496,7.2496,7.2496,7.2496,7.2496,7.2496,7.2496,7.2496,7.2496,7.2496,7.2496,7.2496,7.2496,7.2496,7.2496,7.2496,7.2496,7.2496,7.2496,7.2496,7.2496,7.2496,7.2496,7.2496,7.2496,7.2496,7.2496,7.2496,7.2496,7.2496,7.2496,7.2496,7.2496,7.2496,7.2496,7.2496,7.2496,7.2496,7.2496,7.2496,7.2496,7.2496,7.2496,5.5239,5.5417,5.5673,5.6822,5.7103,5.7253,5.7844,5.7997,5.7997,5.7997,5.7997,5.8474,6.0089,6.0419,6.0921,6.2536,6.4224,6.5288,6.5288,6.6696,6.7994,6.8775,6.9596,7.0403,7.1197,7.2004,7.2496,7.2496,7.2496,7.2496,7.2496,7.2496,7.2496,7.2496,7.2496,7.2496,7.2496,7.2496,7.2496,7.2496,7.2496,7.2496,7.2496,7.2496,7.2496,7.2496,7.2496,7.2496,7.2496,7.2496,7.2496,7.2496,7.2496,7.2496,7.2496,7.2496,7.2496,7.2496,7.2496,7.2496,7.2496,7.2496,7.2496,7.2496,7.2496,7.2496,7.2496,7.2496,7.2496,7.2496,7.2496,7.2496,7.2496,7.2496,7.2496,7.2496,7.2496,7.2496,7.2496,7.2496,7.2496,7.2496,7.2496,7.2496,7.2496,7.2496,7.2496,7.2496,7.2496,7.2496,7.2496,7.2496,7.2496,7.2496,7.2496,7.2496,7.2496,7.2496,7.2496,7.2496,7.2496,7.2496,7.2496,7.2496,7.2496,7.2496,7.2496,7.2496,7.2496,7.2496,7.2496,7.2496,5.6496,5.6874,5.7277,5.7606,5.7726,5.7762,5.7962,5.7997,5.7997,5.7997,5.7997,5.8474,6.0089,6.0419,6.0921,6.2536,6.4224,6.5288,6.5288,6.6696,6.7994,6.8788,7.0096,7.1233,7.2041,7.2349,7.2496,7.2496,7.2496,7.2496,7.2496,7.2496,7.2496,7.2496,7.2496,7.2496,7.2496,7.2496,7.2496,7.2496,7.2496,7.2496,7.2496,7.2496,7.2496,7.2496,7.2496,7.2496,7.2496,7.2496,7.2496,7.2496,7.2496,7.2496,7.2496,7.2496,7.2496,7.2496,7.2496,7.2496,7.2496,7.2496,7.2496,7.2496,7.2496,7.2496,7.2496,7.2496,7.2496,7.2496,7.2496,7.2496,7.2496,7.2496,7.2496,7.2496,7.2496,7.2496,7.2496,7.2496,7.2496,7.2496,7.2496,7.2496,7.2496,7.2496,7.2496,7.2496,7.2496,7.2496,7.2496,7.2496,7.2496,7.2496,7.2496,7.2496,7.2496,7.2496,7.2496,7.2496,7.2496,7.2496,7.2496,7.2496,7.2496,7.2496,7.2496,7.2496,7.2496,7.2496,7.2496,7.2496,5.7166,5.7352,5.7726,5.795,5.7997,5.7997,5.7997,5.7997,5.7997,5.7997,5.7997,5.8474,6.0089,6.0419,6.0921,6.2536,6.4224,6.5288,6.5288,6.6696,6.8104,6.9229,7.077,7.1931,7.2459,7.2496,7.2496,7.2496,7.2496,7.2496,7.2496,7.2496,7.2496,7.2496,7.2496,7.2496,7.2496,7.2496,7.2496,7.2496,7.2496,7.2496,7.2496,7.2496,7.2496,7.2496,7.2496,7.2496,0.0,7.2496,7.2496,7.2496,7.2496,7.2496,7.2496,7.2496,7.2496,7.2496,7.2496,7.2496,7.2496,7.2496,7.2496,7.2496,7.2496,7.2496,7.2496,7.2496,7.2496,7.2496,7.2496,7.2496,7.2496,7.2496,7.2496,7.2496,7.2496,7.2496,7.2496,7.2496,7.2496,7.2496,7.2496,7.2496,7.2496,7.2496,7.2496,7.2496,7.2496,7.2496,7.2496,7.2496,7.2496,7.2496,7.2496,7.2496,7.2496,7.2496,7.2496,7.2496,7.2496,7.2496,7.2496,7.2496,7.2496,7.2496,7.2496,7.2496,7.2496,7.2496,7.2496,7.2496,0.0,5.7166,5.729,5.7844,5.7997,5.7997,5.7997,5.7997,0.0,5.7997,5.7997,5.8474,6.0089,6.0419,6.0921,6.2536,6.4224,6.5288,6.5288,6.6769,6.8435,6.9926,7.1505,7.2496,7.2496,7.2496,7.2496,7.2496,7.2496,7.2496,7.2496,7.2496,7.2496,7.2496,7.2496,7.2496,7.2496,7.2496,7.2496,7.2496,7.2496,7.2496,7.2496,7.2496,7.2496,7.2496,7.2496,7.2496,7.2496,7.2496,7.2496,7.2496,7.2496,7.2496,7.2496,7.2496,7.2496,7.2496,7.2496,7.2496,7.2496,7.2496,7.2496,7.2496,7.2496,7.2496,7.2496,7.2496,7.2496,7.2496,7.2496,7.2496,7.2496,7.2496,7.2496,7.2496,7.2496,7.2496,7.2496,7.2496,7.2496,7.2496,7.2496,7.2496,7.2496,7.2496,7.2496,7.2496,7.2496,7.2496,7.2496,7.2496,7.2496,7.2496,7.2496,7.2496,7.2496,7.2496,7.2496,7.2496,7.2496,7.2496,7.2496,7.2496,7.2496,7.2496,7.2496,7.2496,7.2496,7.2496,7.2496,7.2496,5.7532,0.0,5.7821,5.7973,5.7997,5.7997,0.0,5.7997,5.7997,5.7997,5.7997,5.8474,6.0089,6.0419,6.0921,6.2536,6.4224,6.5288,6.5288,6.776,6.9669,7.0036,7.1505,7.2496,7.2496,7.2496,7.2496,7.2496,7.2496,7.2496,7.2496,7.2496,7.2496,7.2496,7.2496,7.2496,7.2496,7.2496,7.2496,7.2496,7.2496,7.2496,7.2496,7.2496,7.2496,7.2496,7.2496,7.2496,7.2496,7.2496,7.2496,7.2496,7.2496,7.2496,7.2496,7.2496,7.2496,7.2496,7.2496,7.2496,7.2496,7.2496,7.2496,7.2496,7.2496,7.2496,7.2496,7.2496,7.2496,7.2496,7.2496,7.2496,7.2496,7.2496,7.2496,7.2496,7.2496,7.2496,7.2496,7.2496,7.2496,7.2496,7.2496,7.2496,7.2496,7.2496,7.2496,7.2496,7.2496,7.2496,7.2496,7.2496,7.2496,7.2496,7.2496,7.2496,7.2496,7.2496,7.2496,7.2496,7.2496,7.2496,7.2496,7.2496,7.2496,7.2496,7.2496,7.2496,7.2496,7.2496,7.2496,7.2496,5.7707,5.7997,5.7997,5.7997,5.7997,5.7997,5.7997,5.7997,5.7997,5.7997,5.829,5.8939,6.015,6.0713,6.1484,6.3135,6.4481,6.5545,6.6292,6.8531,7.011,7.011,7.1505,7.2496,7.2496,7.2496,7.2496,7.2496,7.2496,7.2496,7.2496,7.2496,7.2496,7.2496,7.2496,7.2496,7.2496,7.2496,7.2496,7.2496,7.2496,7.2496,7.2496,7.2496,7.2496,7.2496,7.2496,7.2496,7.2496,7.2496,7.2496,7.2496,7.2496,7.2496,7.2496,7.2496,7.2496,7.2496,7.2496,7.2496,7.2496,7.2496,7.2496,7.2496,7.2496,7.2496,7.2496,7.2496,7.2496,7.2496,7.2496,7.2496,7.2496,7.2496,7.2496,7.2496,7.2496,7.2496,7.2496,7.2496,7.2496,7.2496,7.2496,7.2496,7.2642,7.301,7.3046,7.3193,7.356,7.3597,7.3597,7.3597,7.3597,7.3597,7.3597,7.3266,7.2899,7.2532,7.2496,7.2496,7.2496,7.2496,7.2496,7.2496,7.2496,7.2496,7.2496,7.2496,7.2496,7.2496,7.2496,7.2496,5.7776,5.7997,5.7997,5.7997,5.7997,5.7997,5.7997,5.7997,5.7997,5.7997,5.8646,5.9453,6.026,6.1043,6.2157,6.3846,6.4897,6.5999,6.748,6.9096,7.011,7.011,7.1505,7.2496,7.2496,7.2496,7.2496,7.2496,7.2496,7.2496,7.2496,7.2496,7.2496,7.2496,7.2496,7.2496,7.2496,7.2496,7.2496,7.2496,7.2496,7.2496,7.2496,7.2496,7.2496,7.2496,7.2496,7.2496,7.2496,7.2496,7.2496,7.2496,7.2496,7.2496,7.2496,7.2496,7.2496,7.2496,7.2496,7.2496,7.2496,7.2496,7.2496,7.2496,7.2496,7.2496,7.2496,7.2496,7.2496,7.2496,7.2496,7.2496,7.2496,7.2496,7.2496,7.2496,7.2496,7.2496,7.2496,7.2496,7.2496,7.2532,7.2679,7.2679,7.2973,7.3744,7.3891,7.4147,7.4793,7.4903,7.4903,7.4903,7.4903,7.4903,7.4903,7.4294,7.3597,7.2899,7.2642,7.2496,7.2496,7.2496,7.2496,7.2496,7.2496,7.2496,7.2496,7.2496,7.2496,7.2496,7.2496,7.2496,5.7776,5.7997,5.7997,5.7997,5.7997,5.7997,5.7997,5.7997,5.7997,5.7997,5.8646,5.9453,6.026,6.1043,6.2157,6.3846,6.5338,6.6623,6.759,6.9096,7.011,7.011,7.1505,7.2496,7.2496,7.2496,7.2496,7.2496,7.2496,7.2496,7.2496,7.2496,7.2496,7.2496,7.2496,7.2496,7.2496,7.2496,7.2496,7.2496,7.2496,7.2496,7.2496,7.2496,7.2496,7.2496,7.2496,7.2496,7.2496,7.2496,7.2496,7.2496,7.2496,7.2496,7.2496,7.2496,7.2496,7.2496,7.2496,7.2496,7.2496,7.2496,7.2496,7.2496,7.2496,7.2496,7.2496,7.2496,7.2496,7.2496,7.2496,7.2496,7.2496,7.2496,7.2496,7.2496,7.2496,7.2496,7.2496,7.2496,7.2496,7.2716,7.3377,7.3523,7.378,7.4588,7.472,7.4757,7.4867,7.4903,7.4903,7.4903,7.4903,7.4903,7.4903,7.4793,7.4647,7.4536,7.3266,7.2496,7.2496,7.2496,7.2496,7.2496,7.2496,7.2496,7.2496,7.2496,7.2496,7.2496,7.2496,7.2496,5.7776,5.7997,5.7997,5.7997,5.7997,5.7997,5.7997,5.7997,5.8107,5.8547,5.9269,6.0077,6.0896,6.2071,6.3478,6.5118,6.6366,6.7297,6.7664,6.9096,7.011,7.011,7.1505,7.2496,7.2496,7.2496,7.2496,7.2496,7.2496,7.2496,7.2496,7.2496,7.2496,7.2496,7.2496,7.2496,7.2496,7.2496,7.2496,7.2496,7.2496,7.2496,7.2496,7.2496,7.2496,7.2496,7.2496,7.2496,7.2496,7.2496,7.2496,7.2496,7.2496,7.2496,7.2496,7.2496,7.2496,7.2496,7.2496,7.2496,7.2496,7.2496,7.2496,7.2496,7.2496,7.2496,7.2496,7.2496,7.2496,7.2496,7.2496,7.2496,7.2496,7.2496,7.2496,7.2496,7.2496,7.2496,7.2496,7.2496,7.2863,7.3266,7.3648,7.4074,7.4625,7.5432,7.5542,7.5711,7.6151,7.6188,7.6188,7.6188,7.6188,7.6188,7.6188,7.5784,7.5175,7.4294,7.356,7.2936,7.2532,7.2496,7.2496,7.2496,7.2496,7.2496,7.2496,7.2496,7.2496,7.2496,7.2496,7.2496,5.7813,5.7997,5.7997,5.7997,5.7997,5.7997,5.7997,5.8143,5.84,5.8829,5.9857,6.0823,6.1227,6.3001,6.4861,6.6256,6.7187,6.7774,6.7958,6.9192,7.0183,7.0367,7.1651,7.2496,7.2496,7.2496,7.2496,7.2496,7.2496,7.2496,7.2496,7.2496,7.2496,7.2496,7.2496,7.2496,7.2496,7.2496,7.2496,7.2496,7.2496,7.2496,7.2496,7.2496,7.2496,7.2496,7.2496,7.2496,7.2496,7.2496,7.2496,7.2496,7.2496,7.2496,7.2496,7.2496,7.2496,7.2496,7.2496,7.2496,7.2496,7.2496,7.2496,7.2496,7.2496,7.2496,7.2496,7.2496,7.2496,7.2496,7.2496,7.2496,7.2496,7.2496,7.2496,7.2496,7.2496,7.2496,7.2569,7.2753,7.3266,7.3832,7.4184,7.4771,7.5454,7.6276,7.6387,7.6592,7.7215,7.7289,7.7289,7.7289,7.7289,7.7289,7.7289,7.6738,7.5763,7.4331,7.3891,7.3413,7.2826,7.2606,7.2496,7.2496,7.2496,7.2496,7.2496,7.2496,7.2496,7.2496,7.2496,7.2496,5.796,5.7997,5.7997,5.7997,5.7997,5.7997,5.7997,5.8572,5.8902,5.8217,5.9905,6.13,6.0603,6.3086,6.5521,6.6366,6.7187,6.7958,6.8715,6.9559,7.0367,7.1123,7.1967,7.2496,7.2496,7.2496,7.2496,7.2496,7.2496,7.2496,7.2496,7.2496,7.2496,7.2496,7.2496,7.2496,7.2496,7.2496,7.2496,7.2496,7.2496,7.2496,7.2496,7.2496,7.2496,7.2496,7.2496,7.2496,7.2496,7.2496,7.2496,7.2496,7.2496,7.2496,7.2496,7.2496,7.2496,7.2496,7.2496,7.2496,7.2496,7.2496,7.2496,7.2496,7.2496,7.2496,7.2496,7.2496,7.2496,7.2496,7.2496,7.2496,7.2496,7.2496,7.2496,7.2496,7.2496,7.2496,7.2716,7.345,7.367,7.4147,7.5652,7.5983,7.6276,7.7105,7.7215,7.7252,7.7289,7.7289,7.7289,7.7289,7.7289,7.7289,7.7289,7.7252,7.6848,7.5983,7.4515,7.3685,7.3611,7.2899,7.2496,7.2496,7.2496,7.2496,7.2496,7.2496,7.2496,7.2496,7.2496,7.2496,5.7997,5.7997,5.7997,5.7997,5.7997,5.7997,5.7997,5.8253,5.8657,5.9355,6.0236,6.1374,6.3123,6.4444,6.5742,6.7026,6.7517,6.7994,6.8788,6.9596,7.0403,7.1197,7.2004,7.2496,7.2496,7.2496,7.2496,7.2496,7.2496,7.2496,7.2496,7.2496,7.2496,7.2496,7.2496,7.2496,7.2496,7.2496,7.2496,7.2496,7.2496,7.2496,7.2496,7.2496,7.2496,7.2496,7.2496,7.2496,7.2496,7.2496,7.2496,7.2496,7.2496,7.2496,7.2496,7.2496,7.2496,7.2496,7.2496,7.2496,7.2496,7.2496,7.2496,7.2496,7.2496,7.2496,7.2496,7.2496,7.2496,7.2496,7.2496,7.2496,7.2496,7.2496,7.2496,7.2496,7.2496,7.2496,7.2753,7.3523,7.4111,7.4808,7.5909,7.6533,7.6959,7.7252,7.7289,7.7289,7.7289,7.7289,7.7289,7.7289,7.7289,7.7289,7.7289,7.7289,7.7179,7.6885,7.5799,7.4955,7.4478,7.367,7.323,7.323,7.2753,7.2496,7.2496,7.2496,7.2496,7.2496,7.2496,7.2496,5.7997,5.7997,5.7997,5.7997,5.7997,5.7997,5.7997,5.8217,5.8767,6.0126,6.0811,6.2022,6.4774,6.5508,6.6109,6.748,6.77,6.8068,6.9119,6.9743,7.0477,7.1564,7.2151,7.2496,7.2496,7.2496,7.2496,7.2496,7.2496,7.2496,7.2496,7.2496,7.2496,7.2496,7.2496,7.2496,7.2496,7.2496,7.2496,7.2496,7.2496,7.2496,7.2496,7.2496,7.2496,7.2496,7.2496,7.2496,7.2496,7.2496,7.2496,7.2496,7.2496,7.2496,7.2496,7.2496,7.2496,7.2496,7.2496,7.2496,7.2496,7.2496,7.2496,7.2496,7.2496,7.2496,7.2496,7.2496,7.2496,7.2496,7.2496,7.2496,7.2496,7.2496,7.2496,7.2496,7.2496,7.2496,7.2826,7.3854,7.4515,7.5234,7.6313,7.6922,7.7289,7.7289,7.7289,7.7289,7.7289,7.7289,7.7289,7.7289,7.7289,7.7289,7.7289,7.7289,7.7289,7.7289,7.6775,7.6114,7.5307,7.4515,7.3964,7.3722,7.3156,7.2753,7.2496,7.2496,7.2496,7.2496,7.2496,7.2496,5.7997,5.7997,5.7997,5.7997,5.7997,5.7997,5.7997,5.8609,5.9416,6.0224,6.1692,6.3306,6.4995,6.5962,6.6769,6.759,6.77,6.8251,6.9853,7.011,7.0697,7.2312,7.2496,7.2496,7.2496,7.2496,7.2496,7.2496,7.2496,7.2496,7.2496,7.2496,7.2496,7.2496,7.2496,7.2496,7.2496,7.2496,7.2496,7.2496,7.2496,7.2496,7.2496,7.2496,7.2496,7.2496,7.2496,7.2496,7.2496,7.2496,7.2496,7.2496,7.2496,7.2496,7.2496,7.2496,7.2496,7.2496,7.2496,7.2496,7.2496,7.2496,7.2496,7.2496,7.2496,7.2496,7.2496,7.2496,7.2496,7.2496,7.2496,7.2496,7.2496,7.2496,7.2496,7.2496,7.2496,7.2496,7.2973,7.4573,7.4903,7.5417,7.7032,7.7289,7.7289,7.7289,7.7289,7.7289,7.7289,7.7289,7.7289,7.7289,7.7289,7.7289,7.7289,7.7289,7.7289,7.7289,7.7289,7.6922,7.613,7.5344,7.4551,7.3744,7.3722,7.3303,7.2496,7.2496,7.2496,7.2496,7.2496,7.2496,5.7997,5.7997,5.7997,5.7997,5.7997,5.8143,5.8719,5.9049,5.96,6.097,6.2548,6.4053,6.5105,6.5962,6.6769,6.759,6.77,6.8251,6.9853,7.011,7.0697,7.2312,7.2496,7.2496,7.2496,7.2496,7.2496,7.2496,7.2496,7.2496,7.2496,7.2496,7.2496,7.2496,7.2496,7.2496,7.2496,7.2496,7.2496,7.2496,7.2496,7.2496,7.2496,7.2496,7.2496,7.2496,7.2496,7.2496,7.2496,7.2496,7.2496,7.2496,7.2496,7.2496,7.2496,7.2496,7.2496,7.2496,7.2496,7.2496,7.2496,7.2496,7.2496,7.2496,7.2496,7.2496,7.2496,7.2496,7.2496,7.2496,7.2496,7.2496,7.2496,7.2496,7.2496,7.2496,7.2496,7.2496,7.2973,7.4573,7.4903,7.5417,7.7032,7.7289,7.7289,7.7289,7.7289,7.7289,7.7289,7.7289,7.7289,7.7289,7.7289,7.7289,7.7289,7.7289,7.7289,7.7289,7.7289,7.7179,7.6959,7.6151,7.5616,7.5395,7.4258,7.356,7.334,7.2789,7.2496,7.2496,7.2496,7.2496,5.7997,5.7997,5.7997,5.7997,5.7997,5.829,5.9416,5.993,6.0517,6.1814,6.3392,6.4824,6.5632,6.6439,6.715,6.7627,6.77,6.8251,6.9853,7.011,7.0697,7.2312,7.2496,7.2496,7.2496,7.2496,7.2496,7.2496,7.2496,7.2496,7.2496,7.2496,7.2496,7.2496,7.2496,7.2496,7.2496,7.2496,7.2496,7.2496,7.2496,7.2496,7.2496,7.2496,7.2496,7.2496,7.2496,7.2496,7.2496,7.2496,7.2496,7.2496,7.2496,7.2496,7.2496,7.2496,7.2496,7.2496,7.2496,7.2496,7.2496,7.2496,7.2496,7.2496,7.2496,7.2496,7.2496,7.2496,7.2496,7.2496,7.2496,7.2496,7.2496,7.2496,7.2496,7.2496,7.2496,7.2496,7.2973,7.4573,7.4903,7.5417,7.7032,7.7289,7.7289,7.7289,7.7289,7.7289,7.7289,7.7289,7.7289,7.7289,7.7289,7.7289,7.7289,7.7289,7.7289,7.7289,7.7289,7.7289,7.7289,7.6812,7.6423,7.6093,7.5139,7.4331,7.3722,7.3193,7.2826,7.2496,7.2496,7.2496,5.7997,5.7997,5.7997,5.7997,5.7997,5.8437,6.0015,6.097,6.1741,6.2719,6.4187,6.5545,6.6366,6.715,6.77,6.77,6.77,6.8251,6.9853,7.011,7.0697,7.2312,7.2496,7.2496,7.2496,7.2496,7.2496,7.2496,7.2496,7.2496,7.2496,7.2496,7.2496,7.2496,7.2496,7.2496,7.2496,7.2496,7.2496,7.2496,7.2496,7.2496,7.2496,7.2496,7.2496,7.2496,7.2496,7.2496,7.2496,7.2496,7.2496,7.2496,7.2496,7.2496,7.2496,7.2496,7.2496,7.2496,7.2496,7.2496,7.2496,7.2496,7.2496,7.2496,7.2496,7.2496,7.2496,7.2496,7.2496,7.2496,7.2496,7.2496,7.2496,7.2496,7.2496,7.2496,7.2496,7.2496,7.2973,7.45,7.483,7.538,7.6922,7.7252,7.7289,7.7289,7.7289,7.7289,7.7289,7.7289,7.7289,7.7289,7.7289,7.7289,7.7289,7.7289,7.7289,7.7289,7.7289,7.7289,7.7289,7.7289,7.6959,7.624,7.613,7.5395,7.3942,7.378,7.3303,7.2606,7.2532,7.2496,5.7997,5.7997,5.7997,5.7997,5.7997,5.8437,6.0015,6.0529,6.1263,6.3392,6.4604,6.5545,6.6366,6.715,6.77,6.77,6.77,6.8251,6.9853,7.011,7.0697,7.2312,7.2496,7.2496,7.2496,7.2496,7.2496,7.2496,7.2496,7.2496,7.2496,7.2496,7.2496,7.2496,7.2496,7.2496,7.2496,7.2496,7.2496,7.2496,7.2496,7.2496,7.2496,7.2496,7.2496,7.2496,7.2496,7.2496,7.2496,7.2496,7.2496,7.2496,7.2496,7.2496,7.2496,7.2496,7.2496,7.2496,7.2496,7.2496,7.2496,7.2496,7.2496,7.2496,7.2496,7.2496,7.2496,7.2496,7.2496,7.2496,7.2496,7.2496,7.2496,7.2496,7.2496,7.2496,7.2496,7.2496,7.2789,7.378,7.4478,7.5197,7.6203,7.6885,7.7289,7.7289,7.7289,7.7289,7.7289,7.7289,7.7289,7.7289,7.7289,7.7289,7.7289,7.7289,7.7289,7.7289,7.7289,7.7289,7.7289,7.7289,7.7215,7.7032,7.6423,7.5946,7.5579,7.4331,7.3597,7.3413,7.2789,7.2496,5.7997,5.7997,5.7997,5.7997,5.7997,5.8437,6.0015,6.0419,6.1227,6.409,6.5007,6.5655,6.6843,6.7407,6.77,6.77,6.77,6.8251,6.9853,7.011,7.0697,7.2312,7.2496,7.2496,7.2496,7.2496,7.2496,7.2496,7.2496,7.2496,7.2496,7.2496,7.2496,7.2496,7.2496,7.2496,7.2496,7.2496,7.2496,7.2496,7.2496,7.2496,7.2496,7.2496,7.2496,7.2496,7.2496,7.2496,7.2496,7.2496,7.2496,7.2496,7.2496,7.2496,7.2496,7.2496,7.2496,7.2496,7.2496,7.2496,7.2496,7.2496,7.2496,7.2496,7.2496,7.2496,7.2496,7.2496,7.2496,7.2496,7.2496,7.2496,7.2496,7.2496,7.2496,7.2496,7.2496,7.2496,7.2753,7.3523,7.4368,7.516,7.5946,7.6775,7.7289,7.7289,7.7289,7.7289,7.7289,7.7289,7.7289,7.7289,7.7289,7.7289,7.7289,7.7289,7.7289,7.7289,7.7289,7.7289,7.7289,7.7289,7.7289,7.7289,7.6885,7.6497,7.6093,7.5249,7.4441,7.367,7.3266,7.3021,5.7997,5.7997,5.7997,5.7997,5.7997,5.8437,6.0015,6.0419,6.1337,6.4628,6.5288,6.5778,6.7407,6.77,6.77,6.77,6.77,6.8251,6.9853,7.011,7.0697,7.2312,7.2496,7.2496,7.2496,7.2496,7.2496,7.2496,7.2496,7.2496,7.2496,7.2496,7.2496,7.2496,7.2496,7.2496,7.2496,7.2496,7.2496,7.2496,7.2496,7.2496,7.2496,7.2496,7.2496,7.2496,7.2496,7.2496,7.2496,7.2496,7.2496,7.2496,7.2496,7.2496,7.2496,7.2496,7.2496,7.2496,7.2496,7.2496,7.2496,7.2496,7.2496,7.2496,7.2496,7.2496,7.2496,7.2496,7.2496,7.2496,7.2496,7.2496,7.2496,7.2496,7.2496,7.2496,7.2496,7.2496,7.2716,7.334,7.4258,7.5197,7.613,7.6848,7.7289,7.7289,7.7289,7.7289,7.7289,7.7289,7.7289,7.7289,7.7289,7.7289,7.7289,7.7289,7.7289,7.7289,7.7289,7.7289,7.7289,7.7289,7.7289,7.7289,7.7289,7.6959,7.6313,7.6166,7.5432,7.4125,7.3934,7.373,5.7997,5.7997,5.7997,5.7997,5.7997,5.8437,6.0015,6.0419,6.1337,6.4628,6.5288,6.5778,6.7407,6.77,6.77,6.77,6.77,6.8251,6.9853,7.011,7.0697,7.2312,7.2496,7.2496,7.2496,7.2496,7.2496,7.2496,7.2496,7.2496,7.2496,7.2496,7.2496,7.2496,7.2496,7.2496,7.2496,7.2496,7.2496,7.2496,7.2496,7.2496,7.2496,7.2496,7.2496,7.2496,7.2496,7.2496,7.2496,7.2496,7.2496,7.2496,7.2496,7.2496,7.2496,7.2496,7.2496,7.2496,7.2496,7.2496,7.2496,7.2496,7.2496,7.2496,7.2496,7.2496,7.2496,7.2496,7.2496,7.2496,7.2496,7.2496,7.2496,7.2496,7.2496,7.2496,7.2496,7.2496,7.2532,7.2642,7.3876,7.538,7.6885,7.7252,7.7289,7.7289,7.7289,7.7289,7.7289,7.7289,7.7289,7.7289,7.7289,7.7289,7.7289,7.7289,7.7289,7.7289,7.7289,7.7289,7.7289,7.7289,7.7289,7.7289,7.7289,7.7252,7.7142,7.646,7.5983,7.5778,7.4839,7.4383,5.7997,5.7997,5.7997,5.7997,5.7997,5.8437,6.0015,6.0419,6.1337,6.4628,6.5288,6.5778,6.7407,6.7333,6.7187,6.7627,6.77,6.8251,6.9853,7.011,7.0697,7.2312,7.2496,7.2496,7.2496,7.2496,7.2496,7.2496,7.2496,7.2496,7.2496,7.2496,7.2496,7.2496,7.2496,7.2496,7.2496,7.2496,7.2496,7.2496,7.2496,7.2496,7.2496,7.2496,7.2496,7.2496,7.2496,7.2496,7.2496,7.2496,7.2496,7.2496,7.2496,7.2496,7.2496,7.2496,7.2496,7.2496,7.2496,7.2496,7.2496,7.2496,7.2496,7.2496,7.2496,7.2496,7.2496,7.2496,7.2496,7.2496,7.2496,7.2496,7.2496,7.2496,7.2496,7.2496,7.2496,7.2496,7.2642,7.3083,7.4111,7.527,7.6408,7.6995,7.7289,7.7289,7.7289,7.7289,7.7289,7.7289,7.7289,7.7289,7.7289,7.7289,7.7289,7.7289,7.7289,7.7289,7.7289,7.7289,7.7289,7.7289,7.7289,7.7289,7.7289,7.7289,7.7289,7.726,7.6992,7.6525,7.5925,7.5519,5.7997,5.7997,5.7997,5.7997,5.7997,5.8364,5.9783,6.026,6.1251,6.4347,6.5007,6.5485,6.7113,6.7076,6.699,6.759,6.77,6.8178,6.9596,6.9963,7.0624,7.2018,7.2386,7.2496,7.2496,7.2496,7.2496,7.2496,7.2496,7.2496,7.2496,7.2496,7.2496,7.2496,7.2496,7.2496,7.2496,7.2496,7.2496,7.2496,7.2496,7.2496,7.2496,7.2496,7.2496,7.2496,7.2496,7.2496,7.2496,7.2496,7.2496,7.2496,7.2496,7.2496,7.2496,7.2496,7.2496,7.2496,7.2496,7.2496,7.2496,7.2496,7.2496,7.2496,7.2496,7.2496,7.2496,7.2496,7.2496,7.2496,7.2496,7.261,7.2681,7.2524,7.261,7.2681,7.2524,7.261,7.2944,7.3768,7.4656,7.5567,7.638,7.7193,7.771,7.771,7.771,7.7651,7.751,7.7495,7.7435,7.7304,7.7289,7.7289,7.7289,7.7289,7.7289,7.7289,7.7289,7.735,7.7495,7.7495,7.757,7.7695,7.7585,7.7457,7.7289,7.7854,7.7779,7.7213,7.7054,7.6768,5.7997,5.7997,5.7997,5.7997,5.7997,5.8217,5.9086,5.9857,6.1117,6.3662,6.4176,6.4653,6.6256,6.7136,6.7664,6.77,6.77,6.7994,6.8862,6.9633,7.0403,7.127,7.2041,7.2496,7.2496,7.2496,7.2496,7.2496,7.2496,7.2496,7.2496,7.2496,7.2496,7.2496,7.2496,7.2496,7.2496,7.2496,7.2496,7.2496,7.2496,7.2496,7.2496,7.2496,7.2496,7.2496,7.2496,7.2496,7.2496,7.2496,7.2496,7.2496,7.2496,7.2496,7.2496,7.2496,7.2496,7.2496,7.2496,7.2496,7.2496,7.2496,7.2496,7.2496,7.2496,7.2496,7.2496,7.2496,7.2496,7.2496,7.2496,7.2881,7.3127,7.2624,7.2894,7.3114,7.2624,7.2908,7.3482,7.4299,7.5508,7.6666,7.7467,7.8266,7.8816,7.8816,7.8816,7.8627,7.8104,7.8072,7.7846,7.735,7.7289,7.7289,7.7289,7.7289,7.7289,7.7289,7.7289,7.7525,7.8044,7.8072,7.8309,7.8804,7.8322,7.7826,7.7289,7.7854,7.809,7.803,7.8278,7.7933,5.7997,5.7997,5.7997,5.7997,5.7997,5.8217,5.9013,5.9416,6.0334,6.2768,6.3723,6.458,6.6182,6.6733,6.6916,6.6916,6.737,6.7994,6.8788,6.9155,6.9816,7.1123,7.1564,7.1931,7.2459,7.2496,7.2496,7.2496,7.2496,7.2496,7.2496,7.2496,7.2496,7.2496,7.2496,7.2496,7.2496,7.2496,7.2496,7.2496,7.2496,7.2496,7.2496,7.2496,7.2496,7.2496,7.2496,7.2496,7.2496,7.2496,7.2496,7.2496,7.2496,7.2496,7.2496,7.2496,7.2496,7.2496,7.2496,7.2496,7.2496,7.2496,7.2496,7.2496,7.2496,7.2496,7.2496,7.2496,7.2496,7.2496,7.2496,7.2653,7.2826,7.299,7.339,7.3689,7.3504,7.3616,7.3812,7.4112,7.543,7.66,7.6901,7.8027,7.8903,7.8903,7.8903,7.8829,7.8627,7.8601,7.8523,7.8363,7.803,7.7789,7.7789,7.7789,7.7789,7.7789,7.8132,7.8392,7.8601,7.8601,7.869,7.8891,7.8703,7.851,7.8336,7.851,7.8779,7.9121,7.906,7.8847,5.7997,5.7997,5.7997,5.7997,5.7997,5.8143,5.8682,5.9013,5.9747,6.1618,6.3135,6.4433,6.5485,6.6366,6.688,6.688,6.71,6.759,6.8385,6.8752,6.9288,7.0353,7.072,7.1197,7.2004,7.2078,7.2202,7.2496,7.2496,7.2496,7.2496,7.2496,7.2496,7.2496,7.2496,7.2496,7.2496,7.2496,7.2496,7.2496,7.2496,7.2496,7.2496,7.2496,7.2496,7.2496,7.2496,7.2496,7.2496,7.2496,7.2496,7.2496,7.2496,7.2496,7.2496,7.2496,7.2496,7.2496,7.2496,7.2496,7.2496,7.2496,7.2496,7.2496,7.2496,7.2496,7.2496,7.2496,7.2496,7.2496,7.2496,7.2638,7.2908,7.3415,7.3904,7.4221,7.4221,7.4221,7.4221,7.4221,7.5749,7.6981,7.6981,7.8353,7.9449,7.9449,7.9449,7.9381,7.918,7.9157,7.9085,7.8915,7.8575,7.8376,7.8376,7.8376,7.8376,7.8376,7.869,7.8977,7.9145,7.9157,7.9227,7.9437,7.9277,7.9277,7.9437,7.9277,7.9358,7.9708,7.9705,7.9407,0.0,0.0,0.0,5.7997,5.7997,5.7997,5.7997,5.8609,5.938,6.0187,6.2291,6.4029,6.4103,6.6012,6.7627,6.77,6.704,6.6769,6.7554,6.8348,6.8862,6.8885,6.9596,7.0367,7.1197,7.127,7.16,7.2422,7.2459,7.2459,7.2496,7.2496,7.2496,7.2496,7.2496,7.2496,7.2496,7.2496,7.2496,7.2496,7.2496,7.2496,7.2496,7.2496,7.2496,7.2496,7.2496,7.2496,7.2496,7.2496,7.2496,7.2496,7.2496,7.2496,7.2496,7.2496,7.2496,7.2496,7.2496,7.2496,7.2496,7.2496,7.2496,7.2496,7.2496,7.2496,7.2496,7.2496,7.2496,7.2496,7.2496,7.2922,7.3428,7.3904,7.4353,7.4735,7.4735,7.4735,7.4735,7.4735,7.6503,7.8022,7.8022,7.9398,8.0506,8.0506,8.0506,8.0325,7.9783,7.9719,7.9516,7.9001,7.8928,7.8915,7.8915,7.8915,7.8915,7.8915,7.894,7.9168,7.9708,7.9719,7.9968,8.0497,7.9989,7.9979,8.0506,7.9968,7.9708,7.973,8.0248,7.9627,5.7997,0.0,0.0,0.0,0.0,0.0,5.7997,5.818,5.8547,5.938,6.0554,6.1961,6.3772,6.4653,6.5681,6.7407,6.704,6.6586,6.6806,6.7026,6.7614,6.8738,6.9119,6.9559,7.0367,7.044,7.077,7.1564,7.1637,7.1894,7.2459,7.2496,7.2496,7.2496,7.2496,7.2496,7.2496,7.2496,7.2496,7.2496,7.2496,7.2496,7.2496,7.2496,7.2496,7.2496,7.2496,7.2496,7.2496,7.2496,7.2496,7.2496,7.2496,7.2496,7.2496,7.2496,7.2496,7.2496,7.2496,7.2496,7.2496,7.2496,7.2496,7.2496,7.2496,7.2496,7.2496,7.2496,7.2496,7.2496,7.2496,7.3143,7.3845,7.3986,7.4633,7.5272,7.5272,7.5272,7.5272,7.5272,7.6766,7.8022,7.8022,7.9398,8.0506,8.0506,8.0506,8.0468,8.0315,8.0258,8.0219,8.0061,7.9719,7.9471,7.9471,7.9471,7.9471,7.9471,7.9836,8.0101,8.0258,8.0258,8.0354,8.0506,8.0354,8.0354,8.0506,7.9968,7.9916,8.0268,8.0421,7.9933,0.0,0.0,5.7997,5.7997,0.0,0.0,5.7997,5.7997,5.8143,5.8609,5.96,6.086,6.2291,6.3686,6.4934,6.6012,6.6366,6.6512,6.6512,6.6512,6.6843,6.7797,6.8201,6.8715,6.9522,6.9596,6.9926,7.072,7.0807,7.116,7.1967,7.2312,7.2496,7.2496,7.2496,7.2496,7.2496,7.2496,7.2496,7.2496,7.2496,7.2496,7.2496,7.2496,7.2496,7.2496,7.2496,7.2496,7.2496,7.2496,7.2496,7.2496,7.2496,7.2496,7.2496,7.2496,7.2496,7.2496,7.2496,7.2496,7.2496,7.2496,7.2496,7.2496,7.2496,7.2667,7.2839,7.2839,7.298,7.3117,7.3117,7.3725,7.4276,7.4276,7.4893,7.5509,7.5509,7.5509,7.5509,7.5509,7.657,7.7564,7.7937,7.9092,8.0095,8.043,8.0506,8.0506,8.0506,8.0506,8.0506,8.0506,8.0219,8.002,8.002,8.002,8.002,8.002,8.0335,8.0506,8.0506,8.0506,8.0506,8.0506,8.0506,8.0506,8.0506,8.0189,8.0189,8.0506,8.0506,8.0057,0.0,0.0,0.0,0.0,5.7997,0.0,5.7997,5.7997,5.7997,5.7997,5.9134,6.0199,6.0382,6.2793,6.4604,6.4176,6.5301,6.6292,6.6476,6.6402,6.6402,6.6476,6.715,6.7847,6.8568,6.8701,6.9119,6.9889,7.0036,7.044,7.127,7.1967,7.2422,7.2496,7.2496,7.2496,7.2496,7.2496,7.2496,7.2496,7.2496,7.2496,7.2496,7.2496,7.2496,7.2496,7.2496,7.2496,7.2496,7.2496,7.2496,7.2496,7.2496,7.2496,7.2496,7.2496,7.2496,7.2496,7.2496,7.2496,7.2496,7.2496,7.2539,7.2596,7.2596,7.2939,7.3401,7.3401,7.3665,7.4009,7.4009,7.4331,7.4715,7.4715,7.5114,7.5509,7.5509,7.5509,7.5509,7.5509,7.6159,7.6991,7.786,7.8719,7.956,8.0391,8.0506,8.0506,8.0506,8.0506,8.0506,8.0506,8.0506,8.0506,8.0506,8.0506,8.0506,8.0506,8.0506,8.0506,8.0506,8.0506,8.0506,8.0506,8.0506,8.0506,8.0506,8.0506,8.0506,8.0506,8.0506,8.0133,0.0,0.0,0.0,0.0,0.0,0.0,5.7997,5.7997,5.7997,5.7997,5.8253,5.8841,6.0162,6.0933,6.1961,6.3809,6.436,6.5007,6.6329,6.5925,6.5765,6.6402,6.6623,6.6806,6.6953,6.754,6.8274,6.9082,6.9743,7.044,7.127,7.1454,7.1821,7.2496,7.2496,7.2496,7.2496,7.2496,7.2496,7.2496,7.2496,7.2496,7.2496,7.2496,7.2496,7.2496,7.2496,7.2496,7.2496,7.2496,7.2496,7.2496,7.2496,7.2496,7.2496,7.2496,7.2496,7.2496,7.2496,7.2496,7.2496,7.2496,7.2784,7.3141,7.3141,7.3491,7.3869,7.3869,7.394,7.4009,7.4009,7.4331,7.4715,7.4715,7.5114,7.5509,7.5509,7.5509,7.5509,7.5509,7.6159,7.6991,7.786,7.8719,7.956,8.0391,8.0506,8.0506,8.0506,8.0506,8.0506,8.0506,8.0506,8.0506,8.0506,8.0506,8.0506,8.0506,8.0506,8.0506,8.0506,8.0506,8.0506,8.0506,8.0506,8.0506,8.0506,8.0506,8.0506,8.0506,8.0506,8.043,0.0,0.0,0.0,5.7997,0.0,0.0,0.0,5.7997,5.7997,5.7997,5.7997,5.8253,5.9061,5.9869,6.0823,6.2034,6.2915,6.3723,6.453,6.5375,6.6035,6.6439,6.6512,6.6512,6.6512,6.6843,6.743,6.8238,6.9045,6.9669,7.0059,7.0463,7.105,7.1857,7.1894,7.2092,7.2496,7.2496,7.2496,7.2496,7.2496,7.2496,7.2496,7.2496,7.2496,7.2496,7.2496,7.2496,7.2496,7.2496,7.2496,7.2496,7.2496,7.2496,7.2496,7.2496,7.2496,7.2496,7.2496,7.2695,7.2908,7.2908,7.3222,7.3628,7.3628,7.3986,7.4385,7.4692,7.4753,7.4753,7.4753,7.4912,7.5104,7.5104,7.529,7.5509,7.5509,7.5509,7.5509,7.5509,7.5815,7.6494,7.7793,7.8366,7.9054,8.0315,8.0506,8.0506,8.0506,8.0506,8.0506,8.0506,8.0506,8.0506,8.0506,8.0506,8.0506,8.0506,8.0506,8.0506,8.0506,8.0506,8.0506,8.0506,8.0506,8.0506,8.0506,8.0506,8.0506,8.0506,8.0506,8.0506,0.0,0.0,0.0,0.0,0.0,5.7997,0.0,0.0,0.0,5.7997,5.7997,5.7997,5.7997,5.9061,5.9979,6.015,6.1398,6.2389,6.2536,6.442,6.5852,6.5999,6.6292,6.6439,6.6292,6.6402,6.6769,6.7407,6.8201,6.8752,6.8885,6.9522,7.0257,7.105,7.1233,7.16,7.2275,7.2422,7.2496,7.2496,7.2496,7.2496,7.2496,7.2496,7.2496,7.2496,7.2496,7.2496,7.2496,7.2496,7.2496,7.2496,7.2496,7.2496,7.2496,7.2496,7.2567,7.263,7.263,7.298,7.3428,7.3428,7.375,7.4132,7.427,7.455,7.4942,7.5383,7.5509,7.5509,7.5509,7.5509,7.5509,7.5509,7.5509,7.5509,7.5509,7.5509,7.5509,7.5509,7.5509,7.6044,7.7717,7.8022,7.8557,8.0238,8.0506,8.0506,8.0506,8.0506,8.0506,8.0506,8.0506,8.0506,8.0506,8.0506,8.0506,8.0506,8.0506,8.0506,8.0506,8.0506,8.0506,8.0506,8.0506,8.0506,8.0506,8.0506,8.0506,8.0506,8.0506,8.0506,0.0,0.0,0.0,0.0,5.7997,0.0,0.0,0.0,5.7997,5.7997,0.0,5.7997,5.7997,0.0,0.0,5.9233,6.0077,6.0933,6.163,6.2585,6.349,6.4286,6.5632,6.6219,6.5508,6.6072,6.6549,6.6623,6.737,6.8128,6.8862,6.9009,6.9412,7.022,7.094,7.1344,7.1454,7.2151,7.2496,7.2496,7.2496,7.2496,7.2496,7.2496,7.2496,7.2496,7.2496,7.2496,7.2496,7.2496,7.2496,7.2496,7.2496,7.2496,7.2496,7.2496,7.2798,7.3207,7.3207,7.3529,7.3928,7.3928,7.4221,7.4705,7.5199,7.5374,7.5418,7.5501,7.5509,7.5509,7.5509,7.5509,7.5509,7.5509,7.5509,7.5509,7.5509,7.5509,7.5509,7.5509,7.5509,7.6044,7.7717,7.8022,7.8557,8.0238,8.0506,8.0506,8.0506,8.0506,8.0506,8.0506,8.0506,8.0506,8.0506,8.0506,8.0506,8.0506,8.0506,8.0506,8.0506,8.0506,8.0506,8.0506,8.0506,8.0506,8.0506,8.0506,8.0506,8.0506,8.0506,8.0506,0.0,0.0,0.0,0.0,0.0,0.0,5.7997,0.0,5.7997,0.0,0.0,0.0,0.0,0.0,0.0,0.0,5.8804,5.9134,5.9465,6.0603,6.1875,6.3209,6.4383,6.5154,6.5288,6.5632,6.5999,6.6476,6.6806,6.7357,6.8164,6.8201,6.8568,6.9376,6.9743,7.0353,7.1307,7.1637,7.2041,7.2496,7.2496,7.2496,7.2496,7.2496,7.2496,7.2496,7.2496,7.2496,7.2496,7.2496,7.2496,7.2524,7.2839,7.2939,7.2939,7.2939,7.3261,7.3701,7.3701,7.4033,7.4476,7.4773,7.5009,7.5226,7.5427,7.5509,7.5509,7.5509,7.5509,7.5509,7.5509,7.5509,7.5509,7.5509,7.5509,7.5509,7.5509,7.5509,7.5509,7.5509,7.5509,7.5853,7.7029,7.7678,7.8404,7.9636,8.02,8.0506,8.0506,8.0506,8.0506,8.0506,8.0506,8.0506,8.0506,8.0506,8.0506,8.0506,8.0506,8.0506,8.0506,8.0506,8.0506,8.0506,8.0506,8.0506,8.0506,8.0018,7.9789,7.9789,7.9789,7.9522,5.7997,0.0,0.0,0.0,0.0,0.0,0.0,0.0,0.0,0.0,5.7997,0.0,0.0,0.0,0.0,0.0,0.0,5.7997,5.7997,5.9024,6.0346,6.1949,6.3099,6.4053,6.4897,6.4971,6.5301,6.6109,6.6182,6.6512,6.7333,6.737,6.7724,6.8568,6.8788,6.9472,7.0646,7.1087,7.16,7.2165,7.2386,7.2496,7.2496,7.2496,7.2496,7.2496,7.2496,7.2496,7.2496,7.2496,7.2596,7.2756,7.3141,7.3453,7.3652,7.3541,7.3786,7.4177,7.4177,7.4519,7.4971,7.5383,7.5509,7.5509,7.5509,7.5509,7.5509,7.5509,7.5509,7.5509,7.5509,7.5509,7.5509,7.5509,7.5509,7.5509,7.5509,7.5509,7.5509,7.5509,7.5509,7.57,7.6265,7.7067,7.8022,7.914,7.9789,8.0238,8.0468,8.0506,8.0506,8.0506,8.0506,8.0506,8.0506,8.0506,8.0506,8.0506,8.0506,8.0506,8.0506,8.0506,8.0506,8.0506,8.0277,8.0162,8.0162,7.9331,7.8834,7.8605,7.8834,7.8596,0.0,0.0,0.0,5.7997,0.0,0.0,0.0,0.0,5.7997,0.0,0.0,0.0,0.0,0.0,0.0,0.0,0.0,0.0,0.0,5.8033,5.8657,6.0309,6.1875,6.316,6.4066,6.4139,6.4457,6.5288,6.5325,6.5692,6.6512,6.6549,6.6916,6.77,6.8495,6.8921,6.8958,7.0536,7.1307,7.1344,7.2114,7.2496,7.2496,7.2496,7.2496,7.2496,7.2496,7.2496,7.2496,7.2496,7.2798,7.3272,7.3298,7.3857,7.4613,7.4169,7.4265,7.4695,7.4695,7.5047,7.5492,7.5509,7.5509,7.5509,7.5509,7.5509,7.5509,7.5509,7.5509,7.5509,7.5509,7.5509,7.5509,7.5509,7.5509,7.5509,7.5509,7.5509,7.5509,7.5509,7.5509,7.5509,7.5548,7.6188,7.7335,7.9025,7.9331,7.9636,8.0391,8.0506,8.0506,8.0506,8.0506,8.0506,8.0506,8.0506,8.0506,8.0506,8.0506,8.0506,8.0506,8.0506,8.0506,8.0506,7.9751,7.9331,7.9331,7.8481,7.7602,7.68,7.764,7.8022,5.7997,5.7997,5.7997,5.7997,0.0,0.0,0.0,0.0,0.0,0.0,0.0,0.0,0.0,0.0,0.0,0.0,0.0,0.0,0.0,5.7997,5.8217,5.8731,6.0236,6.1728,6.3086,6.3759,6.4213,6.4494,6.5007,6.5655,6.6476,6.6512,6.688,6.7664,6.7958,6.8348,6.8885,6.9963,7.077,7.1307,7.2129,7.2496,7.2496,7.2496,7.2496,7.2496,7.2496,7.2496,7.2496,7.2496,7.2812,7.3337,7.3628,7.4132,7.4695,7.4502,7.4804,7.5236,7.5236,7.5365,7.5509,7.5509,7.5509,7.5509,7.5509,7.5509,7.5509,7.5509,7.5509,7.5509,7.5509,7.5509,7.5509,7.5509,7.5509,7.5509,7.5509,7.5509,7.5509,7.5509,7.5509,7.5509,7.5509,7.5739,7.6465,7.8175,7.8949,7.9598,8.0391,8.0506,8.0506,8.0506,8.0506,8.0506,8.0506,8.0506,8.0506,8.0506,8.0506,8.0506,8.0506,8.0506,8.0238,7.9713,7.9445,7.9025,7.8443,7.7564,7.6991,7.6685,7.6465,7.635,5.7997,5.7997,5.7997,5.7997,5.7997,5.7997,5.7997,0.0,5.7997,0.0,0.0,0.0,0.0,0.0,0.0,0.0,0.0,0.0,0.0,5.7997,5.7997,5.7997,5.9171,6.0591,6.2205,6.2879,6.3589,6.4457,6.4444,6.4884,6.5999,6.6072,6.6439,6.726,6.7554,6.7958,6.8458,6.9265,7.0073,7.0866,7.1674,7.2224,7.2496,7.2496,7.2496,7.2496,7.2496,7.2496,7.251,7.2686,7.3087,7.3603,7.4079,7.4561,7.4971,7.4971,7.5179,7.5509,7.5509,7.5509,7.5509,7.5509,7.5509,7.5509,7.5509,7.5509,7.5509,7.5509,7.5509,7.5509,7.5509,7.5509,7.5509,7.5509,7.5509,7.5509,7.5509,7.5509,7.5509,7.5509,7.5509,7.5509,7.5509,7.5509,7.5968,7.7335,7.8022,7.8796,7.9942,8.0057,8.0162,8.0468,8.0506,8.0506,8.0506,8.0506,8.0506,8.0506,8.0506,8.0506,8.0506,8.0248,7.998,7.9713,7.8834,7.8261,7.8022,7.6838,7.6265,7.6265,7.5739,7.5509]}]]